[[{"header":{"parameterUnit":"m.s-1","parameterCategory":1,"la1":30.6,"la2":29.2853,"lo1":-89.7004,"lo2":-87.6739,"dy":0.0162,"dx":0.0183,"nx":112,"ny":82,"refTime":"2024-06-30T00:00:00:Z","depth":0,"parameterNumber":2,"parameterNumberName":"U-component_of_WINDS"},"data":[0.0,0.0,0.0,0.0,0.0,0.0,0.0,0.0,0.0,0.0,0.0,0.0,0.0,0.0,0.0,0.0,0.0,0.0,0.0,0.0,0.0,0.0,0.0,0.0,0.0,0.0,0.0,0.0,0.0,0.0,0.0,0.0,0.0,0.0,0.0,0.0,0.0,0.0,0.0,0.0,0.0,0.0,0.0,0.0,0.0,0.0,0.0,0.0,0.0,0.0,0.0,0.0,0.0,0.0,0.0,0.0,0.0,0.0,0.0,0.0,0.0,0.0,0.0,0.0,0.0,0.0,0.0,0.0,0.0,0.0,0.0,0.0,0.0,0.0,0.0,0.0,0.0,0.0,0.0,0.0,0.0,0.0,0.0,0.0,0.0,0.0,0.0,0.0,0.0,0.0,-2.7557,-2.7518,-2.7253,-2.6956,-2.675,-2.6513,-2.6287,-2.6018,0.0,0.0,0.0,0.0,0.0,0.0,0.0,0.0,0.0,0.0,0.0,0.0,0.0,0.0,0.0,0.0,0.0,0.0,0.0,0.0,0.0,0.0,0.0,0.0,0.0,0.0,0.0,0.0,0.0,0.0,0.0,0.0,0.0,0.0,0.0,0.0,0.0,0.0,0.0,0.0,0.0,0.0,0.0,0.0,0.0,0.0,0.0,0.0,0.0,0.0,0.0,0.0,0.0,0.0,0.0,0.0,0.0,0.0,0.0,0.0,0.0,0.0,0.0,0.0,0.0,0.0,0.0,0.0,0.0,0.0,0.0,0.0,0.0,0.0,0.0,0.0,0.0,0.0,0.0,0.0,0.0,0.0,0.0,0.0,0.0,0.0,0.0,0.0,0.0,0.0,0.0,0.0,0.0,0.0,0.0,0.0,0.0,0.0,0.0,0.0,0.0,0.0,0.0,0.0,-2.7426,-2.719,-2.6989,-2.675,-2.6479,-2.6383,-2.6189,-2.5917,0.0,0.0,0.0,0.0,0.0,0.0,0.0,0.0,0.0,0.0,0.0,0.0,0.0,0.0,0.0,0.0,0.0,0.0,0.0,0.0,0.0,0.0,0.0,0.0,0.0,0.0,0.0,0.0,0.0,0.0,0.0,0.0,0.0,0.0,0.0,0.0,0.0,0.0,0.0,0.0,0.0,0.0,0.0,0.0,0.0,0.0,0.0,0.0,0.0,0.0,0.0,0.0,0.0,0.0,0.0,0.0,0.0,0.0,0.0,0.0,0.0,0.0,0.0,0.0,0.0,0.0,0.0,0.0,0.0,0.0,0.0,0.0,0.0,0.0,0.0,0.0,0.0,0.0,0.0,0.0,0.0,0.0,0.0,0.0,0.0,0.0,0.0,0.0,0.0,0.0,0.0,0.0,0.0,0.0,0.0,0.0,0.0,0.0,0.0,0.0,0.0,0.0,0.0,-2.7996,-2.79,-2.763,-2.7055,-2.6615,-2.6357,-2.6268,-2.6151,-2.5926,-2.4354,0.0,0.0,0.0,0.0,0.0,0.0,0.0,0.0,0.0,0.0,0.0,0.0,0.0,0.0,0.0,0.0,0.0,0.0,0.0,0.0,0.0,0.0,0.0,0.0,0.0,0.0,0.0,0.0,0.0,0.0,0.0,0.0,0.0,0.0,0.0,0.0,0.0,0.0,0.0,0.0,0.0,0.0,0.0,0.0,0.0,0.0,0.0,0.0,0.0,0.0,0.0,0.0,0.0,0.0,0.0,0.0,0.0,0.0,0.0,0.0,0.0,0.0,0.0,0.0,0.0,0.0,0.0,0.0,0.0,0.0,0.0,0.0,0.0,0.0,0.0,0.0,0.0,0.0,0.0,0.0,0.0,0.0,0.0,0.0,0.0,0.0,0.0,0.0,0.0,0.0,0.0,0.0,0.0,0.0,0.0,0.0,0.0,0.0,0.0,0.0,0.0,0.0,-2.8206,-2.803,-2.7886,-2.7113,-2.6503,-2.6268,-2.6231,-2.6123,-2.5926,-2.4319,0.0,0.0,0.0,0.0,0.0,0.0,0.0,0.0,0.0,0.0,0.0,0.0,0.0,0.0,0.0,0.0,0.0,0.0,0.0,0.0,0.0,0.0,0.0,0.0,0.0,0.0,0.0,0.0,0.0,0.0,0.0,0.0,0.0,0.0,0.0,0.0,0.0,0.0,0.0,0.0,0.0,0.0,0.0,0.0,0.0,0.0,0.0,0.0,0.0,0.0,0.0,0.0,0.0,0.0,0.0,0.0,0.0,0.0,0.0,0.0,0.0,0.0,0.0,0.0,0.0,0.0,0.0,0.0,0.0,0.0,0.0,0.0,0.0,0.0,0.0,0.0,0.0,0.0,0.0,0.0,0.0,0.0,0.0,0.0,0.0,0.0,0.0,0.0,0.0,0.0,0.0,0.0,0.0,0.0,0.0,0.0,0.0,0.0,0.0,0.0,0.0,0.0,-2.752,-2.7216,-2.7492,-2.6912,-2.6424,-2.6203,-2.6212,-2.6123,-2.5926,-2.4319,0.0,0.0,0.0,0.0,0.0,0.0,0.0,0.0,0.0,0.0,0.0,0.0,0.0,0.0,0.0,0.0,0.0,0.0,0.0,0.0,0.0,0.0,0.0,0.0,0.0,0.0,0.0,0.0,0.0,0.0,0.0,0.0,0.0,0.0,0.0,0.0,0.0,0.0,0.0,0.0,0.0,0.0,0.0,0.0,0.0,0.0,0.0,0.0,0.0,0.0,0.0,0.0,0.0,0.0,0.0,0.0,0.0,0.0,0.0,0.0,0.0,0.0,0.0,0.0,0.0,0.0,0.0,0.0,0.0,0.0,0.0,0.0,0.0,0.0,0.0,0.0,0.0,0.0,0.0,0.0,0.0,0.0,0.0,0.0,0.0,0.0,0.0,0.0,0.0,0.0,0.0,0.0,0.0,0.0,0.0,0.0,0.0,0.0,0.0,0.0,0.0,0.0,-2.7884,-2.7601,-2.8085,-2.7056,-2.6329,-2.6212,-2.6123,-2.599,-2.5791,0.0,0.0,0.0,0.0,0.0,0.0,0.0,0.0,0.0,0.0,0.0,0.0,0.0,0.0,0.0,0.0,0.0,0.0,0.0,0.0,0.0,0.0,0.0,0.0,0.0,0.0,0.0,0.0,0.0,0.0,0.0,0.0,0.0,0.0,0.0,0.0,0.0,0.0,0.0,0.0,0.0,0.0,0.0,0.0,0.0,0.0,0.0,0.0,0.0,0.0,0.0,0.0,0.0,0.0,0.0,0.0,0.0,0.0,0.0,0.0,0.0,0.0,0.0,0.0,0.0,0.0,0.0,0.0,0.0,0.0,0.0,0.0,0.0,0.0,0.0,0.0,0.0,0.0,0.0,0.0,0.0,0.0,0.0,0.0,0.0,0.0,0.0,0.0,0.0,0.0,0.0,0.0,0.0,0.0,0.0,0.0,0.0,0.0,0.0,0.0,0.0,0.0,-2.8292,-2.7738,-2.7526,-2.8048,-2.7045,-2.6277,-2.6159,-2.6063,-2.5901,-2.5626,0.0,0.0,0.0,0.0,0.0,0.0,0.0,0.0,0.0,0.0,0.0,0.0,0.0,0.0,0.0,0.0,0.0,0.0,0.0,0.0,0.0,0.0,0.0,0.0,0.0,0.0,0.0,0.0,0.0,0.0,0.0,0.0,0.0,0.0,0.0,0.0,0.0,0.0,0.0,0.0,0.0,0.0,0.0,0.0,0.0,0.0,0.0,0.0,0.0,0.0,0.0,0.0,0.0,0.0,0.0,0.0,0.0,0.0,0.0,0.0,0.0,0.0,0.0,0.0,0.0,0.0,0.0,0.0,0.0,0.0,0.0,0.0,0.0,0.0,0.0,0.0,0.0,0.0,0.0,0.0,0.0,0.0,0.0,0.0,0.0,0.0,0.0,0.0,0.0,0.0,0.0,0.0,0.0,0.0,0.0,0.0,0.0,0.0,0.0,0.0,0.0,0.0,-2.7311,-2.6858,-2.6691,-2.7234,-2.6709,-2.6225,-2.6018,-2.5982,-2.5828,0.0,0.0,0.0,0.0,0.0,0.0,0.0,0.0,0.0,0.0,0.0,0.0,0.0,0.0,0.0,0.0,0.0,0.0,0.0,0.0,0.0,0.0,0.0,0.0,0.0,0.0,0.0,0.0,0.0,0.0,0.0,0.0,0.0,0.0,0.0,0.0,0.0,0.0,0.0,0.0,0.0,0.0,0.0,0.0,0.0,0.0,0.0,0.0,0.0,0.0,0.0,0.0,0.0,0.0,0.0,0.0,0.0,0.0,0.0,0.0,0.0,0.0,0.0,0.0,0.0,0.0,0.0,0.0,0.0,0.0,0.0,0.0,0.0,0.0,0.0,0.0,0.0,0.0,0.0,0.0,0.0,0.0,0.0,0.0,0.0,0.0,0.0,0.0,0.0,0.0,0.0,0.0,0.0,0.0,0.0,0.0,0.0,0.0,0.0,0.0,0.0,0.0,0.0,-2.718,-2.6723,-2.6557,-2.7234,-2.6564,-2.6046,-2.6018,-2.5754,-2.5274,-2.4513,0.0,0.0,0.0,0.0,0.0,0.0,0.0,0.0,0.0,0.0,0.0,0.0,0.0,0.0,0.0,0.0,0.0,0.0,0.0,0.0,0.0,0.0,0.0,0.0,0.0,0.0,0.0,0.0,0.0,0.0,0.0,0.0,0.0,0.0,0.0,0.0,0.0,0.0,0.0,0.0,0.0,0.0,0.0,0.0,0.0,0.0,0.0,0.0,0.0,0.0,0.0,0.0,0.0,0.0,0.0,0.0,0.0,0.0,0.0,0.0,0.0,0.0,0.0,0.0,0.0,0.0,0.0,0.0,0.0,0.0,0.0,0.0,0.0,0.0,0.0,0.0,0.0,0.0,0.0,0.0,0.0,0.0,0.0,0.0,0.0,0.0,0.0,0.0,0.0,0.0,0.0,0.0,0.0,0.0,0.0,0.0,0.0,0.0,0.0,0.0,0.0,0.0,-2.67,-2.6477,-2.6333,-2.6746,-2.6318,-2.5946,-2.5754,-2.5279,-2.4641,-2.3909,0.0,0.0,0.0,0.0,0.0,0.0,0.0,0.0,0.0,0.0,0.0,0.0,0.0,0.0,0.0,0.0,0.0,0.0,0.0,0.0,0.0,0.0,0.0,0.0,0.0,0.0,0.0,0.0,0.0,0.0,0.0,0.0,0.0,0.0,0.0,0.0,0.0,0.0,0.0,0.0,0.0,0.0,0.0,0.0,0.0,0.0,0.0,0.0,0.0,0.0,0.0,0.0,0.0,0.0,0.0,0.0,0.0,0.0,0.0,0.0,0.0,0.0,0.0,0.0,0.0,0.0,0.0,0.0,0.0,0.0,0.0,0.0,0.0,0.0,0.0,0.0,0.0,0.0,0.0,0.0,0.0,0.0,0.0,0.0,0.0,0.0,0.0,0.0,0.0,0.0,0.0,0.0,0.0,0.0,0.0,0.0,0.0,0.0,0.0,0.0,0.0,0.0,-2.6112,-2.6212,-2.6168,-2.6018,-2.5974,-2.5828,-2.5416,-2.4668,-2.3975,-2.339,0.0,0.0,0.0,0.0,0.0,0.0,0.0,0.0,0.0,0.0,0.0,0.0,0.0,0.0,0.0,0.0,0.0,0.0,0.0,0.0,0.0,0.0,0.0,0.0,0.0,0.0,0.0,0.0,0.0,0.0,0.0,0.0,0.0,0.0,0.0,0.0,0.0,0.0,0.0,0.0,0.0,0.0,0.0,0.0,0.0,0.0,0.0,0.0,0.0,0.0,0.0,0.0,0.0,0.0,0.0,0.0,0.0,0.0,0.0,0.0,-2.5096,-2.4057,0.0,0.0,0.0,0.0,0.0,0.0,0.0,0.0,0.0,0.0,0.0,0.0,0.0,0.0,0.0,0.0,0.0,0.0,0.0,0.0,0.0,0.0,0.0,0.0,0.0,0.0,0.0,0.0,0.0,0.0,0.0,0.0,0.0,0.0,0.0,0.0,0.0,0.0,0.0,0.0,-2.6038,-2.6212,-2.6168,-2.6018,-2.5856,-2.5634,-2.5363,-2.4341,-2.3343,-2.2393,-2.1372,0.0,0.0,0.0,0.0,0.0,0.0,0.0,0.0,0.0,0.0,0.0,0.0,0.0,0.0,0.0,0.0,0.0,0.0,0.0,0.0,0.0,0.0,0.0,0.0,0.0,0.0,0.0,0.0,0.0,0.0,0.0,0.0,0.0,0.0,0.0,0.0,0.0,0.0,0.0,0.0,0.0,0.0,0.0,0.0,0.0,0.0,0.0,0.0,0.0,0.0,0.0,0.0,0.0,0.0,0.0,0.0,0.0,0.0,0.0,-2.6867,-2.6139,0.0,0.0,0.0,0.0,0.0,0.0,0.0,0.0,0.0,0.0,0.0,0.0,0.0,0.0,0.0,0.0,0.0,0.0,0.0,0.0,0.0,0.0,0.0,0.0,0.0,0.0,0.0,0.0,0.0,0.0,0.0,0.0,0.0,0.0,0.0,0.0,0.0,0.0,0.0,0.0,-2.6071,-2.6123,-2.5911,-2.5442,-2.5212,-2.4801,-2.4062,-2.3045,-2.214,-2.1417,-2.0565,0.0,0.0,0.0,0.0,0.0,0.0,0.0,0.0,0.0,0.0,0.0,0.0,0.0,0.0,0.0,0.0,0.0,0.0,0.0,0.0,0.0,0.0,0.0,0.0,0.0,0.0,0.0,0.0,0.0,0.0,0.0,0.0,0.0,0.0,0.0,0.0,0.0,0.0,0.0,0.0,0.0,0.0,0.0,0.0,0.0,0.0,0.0,0.0,0.0,0.0,0.0,0.0,0.0,-2.9843,-2.9588,-2.907,-2.8929,-2.872,-2.8489,-2.8544,-2.8497,-2.837,-2.7757,0.0,0.0,0.0,0.0,0.0,0.0,0.0,0.0,0.0,0.0,0.0,0.0,0.0,0.0,0.0,0.0,0.0,0.0,0.0,0.0,0.0,0.0,-2.6212,-2.6212,-2.6758,-2.6819,-2.4961,0.0,0.0,0.0,0.0,0.0,0.0,0.0,0.0,0.0,0.0,0.0,-2.6068,-2.6035,-2.563,-2.4748,-2.4451,-2.3861,-2.2641,-2.1699,-2.1006,-2.067,-1.9842,-1.9376,0.0,0.0,0.0,0.0,0.0,0.0,0.0,0.0,0.0,0.0,0.0,0.0,0.0,0.0,0.0,0.0,0.0,0.0,0.0,0.0,0.0,0.0,0.0,0.0,0.0,0.0,0.0,0.0,0.0,0.0,0.0,0.0,-2.2145,-2.2989,0.0,0.0,0.0,0.0,0.0,0.0,0.0,0.0,0.0,0.0,0.0,0.0,0.0,-2.9132,-2.9939,-3.0637,-3.0845,-3.0647,-3.107,-3.0721,-2.9753,-2.956,-2.911,-2.8453,-2.9011,0.0,-2.8373,-2.8312,0.0,0.0,0.0,0.0,0.0,0.0,0.0,0.0,0.0,0.0,0.0,0.0,0.0,0.0,0.0,0.0,0.0,0.0,0.0,0.0,0.0,0.0,-2.6212,-2.6212,-2.6758,-2.7234,-2.6944,-2.7392,-2.784,-2.784,-2.6783,-2.5922,0.0,0.0,0.0,0.0,0.0,0.0,-2.5928,-2.5856,-2.5395,-2.4515,-2.4231,-2.3571,-2.2423,-2.1477,-2.0798,-2.0456,-1.9729,-1.9258,-1.9139,-1.9339,0.0,0.0,0.0,0.0,0.0,0.0,0.0,0.0,0.0,0.0,0.0,0.0,0.0,0.0,0.0,0.0,0.0,0.0,0.0,0.0,0.0,0.0,0.0,0.0,0.0,0.0,0.0,0.0,0.0,-2.1917,-2.2909,-2.3672,-2.3383,-2.3453,0.0,0.0,0.0,0.0,0.0,0.0,0.0,0.0,0.0,-2.8359,-2.9553,-3.0328,-3.0672,-3.1323,-3.1515,-3.1182,-3.0914,-3.0383,-2.9725,-2.9207,-2.878,-2.8437,-2.8704,-2.8887,-2.8961,-2.8961,-2.8961,-2.892,0.0,0.0,0.0,0.0,-2.842,-2.8373,-2.8318,-2.8271,-2.8143,-2.78,0.0,0.0,0.0,0.0,0.0,0.0,0.0,-2.5667,-2.5988,-2.6123,-2.6212,-2.6212,-2.6722,-2.7197,-2.7197,-2.8042,-2.8687,-2.837,-2.7783,-2.7176,-2.6665,-2.6056,0.0,0.0,0.0,-2.546,-2.5779,-2.5605,-2.4989,-2.3682,-2.3338,-2.258,-2.1146,-2.079,-2.0616,-2.0425,-2.0289,-2.0247,-2.0286,-2.0073,-1.9989,0.0,0.0,0.0,0.0,0.0,0.0,0.0,0.0,0.0,0.0,0.0,0.0,0.0,0.0,0.0,0.0,0.0,0.0,0.0,0.0,0.0,0.0,0.0,0.0,0.0,0.0,0.0,0.0,-2.3058,-2.3699,-2.4506,-2.405,-2.4146,0.0,0.0,0.0,0.0,0.0,0.0,-2.7192,-2.828,-2.9079,-2.9483,-3.0598,-3.1266,-3.1341,-3.1803,-3.1811,-3.1381,-3.0493,-2.977,-2.9198,-2.8483,-2.8022,-2.7789,-2.7979,-2.8458,-2.912,-2.9302,-2.9524,-2.9648,-2.9127,-2.8888,-2.8897,-2.8888,-2.8888,-2.8888,-2.8888,-2.8857,-2.8761,-2.8761,-2.8001,-2.704,-2.6643,0.0,0.0,0.0,0.0,-2.5929,-2.5929,-2.6026,-2.6132,-2.6132,-2.6595,-2.703,-2.703,-2.7905,-2.8641,-2.8435,-2.841,-2.8149,-2.7458,-2.7059,0.0,-2.6091,-2.5756,-2.5543,-2.5497,-2.5301,-2.4569,-2.3169,-2.2731,-2.201,-2.0524,-2.0594,-2.0683,-2.0644,-2.0911,-2.1126,-2.1256,-2.0718,-2.0441,-2.0495,0.0,0.0,0.0,0.0,0.0,0.0,0.0,0.0,0.0,0.0,0.0,0.0,0.0,0.0,0.0,0.0,0.0,0.0,0.0,0.0,0.0,0.0,0.0,0.0,0.0,0.0,0.0,0.0,0.0,-2.5261,-2.5314,0.0,0.0,0.0,0.0,-2.6551,-2.7227,-2.7973,-2.8737,-2.886,-2.9571,-3.1036,-3.1151,-3.1478,-3.2047,-3.1884,-3.1579,-3.1114,-3.0115,-2.9131,-2.8248,-2.7493,-2.6792,-2.6166,-2.6867,-2.7591,-2.8316,-2.9095,-2.9822,-3.0418,-3.036,-3.0302,-3.0302,-3.0175,-3.0175,-3.0302,-3.0302,-3.0302,-3.0302,-3.0302,-2.9108,-2.7397,-2.5913,-2.5448,0.0,0.0,-2.5559,-2.5738,-2.5738,-2.5828,-2.5934,-2.5934,-2.6392,-2.6822,-2.6822,-2.7251,-2.7931,-2.8812,-2.8893,-2.8793,-2.8557,0.0,-2.6486,-2.6286,-2.5616,-2.5083,-2.495,-2.4767,-2.4276,-2.3364,-2.3,-2.2423,-2.1597,-2.1285,-2.1222,-2.1344,-2.1256,-2.1256,-2.1385,-2.082,-2.0503,-2.0495,-1.9975,0.0,0.0,0.0,0.0,0.0,0.0,0.0,0.0,0.0,0.0,0.0,0.0,0.0,0.0,0.0,0.0,0.0,0.0,0.0,0.0,0.0,0.0,0.0,0.0,0.0,0.0,0.0,0.0,-2.6086,-2.5726,0.0,-2.6779,-2.6718,-2.6806,-2.7271,-2.7543,-2.8052,-2.886,-2.9395,-3.0141,-3.1159,-3.1618,-3.1891,-3.1984,-3.1737,-3.1381,-3.0908,-2.9499,-2.8558,-2.8048,-2.6844,-2.6163,-2.5934,-2.6196,-2.6975,-2.8083,-2.8369,-2.9223,-3.0316,-3.0274,-3.0282,-3.0282,-3.024,-2.9936,-2.9584,-2.9683,-2.9288,-2.8682,-2.7931,-2.7202,-2.6397,-2.5226,-2.4871,-2.4902,-2.4981,-2.5083,-2.523,-2.5277,-2.54,-2.5438,-2.5438,-2.5593,-2.5692,-2.5606,-2.6062,-2.6527,-2.6714,-2.7646,-2.8168,-2.7557,-2.6988,-2.6464,-2.5932,-2.5205,-2.4686,-2.463,-2.4418,-2.3943,-2.3074,-2.2817,-2.2383,-2.1469,-2.1645,-2.1852,-2.1978,-2.2248,-2.2518,-2.2725,-2.1728,-2.1196,-2.1281,-2.0251,-1.9899,0.0,0.0,0.0,0.0,0.0,0.0,0.0,0.0,0.0,0.0,0.0,0.0,0.0,0.0,0.0,0.0,0.0,0.0,0.0,0.0,0.0,0.0,0.0,0.0,0.0,-2.5331,-2.6095,-2.6885,-2.6499,-2.6586,-2.7584,-2.7213,-2.7134,-2.7586,-2.7621,-2.8076,-2.9143,-2.9703,-3.0447,-3.1487,-3.19,-3.1984,-3.1757,-3.1466,-3.0982,-3.021,-2.8832,-2.7951,-2.746,-2.6325,-2.5815,-2.5836,-2.5836,-2.6477,-2.7532,-2.7492,-2.8201,-2.929,-2.9915,-3.0095,-3.0019,-2.9833,-2.9399,-2.8992,-2.8854,-2.8404,-2.7624,-2.6494,-2.6018,-2.5719,-2.4751,-2.4581,-2.48,-2.4875,-2.5147,-2.5387,-2.5256,-2.5274,-2.5298,-2.506,-2.4942,-2.4871,-2.4775,-2.5209,-2.5582,-2.5381,-2.6751,-2.7735,-2.705,-2.6898,-2.6706,-2.6168,-2.5284,-2.4671,-2.4587,-2.4238,-2.3743,-2.3103,-2.2947,-2.2649,-2.1953,-2.2177,-2.2418,-2.2555,-2.2974,-2.3253,-2.3509,-2.2468,-2.1935,-2.2031,-2.0886,-2.055,-2.0966,0.0,0.0,0.0,0.0,0.0,0.0,0.0,0.0,0.0,0.0,0.0,0.0,0.0,0.0,0.0,0.0,0.0,0.0,0.0,0.0,0.0,0.0,0.0,-2.5445,-2.6139,-2.6911,-2.7613,-2.7692,-2.7672,-2.7617,-2.7587,-2.7557,-2.7496,-2.7496,-2.8157,-2.9689,-2.9793,-3.0498,-3.2021,-3.1966,-3.1748,-3.1478,-3.1131,-3.0299,-2.905,-2.8127,-2.7276,-2.647,-2.5855,-2.5629,-2.5701,-2.5701,-2.6032,-2.6589,-2.6526,-2.6856,-2.7578,-2.927,-2.9848,-2.9656,-2.9,-2.8741,-2.8662,-2.8013,-2.7721,-2.7437,-2.6316,-2.5821,-2.5461,-2.4403,-2.4528,-2.504,-2.5047,-2.5697,-2.6199,-2.5543,-2.549,-2.5427,-2.4784,-2.4554,-2.4529,-2.4464,-2.4791,-2.5078,-2.5078,-2.6418,-2.7466,-2.7232,-2.7177,-2.7145,-2.701,-2.5872,0.0,-2.4822,-2.4234,-2.3733,-2.3509,-2.3363,-2.3238,-2.3134,-2.2992,-2.294,-2.3082,-2.3246,-2.3363,-2.3509,-2.2976,-2.2667,-2.2645,-2.191,-2.151,-2.1502,0.0,0.0,0.0,0.0,0.0,0.0,0.0,0.0,0.0,0.0,0.0,0.0,0.0,0.0,0.0,0.0,0.0,0.0,0.0,0.0,0.0,-2.5383,-2.6279,-2.6279,-2.692,-2.7473,-2.7675,-2.7692,-2.7672,-2.7617,-2.7587,-2.7557,-2.7496,-2.7496,-2.7931,-2.8949,-2.9515,-3.0237,-3.122,-3.1626,-3.1487,-3.0717,-3.0323,-2.9509,-2.828,-2.7387,-2.6751,-2.6318,-2.5684,-2.5402,-2.5394,-2.5394,-2.5788,-2.6374,-2.6343,-2.6759,-2.744,-2.7917,-2.8104,-2.8038,-2.7853,-2.7508,-2.7018,-2.6102,-2.5751,-2.5576,-2.4957,-2.4621,-2.4388,-2.3877,-2.3859,-2.4038,-2.4139,-2.4682,-2.5212,-2.5146,-2.5474,-2.5733,-2.5037,-2.4877,-2.4704,-2.4116,-2.4462,-2.4851,-2.4754,-2.5869,-2.6884,-2.6899,-2.6844,-2.674,-2.6699,-2.5971,-2.5258,-2.474,-2.444,-2.4052,-2.3415,-2.3246,-2.312,-2.2992,-2.294,-2.294,-2.3082,-2.3246,-2.3363,-2.3509,-2.2976,-2.236,-2.1706,-2.1848,-2.1911,0.0,0.0,0.0,0.0,0.0,0.0,0.0,0.0,0.0,0.0,0.0,0.0,0.0,0.0,0.0,0.0,0.0,0.0,0.0,0.0,0.0,0.0,-2.5461,-2.6304,-2.6973,-2.7408,-2.7659,-2.7659,-2.7621,-2.76,-2.7505,-2.7513,-2.7483,-2.7421,-2.7421,-2.7768,-2.854,-2.8991,-2.9554,-3.0291,-3.0584,-3.0403,-2.9777,-2.9387,-2.8588,-2.7442,-2.683,-2.627,-2.5759,-2.5376,-2.5248,-2.5294,-2.5294,-2.5471,-2.5823,-2.5823,-2.6022,-2.6461,0.0,0.0,0.0,0.0,-2.6308,-2.5704,-2.5052,-2.4791,-2.4703,-2.4336,-2.4334,-2.4356,-2.408,-2.441,-2.4852,-2.495,-2.5445,-2.5836,-2.5364,-2.5561,-2.5575,-2.4647,-2.4406,-2.4307,-2.3822,-2.4236,-2.4762,-2.4986,-2.5876,0.0,-2.706,-2.7055,-2.7006,-2.7006,-2.6396,-2.5699,-2.5021,-2.4624,-2.4065,-2.3312,-2.3171,-2.3037,-2.2895,-2.2895,0.0,0.0,0.0,-2.329,-2.3414,-2.3102,0.0,0.0,0.0,0.0,0.0,-2.2588,0.0,0.0,-2.2623,-2.3021,0.0,0.0,0.0,0.0,0.0,0.0,0.0,0.0,0.0,0.0,0.0,0.0,0.0,0.0,0.0,0.0,-2.524,-2.5801,-2.7224,-2.7367,-2.7386,-2.7569,-2.7526,-2.7474,-2.7416,-2.7416,-2.7385,-2.7299,-2.729,-2.7583,-2.8239,-2.8351,0.0,0.0,0.0,-2.9062,-2.8789,-2.8381,-2.7635,-2.657,-2.631,-2.5815,-2.5099,-2.5099,-2.5154,-2.5256,-2.5256,-2.5201,-2.5099,-2.5099,-2.5029,-2.5132,-2.6565,-2.7043,-2.6796,-2.5913,-2.5219,-2.4695,-2.4541,0.0,0.0,-2.4128,-2.4405,-2.4774,-2.456,-2.5383,-2.6355,-2.6273,-2.6782,-2.7066,-2.5824,-2.5547,-2.5285,-2.4014,-2.3714,-2.3692,-2.3617,-2.4141,-2.4761,-2.5383,-2.6086,-2.6774,-2.7358,-2.7522,-2.7567,-2.7575,-2.6996,-2.6295,-2.5556,-2.4796,-2.4009,-2.3302,-2.3126,0.0,-2.2895,-2.2895,-2.2895,-2.2895,-2.303,-2.3164,-2.3275,-2.3275,-2.3135,-2.2852,-2.2639,-2.247,-2.2324,-2.237,-2.2449,-2.2656,-2.3224,-2.3589,0.0,0.0,0.0,0.0,0.0,0.0,0.0,0.0,0.0,0.0,0.0,0.0,0.0,0.0,0.0,-2.4206,-2.479,-2.5342,-2.5638,-2.5634,-2.6104,-2.7439,-2.7526,-2.7474,-2.7416,-2.7416,-2.7385,-2.7299,-2.729,-2.7351,-2.7506,-2.8075,-2.8472,-2.861,-2.9008,-2.885,-2.8096,-2.7693,-2.6911,-2.5816,-2.5603,0.0,-2.5005,-2.5005,-2.5045,-2.5053,-2.5053,-2.5045,-2.5005,-2.5005,-2.4934,-2.4886,-2.5186,-2.5207,-2.5053,-2.4616,-2.4353,-2.4196,-2.3902,-2.3767,-2.3739,-2.3668,-2.3671,-2.3783,-2.3747,-2.4291,0.0,-2.4335,-2.5053,-2.5809,-2.5024,-2.5211,-2.5413,-2.462,-2.4388,-2.4275,-2.3722,-2.4141,-2.4619,-2.4792,-2.5779,-2.6583,-2.6634,-2.7181,-2.7575,-2.7437,-2.729,-2.692,-2.6155,-2.5401,-2.4652,-2.3975,-2.3343,-2.294,-2.2895,-2.2895,-2.2895,-2.2895,-2.3105,-2.3275,-2.3319,-2.3224,-2.3001,-2.2646,-2.2417,-2.2177,-2.1942,-2.2037,-2.2224,-2.2456,-2.2949,-2.3312,0.0,0.0,0.0,0.0,0.0,0.0,0.0,0.0,0.0,0.0,0.0,-2.3151,-2.2807,0.0,-2.3562,-2.4025,-2.4435,-2.4837,-2.524,-2.5209,-2.544,-2.6243,-2.6627,-2.6779,-2.6757,-2.712,-2.733,-2.729,-2.729,-2.729,-2.729,-2.7644,-2.7851,-2.7851,-2.8038,-2.7921,-2.7411,-2.7004,-2.6401,-2.5634,-2.5394,-2.5209,-2.5013,-2.5013,-2.5013,-2.5013,-2.5013,-2.5013,-2.5005,-2.4934,-2.4814,-2.4686,-2.4515,-2.4418,-2.4328,-2.4036,-2.3875,-2.3746,-2.3523,-2.3436,-2.3436,-2.3407,-2.3644,-2.3881,-2.3881,-2.4416,-2.4947,-2.4604,-2.5037,-2.5465,-2.4754,-2.4828,-2.4949,-2.4275,-2.4111,-2.4021,-2.3677,-2.3872,-2.4216,-2.4515,-2.512,-2.5744,-2.631,-2.6681,-2.7,-2.7232,-2.7248,-2.6909,-2.619,-2.5438,-2.4699,-2.4057,-2.3325,-2.2895,-2.2895,-2.2895,-2.2895,-2.2895,-2.3068,-2.3157,-2.303,-2.2956,-2.2716,-2.2324,-2.2084,-2.1848,-2.1609,-2.1752,-2.1942,-2.2231,-2.2639,-2.3001,0.0,0.0,0.0,0.0,0.0,0.0,0.0,-2.4454,-2.4744,-2.4016,-2.3852,-2.3646,-2.2972,-2.2833,-2.3085,-2.3867,-2.3998,-2.4217,-2.4875,-2.4855,-2.4738,-2.4691,-2.5521,-2.6109,-2.6109,-2.6825,-2.729,-2.729,-2.729,-2.729,-2.729,-2.729,-2.729,-2.729,-2.7184,-2.7047,-2.6893,-2.6512,-2.6137,-2.5746,-2.5462,-2.5201,-2.5005,-2.5013,-2.5013,-2.5013,-2.5013,-2.5013,-2.4974,-2.4822,-2.4678,-2.4508,-2.4162,-2.3994,-2.3902,-2.3746,-2.3581,-2.3378,-2.3282,-2.3231,-2.3231,-2.3231,-2.3606,-2.4055,-2.4055,-2.4582,-2.5149,-2.5015,-2.5176,-2.5178,-2.4514,-2.4388,-2.4253,-2.3693,-2.3602,-2.3602,-2.3602,-2.3602,-2.3767,-2.4276,-2.4432,-2.4817,-2.5768,-2.5992,-2.6232,-2.7012,-2.6938,-2.6616,-2.6017,-2.5174,-2.4457,-2.3942,-2.3279,-2.285,-2.285,-2.285,-2.285,-2.285,-2.294,-2.2947,-2.2742,-2.2692,-2.2441,-2.199,-2.1848,-2.1657,-2.1423,-2.1513,-2.1705,-2.1942,-2.2278,-2.2685,-2.0414,-2.1285,-2.2089,-2.3058,-2.3534,-2.3962,0.0,-2.5036,-2.4953,-2.4215,-2.4068,-2.385,-2.3101,-2.2986,-2.3038,-2.3283,-2.3267,-2.3277,-2.3439,-2.3324,-2.3239,-2.3248,-2.4938,-2.6109,-2.6109,-2.6825,-2.729,-2.729,-2.729,-2.729,-2.729,-2.729,-2.729,-2.729,-2.7184,-2.7047,-2.6893,-2.6572,-2.6225,-2.5881,-2.5546,-2.5301,-2.5107,-2.5045,-2.5013,-2.5013,-2.5013,-2.5013,-2.4966,-2.4718,-2.4515,-2.431,-2.3959,-2.3653,-2.34,-2.3356,-2.3282,-2.3127,-2.2985,-2.2933,-2.2933,-2.2933,-2.3088,-2.3237,-2.3237,-2.3781,-2.4316,-2.3703,-2.3969,-2.4286,-2.3607,-2.3526,-2.3599,-2.3524,-2.3574,-2.3602,-2.3602,-2.3602,-2.3581,-2.3642,-2.4112,-2.4482,-2.4376,-2.4828,-2.5619,-2.682,-2.6491,-2.6031,-2.585,-2.474,-2.3963,-2.3898,-2.3255,-2.2781,-2.2654,-2.2608,-2.2608,-2.2608,-2.2723,-2.267,-2.247,-2.2417,-2.2224,-2.1848,-2.1705,-2.1561,-2.1423,-2.1416,-2.1513,-2.1657,-2.18,-2.2256,-2.1142,-2.1924,-2.2468,-2.302,-2.3587,-2.4156,-2.4594,-2.5094,-2.52,-2.4444,-2.4277,-2.4049,-2.3358,-2.3247,-2.3319,-2.3421,-2.3417,-2.3399,-2.3435,-2.3342,-2.3439,-2.3818,-2.4979,-2.5706,-2.5512,-2.6627,-2.7353,-2.729,-2.729,-2.729,-2.729,-2.729,-2.729,-2.729,-2.7241,-2.7137,-2.695,-2.664,-2.633,-2.5946,-2.5575,-2.5293,-2.5099,-2.5037,-2.5013,-2.5013,-2.5013,-2.4926,-2.4759,-2.4605,-2.431,-2.3959,-2.3718,-2.3458,-2.3201,-2.3201,-2.312,-2.2992,-2.294,-2.2895,-2.2895,-2.2895,-2.294,-2.2992,-2.2992,-2.3272,-2.3523,-2.3237,-2.3444,-2.3629,-2.3393,-2.3319,-2.3371,-2.3371,-2.3407,-2.3436,-2.3436,-2.3436,-2.34,-2.3371,-2.3563,-2.3745,-2.4073,-2.4265,-2.4699,-2.5567,-2.5465,-2.5283,-2.5233,-2.445,-2.376,-2.3312,-2.2886,-2.2576,-2.2377,-2.2324,-2.2231,-2.213,-2.2163,-2.2116,-2.1942,-2.1942,-2.18,-2.1465,-2.1423,-2.1277,-2.118,-2.1229,-2.1375,-2.1465,-2.1705,-2.203,-2.1852,-2.2475,-2.2851,-2.3306,-2.3897,-2.4465,-2.4802,-2.5317,-2.5487,-2.4713,-2.4544,-2.4328,-2.3633,-2.3571,-2.3629,-2.3725,-2.3719,-2.368,-2.3703,-2.3629,-2.3835,-2.4521,-2.5196,-2.5597,-2.5607,-2.673,-2.7407,-2.7322,-2.7322,-2.7322,-2.729,-2.729,-2.729,-2.729,-2.729,-2.7186,-2.7016,-2.675,-2.6426,-2.6054,-2.5642,-2.5339,-2.5146,-2.5045,-2.5013,-2.5013,-2.4974,-2.4799,-2.4589,-2.4441,-2.4101,-2.3703,-2.3458,-2.3253,-2.3037,-2.3037,-2.2992,-2.2895,-2.2895,-2.2895,-2.2895,-2.2895,-2.2895,-2.2895,-2.2895,-2.2992,-2.3037,-2.3037,-2.3112,-2.3194,-2.3194,-2.3238,-2.3231,-2.3231,-2.3275,-2.3319,-2.3319,-2.3268,-2.3224,-2.3224,-2.3098,-2.3131,-2.3596,-2.363,-2.3688,-2.4144,-2.4209,-2.4281,-2.4503,-2.4022,-2.3417,-2.2785,-2.2622,-2.2417,-2.213,-2.1942,-2.18,-2.1705,-2.1602,-2.1554,-2.1465,-2.1465,-2.1326,-2.1131,-2.1131,-2.1089,-2.099,-2.1089,-2.118,-2.1277,-2.1465,-2.1746,-2.258,-2.3105,-2.3595,-2.4503,-2.481,-2.5072,-2.5881,-2.6009,-2.5772,-2.5045,-2.4883,-2.4653,-2.3919,-2.3846,-2.3926,-2.4065,-2.3976,-2.3917,-2.3976,-2.3825,-2.399,-2.4793,-2.5473,-2.6138,-2.6766,-2.7311,-2.7535,-2.7416,-2.7385,-2.7385,-2.729,-2.729,-2.729,-2.729,-2.729,-2.7186,-2.7016,-2.6817,-2.653,-2.6206,-2.5799,-2.55,-2.5294,-2.5092,-2.5013,-2.5005,-2.4862,-2.4734,-2.4589,-2.4193,-2.3832,-2.3559,-2.3246,-2.3037,-2.2895,-2.2895,-2.2895,-2.2895,-2.2895,-2.2895,-2.2895,-2.2895,-2.2895,-2.2895,-2.2895,-2.2895,-2.2895,-2.2895,-2.2895,-2.2888,-2.2888,-2.2992,-2.3134,-2.3134,-2.3201,-2.3319,-2.3319,-2.3224,-2.3083,-2.2934,-2.2792,-2.2723,-2.2668,-2.2636,-2.2644,-2.2658,-2.2665,-2.2979,-2.384,-2.3361,-2.2864,-2.2615,-2.247,-2.2231,-2.1848,-2.1561,-2.1416,-2.1416,-2.1153,-2.1097,-2.1229,-2.1089,-2.099,-2.099,-2.099,-2.099,-2.099,-2.099,-2.099,-2.099,-2.1039,-2.1389,-2.2578,-2.327,-2.3959,-2.4308,-2.444,-2.4562,-2.4789,-2.4862,-2.4789,-2.4494,-2.4469,-2.4436,-2.4173,-2.4183,-2.4257,-2.4284,-2.4311,-2.4275,-2.421,-2.4593,-2.5146,-2.5814,-2.6567,-2.726,-2.7903,-2.783,-2.7698,-2.7535,-2.746,-2.7385,-2.7385,-2.7322,-2.729,-2.729,-2.729,-2.7186,-2.7016,-2.6817,-2.653,-2.6197,-2.5659,-2.5286,-2.5092,-2.5053,-2.4934,-2.4862,-2.4726,-2.4475,-2.4177,-2.3967,-2.3625,-2.3246,-2.3127,-2.3037,-2.2895,-2.2895,-2.2895,-2.2895,-2.2895,-2.2895,-2.2895,-2.2895,-2.2895,-2.2895,-2.2895,-2.2895,-2.2902,-2.2833,-2.2833,-2.2826,-2.2706,-2.2752,-2.2752,-2.2752,-2.279,-2.2835,-2.2835,-2.2783,-2.2737,-2.2586,-2.2449,-2.231,-2.2224,-2.213,-2.2084,-2.2177,-2.2417,-2.2686,-2.2994,-2.2836,-2.2608,-2.237,-2.213,-2.1848,-2.1416,-2.1062,-2.0871,-2.0799,-2.0573,-2.0472,-2.0529,-2.0599,-2.0655,-2.0655,-2.0755,-2.0799,-2.0799,-2.0868,-2.0924,-2.0931,-2.1395,-2.1719,-2.2347,-2.294,-2.3477,-2.3536,-2.3813,-2.4036,-2.4003,-2.4245,-2.4452,-2.4381,-2.4408,-2.4552,-2.4845,-2.497,-2.5005,-2.5012,-2.5258,-2.5319,-2.4935,-2.5532,-2.629,-2.696,-2.7466,-2.7986,-2.8612,-2.8335,-2.8008,-2.7739,-2.7617,-2.7483,-2.7416,-2.7353,-2.7322,-2.729,-2.729,-2.7218,-2.7031,-2.685,-2.6504,-2.601,-2.5546,-2.5209,-2.5013,-2.5013,-2.4934,-2.4782,-2.4645,-2.4359,-2.3982,-2.3761,-2.3458,-2.3089,-2.3037,-2.2992,-2.2895,-2.2895,-2.2895,-2.2895,-2.2895,-2.2895,-2.2895,-2.2895,-2.2895,-2.2895,-2.2895,-2.2895,-2.2902,-2.2841,-2.2802,-2.2749,-2.2615,-2.2608,-2.2608,-2.2562,-2.2516,-2.2516,-2.2463,-2.237,-2.2278,-2.2184,-2.199,-2.18,-2.1752,-2.1602,-2.1541,-2.1636,-2.1874,-2.2116,-2.2417,-2.2417,-2.2324,-2.2084,-2.18,-2.1513,-2.118,-2.0772,-2.0529,-2.0511,-2.0233,-2.0118,-2.0182,-2.0347,-2.041,-2.0518,-2.0612,-2.0655,-2.0612,-2.0775,-2.0782,-2.0745,-2.1449,-2.187,-2.1933,-2.2236,-2.2342,-2.2399,-2.3023,-2.3623,-2.3613,-2.4246,-2.4804,-2.4798,-2.4783,-2.5052,-2.5933,-2.6146,-2.6189,-2.6181,-2.677,-2.6935,-2.6101,-2.6603,-2.7363,-2.8119,-2.814,-2.8316,-2.8952,-2.8839,-2.85,-2.7982,-2.7858,-2.7689,-2.743,-2.7416,-2.7385,-2.7299,-2.729,-2.7241,-2.7094,-2.6933,-2.6486,-2.5701,-2.5432,-2.5209,-2.5013,-2.5013,-2.4934,-2.4782,-2.458,-2.4284,-2.3932,-2.364,-2.3341,-2.3082,-2.294,-2.2895,-2.2895,-2.2895,-2.2895,-2.2895,-2.2895,-2.2902,-2.2895,-2.2895,-2.2895,-2.2895,-2.2895,-2.2895,-2.2857,-2.2795,-2.2757,-2.2742,-2.2615,-2.2562,-2.2516,-2.237,-2.2324,-2.2324,-2.2177,-2.1935,-2.1752,-2.1746,-2.1416,-2.118,-2.1131,-2.1055,-2.0944,-2.0993,-2.0993,-2.1237,-2.203,-2.2037,-2.1895,-2.1746,-2.1513,-2.1271,-2.0983,-2.0629,-2.0435,-2.0461,-2.0074,-1.9907,-2.0175,-2.0182,-2.029,-2.0461,-2.0612,-2.0612,-2.0518,-2.0612,-2.0612,-2.0531,-2.1199,-2.1819,-2.1622,-2.2159,-2.2661,-2.2628,-2.3272,-2.3871,-2.3771,-2.4417,-2.5197,-2.5777,-2.5927,-2.6225,-2.7103,-2.7278,-2.7297,-2.7294,-2.7449,-2.7442,-2.7066,-2.7692,-2.8222,-2.8333,-2.8801,-2.9148,-2.9221,-2.9093,-2.8887,-2.8583,-2.8147,-2.7829,-2.771,-2.7513,-2.7385,-2.7385,-2.733,-2.7241,-2.7094,-2.6674,-2.6216,-2.5701,-2.5432,-2.5209,-2.5013,-2.5013,-2.4878,-2.4638,-2.4434,-2.4086,-2.3696,-2.3443,-2.3194,-2.294,-2.2895,-2.2895,-2.2895,-2.2895,-2.2864,-2.2841,-2.2841,-2.2864,-2.2895,-2.2895,-2.2895,-2.2895,-2.2895,-2.2872,-2.2788,-2.2675,-2.253,-2.2285,-2.2037,-2.1942,-2.18,-2.1705,-2.1561,-2.1513,-2.1465,-2.1306,-2.1188,-2.1048,-2.0809,-2.0573,-2.0479,-2.0422,-2.0416,-2.0566,-2.0566,-2.0759,-2.1237,-2.1292,-2.1188,-2.1055,-2.0908,-2.0716,-2.0579,-2.0283,-2.0086,-2.015,-1.992,-1.9856,-1.9914,-2.0074,-2.0233,-2.029,-2.0555,-2.0612,-2.0518,-2.0612,-2.0612,-2.0531,-2.1199,-2.1825,-2.1051,-2.1419,-2.1781,-2.1737,-2.2659,-2.3533,-2.3432,-2.4381,-2.5504,-2.6303,-2.6514,-2.6918,-2.813,-2.8352,-2.8361,-2.836,-2.8643,-2.8711,-2.8227,-2.8793,-2.9229,-2.9158,-2.9426,-2.9598,-2.9494,-2.9342,-2.916,-2.8943,-2.8438,-2.8083,-2.7858,-2.7659,-2.7513,-2.7407,-2.7353,-2.7241,-2.7055,-2.6564,-2.6181,-2.582,-2.547,-2.5209,-2.5029,-2.5005,-2.4839,-2.4589,-2.4385,-2.4036,-2.3595,-2.34,-2.3149,-2.2895,-2.2895,-2.2895,-2.2895,-2.2895,-2.2864,-2.2833,-2.2802,-2.2833,-2.2864,-2.2805,-2.2752,-2.2752,-2.2752,-2.2721,-2.259,-2.247,-2.2231,-2.199,-2.1752,-2.1609,-2.1465,-2.1326,-2.1229,-2.1089,-2.1026,-2.0858,-2.066,-2.0466,-2.0321,-2.0175,-2.0067,-2.008,-2.0131,-2.0233,-2.0277,-2.0372,-2.0566,-2.066,-2.0703,-2.061,-2.0516,-2.0372,-2.0328,-2.0137,-1.999,-1.999,-1.9862,-1.9811,-1.9869,-2.0074,-2.0233,-2.0347,-2.0549,-2.0612,-2.0518,-2.0612,-2.0612,-2.0531,-2.1199,-2.1825,-2.047,-2.0488,-2.05,-2.0496,-2.1775,-2.3005,-2.2945,-2.4268,-2.5744,-2.6563,-2.6804,-2.7368,-2.8944,-2.9234,-2.9234,-2.9234,-2.9805,-2.9985,-2.9217,-2.9707,-3.0133,-3.0132,-2.9959,-2.9806,-2.9726,-2.9542,-2.9353,-2.9138,-2.8779,-2.8396,-2.7991,-2.7858,-2.7689,-2.7416,-2.7416,-2.7282,-2.7016,-2.6607,-2.6279,-2.5974,-2.5546,-2.5248,-2.5099,-2.5037,-2.4839,-2.4589,-2.4385,-2.4036,-2.3595,-2.34,-2.3149,-2.2895,-2.2895,-2.2895,-2.294,-2.294,-2.294,-2.2895,-2.2826,-2.2795,-2.2742,-2.2622,-2.2608,-2.2562,-2.2562,-2.2463,-2.2278,-2.2177,-2.1895,-2.1657,-2.1513,-2.1368,-2.1222,-2.1082,-2.0983,-2.0842,-2.0709,-2.0516,-2.0271,-2.0035,-1.9984,-1.9926,-1.9805,-1.992,-1.999,-1.999,-2.0137,-2.0131,-2.0042,-2.0233,-2.0372,-2.0372,-2.0277,-2.0182,-2.0182,-2.0086,-1.9984,-1.9984,-1.9869,-1.9869,-1.999,-2.0131,-2.0347,-2.0518,-2.0612,-2.0612,-2.0518,-2.0612,-2.0612,-2.0524,-2.1114,-2.1707,-2.0395,-2.0456,-2.05,-2.0501,-2.1796,-2.3076,-2.3072,-2.4374,-2.5827,-2.6685,-2.7387,-2.8165,-2.9178,-2.9372,-2.9372,-2.9372,-2.9433,-2.9414,-2.9216,-2.9855,-3.0327,-3.0276,-3.0137,-3.0007,-2.9881,-2.9681,-2.9494,-2.9353,-2.9138,-2.8815,-2.8405,-2.8083,-2.7722,-2.7407,-2.7416,-2.7282,-2.7016,-2.6716,-2.6365,-2.5982,-2.5704,-2.5402,-2.5099,-2.5099,-2.491,-2.4589,-2.4385,-2.4036,-2.3595,-2.34,-2.3149,-2.2895,-2.2895,-2.2992,-2.3082,-2.3082,-2.3023,-2.2897,-2.2761,-2.2593,-2.247,-2.2562,-2.2516,-2.2417,-2.2417,-2.2177,-2.1895,-2.1752,-2.1416,-2.1075,-2.0865,-2.066,-2.0523,-2.0429,-2.029,-2.0195,-2.0131,-2.0022,-1.9907,-1.9856,-1.9856,-1.9811,-1.9805,-1.992,-1.999,-1.999,-2.0137,-2.0131,-2.0042,-2.0131,-2.0182,-2.0086,-2.0131,-2.0182,-2.0035,-1.999,-1.9926,-1.9862,-1.9926,-1.9984,-1.999,-2.0303,-2.0454,-2.0518,-2.0612,-2.0612,-2.0518,-2.0612,-2.0612,-2.0518,-2.071,-2.1113,-2.0344,-2.0367,-2.04,-2.0434,-2.1759,-2.3057,-2.3089,-2.4424,-2.5901,-2.677,-2.7256,-2.7775,-2.8617,-2.8778,-2.8777,-2.8783,-2.9133,-2.9382,-2.9307,-2.9998,-3.048,-3.0402,-3.0283,-3.017,-3.0066,-2.9869,-2.9708,-2.957,-2.9332,-2.903,-2.8694,-2.8183,-2.778,-2.7513,-2.7483,-2.735,-2.712,-2.6908,-2.6632,-2.6295,-2.5917,-2.5637,-2.5355,-2.5185,-2.495,-2.4686,-2.4434,-2.4036,-2.3595,-2.34,-2.3149,-2.2895,-2.2895,-2.2992,-2.3089,-2.3089,-2.3105,-2.3083,-2.2942,-2.2806,-2.2678,-2.267,-2.2449,-2.2177,-2.213,-2.18,-2.1465,-2.1326,-2.0983,-2.0679,-2.0516,-2.0422,-2.0277,-2.0233,-2.0086,-1.9984,-1.992,-1.9862,-1.9805,-1.9805,-1.9805,-1.9805,-1.9805,-1.9971,-2.0086,-2.0086,-2.029,-2.0398,-2.0303,-2.0398,-2.0341,-2.0042,-2.0137,-2.0182,-2.0137,-2.0086,-2.008,-2.0016,-2.008,-2.0137,-2.0252,-2.041,-2.0511,-2.0612,-2.0655,-2.0655,-2.0612,-2.0655,-2.0655,-2.0612,-2.0655,-2.1013,-2.0569,-2.0443,-2.0363,-2.0601,-2.1841,-2.3062,-2.3296,-2.4567,-2.5888,-2.6576,-2.6868,-2.7191,-2.7833,-2.7945,-2.7942,-2.7942,-2.8658,-2.9203,-2.9146,-3.0001,-3.0602,-3.053,-3.0418,-3.0316,-3.0254,-3.006,-2.9888,-2.9734,-2.9464,-2.9132,-2.8791,-2.8273,-2.7895,-2.7659,-2.7578,-2.7457,-2.7253,-2.7094,-2.6899,-2.6607,-2.6189,-2.5881,-2.56,-2.5347,-2.5076,-2.4814,-2.4515,-2.4128,-2.3653,-2.3443,-2.3194,-2.294,-2.2895,-2.2985,-2.3127,-2.3127,-2.3246,-2.3319,-2.3172,-2.3031,-2.2897,-2.2709,-2.2395,-2.199,-2.1848,-2.1513,-2.1138,-2.0941,-2.0579,-2.0328,-2.0264,-2.0169,-2.0118,-2.0118,-2.0022,-1.9926,-1.9805,-1.9805,-1.9805,-1.9805,-1.9805,-1.9805,-1.9805,-2.0022,-2.0182,-2.0182,-2.0448,-2.0612,-2.0511,-2.0612,-2.0555,-2.015,-2.0239,-2.029,-2.029,-2.0239,-2.0239,-2.0182,-2.0233,-2.0347,-2.0511,-2.0511,-2.0612,-2.0705,-2.0705,-2.0705,-2.0705,-2.0705,-2.0705,-2.0705,-2.0705,-2.0897,-2.1459,-2.0892,-2.0482,-2.1285,-2.2249,-2.3212,-2.4013,-2.4969,-2.5719,-2.58,-2.6454,-2.7018,-2.7096,-2.7106,-2.7108,-2.7109,-2.7788,-2.8323,-2.8304,-2.9684,-3.0672,-3.0605,-3.053,-3.0459,-3.0388,-3.0194,-3.0,-2.981,-2.9483,-2.9098,-2.8637,-2.8458,-2.8174,-2.7789,-2.773,-2.76,-2.7364,-2.7253,-2.7021,-2.6691,-2.6453,-2.6129,-2.5709,-2.56,-2.5333,-2.4974,-2.4678,-2.4343,-2.394,-2.3589,-2.3341,-2.3082,-2.294,-2.3068,-2.3275,-2.3275,-2.3371,-2.3458,-2.3179,-2.3031,-2.2852,-2.2685,-2.2417,-2.213,-2.1895,-2.1416,-2.0941,-2.0573,-2.0226,-2.0035,-1.9914,-1.9856,-1.9856,-1.9856,-1.9856,-1.9805,-1.9805,-1.9805,-1.9805,-1.9805,-1.9805,-1.9805,-1.9805,-1.992,-2.0035,-2.0182,-2.0404,-2.0511,-2.0518,-2.0612,-2.0655,-2.0461,-2.0555,-2.0605,-2.0461,-2.0461,-2.0398,-2.0233,-2.0353,-2.0461,-2.0518,-2.0612,-2.0705,-2.0705,-2.0705,-2.0705,-2.0705,-2.0705,-2.0705,-2.0705,-2.0705,-2.0638,-2.1686,-2.1663,-2.1774,-2.1637,-2.2668,-2.3815,-2.4209,-2.4988,-2.5654,-2.5686,-2.5985,-2.622,-2.6221,-2.622,-2.6219,-2.622,-2.7373,-2.8251,-2.8211,-2.9679,-3.0738,-3.0675,-3.0639,-3.0581,-3.0472,-3.0344,-3.0151,-2.9822,-2.956,-2.9054,-2.8223,-2.8415,-2.8371,-2.8054,-2.7988,-2.7836,-2.7591,-2.7522,-2.7329,-2.6989,-2.675,-2.6444,-2.6066,-2.5791,-2.55,-2.5232,-2.4863,-2.4508,-2.4143,-2.3839,-2.3545,-2.3341,-2.3194,-2.3238,-2.3414,-2.3414,-2.3494,-2.353,-2.34,-2.3224,-2.2986,-2.2761,-2.2402,-2.2037,-2.1752,-2.1375,-2.0891,-2.0429,-2.0131,-1.9984,-1.9856,-1.9805,-1.9805,-1.9805,-1.9805,-1.9805,-1.9805,-1.9862,-1.9926,-1.9926,-1.9971,-2.0016,-2.0016,-2.0188,-2.0303,-2.0353,-2.0511,-2.0612,-2.0612,-2.0655,-2.0655,-2.0612,-2.0655,-2.0655,-2.0612,-2.0612,-2.0605,-2.0498,-2.0555,-2.0612,-2.0612,-2.0655,-2.0705,-2.0705,-2.0705,-2.0705,-2.0705,-2.0705,-2.0655,-2.0562,-2.0562,-2.0505,-2.2444,-2.2539,-2.276,-2.2452,-2.3292,-2.429,-2.4616,-2.5162,-2.5619,-2.5693,-2.5702,-2.5698,-2.5699,-2.5696,-2.5781,-2.6039,-2.7329,-2.8367,-2.8564,-2.9861,-3.078,-3.0736,-3.0735,-3.0684,-3.0564,-3.0433,-3.0235,-2.9874,-2.9438,-2.8829,-2.8024,-2.8027,-2.7912,-2.7626,-2.7513,-2.7351,-2.7102,-2.7082,-2.7014,-2.6938,-2.667,-2.6463,-2.6365,-2.6002,-2.5725,-2.5432,-2.5107,-2.4751,-2.4343,-2.4009,-2.3711,-2.3494,-2.3363,-2.3371,-2.3509,-2.3509,-2.3538,-2.3595,-2.3494,-2.3319,-2.3127,-2.2814,-2.2456,-2.2037,-2.1705,-2.1264,-2.0779,-2.0328,-2.008,-1.9926,-1.9862,-1.9862,-1.9862,-1.9862,-1.9862,-1.9862,-1.9862,-1.9926,-1.999,-2.0035,-2.0131,-2.0182,-2.0182,-2.0347,-2.041,-2.0467,-2.0562,-2.0655,-2.0705,-2.0705,-2.0705,-2.0705,-2.0705,-2.0705,-2.0705,-2.0705,-2.0705,-2.0705,-2.0705,-2.0705,-2.0705,-2.0705,-2.0705,-2.0705,-2.0705,-2.0705,-2.0705,-2.0655,-2.0612,-2.0518,-2.0461,-2.0296,-2.4084,-2.3496,-2.3099,-2.3962,-2.4193,-2.4439,-2.5366,-2.5586,-2.5619,-2.5687,-2.5701,-2.5697,-2.5697,-2.5697,-2.598,-2.6851,-2.7733,-2.8584,-2.9375,-3.0242,-3.0801,-3.08,-3.0801,-3.0767,-3.0701,-3.0461,-3.0228,-3.0003,-2.9011,-2.8351,-2.8192,-2.7254,-2.6576,-2.6218,-2.6081,-2.592,-2.5727,-2.5597,-2.5778,-2.6312,-2.6027,-2.6149,-2.6607,-2.6337,-2.5987,-2.5578,-2.5371,-2.5045,-2.4556,-2.4143,-2.3839,-2.3559,-2.34,-2.3371,-2.3509,-2.3509,-2.3538,-2.3559,-2.3356,-2.3319,-2.3231,-2.2924,-2.2636,-2.2324,-2.1752,-2.1111,-2.0566,-2.0277,-2.0016,-1.9856,-1.9984,-1.999,-1.999,-1.999,-1.999,-1.999,-1.999,-1.999,-2.0035,-2.0182,-2.0182,-2.0182,-2.0182,-2.0182,-2.029,-2.0461,-2.0518,-2.0562,-2.0655,-2.0705,-2.0705,-2.0705,-2.0705,-2.0705,-2.0705,-2.0705,-2.0705,-2.0705,-2.0705,-2.0705,-2.0705,-2.0705,-2.0705,-2.0705,-2.0705,-2.0705,-2.0705,-2.0562,-2.0518,-2.0518,-2.0296,-2.0131,-2.4329,-2.4379,-2.4543,-2.4271,-2.465,-2.5178,-2.5521,-2.5596,-2.5619,-2.5687,-2.5701,-2.5697,-2.5697,-2.6185,-2.6683,-2.6962,-2.8191,-2.9206,-2.946,-3.0247,-3.0802,-3.08,-3.0802,-3.0765,-3.0711,-3.0542,-3.0129,-2.9366,-2.8864,-2.8048,-2.6756,-2.6318,-2.6188,-2.6394,-2.6259,-2.6096,-2.5843,-2.5699,-2.5641,-2.5687,-2.5914,-2.6028,-2.5996,-2.6174,-2.6126,-2.5844,-2.56,-2.5333,-2.5045,-2.4572,-2.4177,-2.3902,-2.3602,-2.3523,-2.3566,-2.3566,-2.3566,-2.3559,-2.3356,-2.3224,-2.3083,-2.2661,-2.2331,-2.2037,-2.1609,-2.1173,-2.0785,-2.0239,-1.992,-1.9856,-1.9984,-1.999,-2.0042,-2.0137,-2.0131,-2.0131,-2.0131,-2.0246,-2.0353,-2.0404,-2.0498,-2.0549,-2.0549,-2.0549,-2.0549,-2.0612,-2.0655,-2.0655,-2.0705,-2.0705,-2.0705,-2.0705,-2.0705,-2.0705,-2.0705,-2.0705,-2.0705,-2.0705,-2.0705,-2.0705,-2.0705,-2.0705,-2.0705,-2.0705,-2.0705,-2.0705,-2.0705,-2.0562,-2.0353,-2.015,-2.0022,-1.9914,-2.4851,-2.5064,-2.5319,-2.4817,-2.5101,-2.5524,-2.5579,-2.56,-2.5621,-2.5691,-2.5703,-2.5701,-2.5701,-2.6413,-2.7115,-2.7439,-2.8619,-2.9614,-2.9943,-3.0463,-3.0796,-3.0795,-3.08,-3.0777,-3.0735,-3.0338,-2.9794,-2.9135,-2.8304,-2.7315,-2.6101,-2.563,-2.5493,-2.5737,-2.5575,-2.5365,-2.5139,-2.4998,-2.4955,-2.5068,-2.5214,-2.542,-2.5737,-2.5874,-2.5967,-2.5982,-2.5733,-2.5508,0.0,-2.4766,-2.4385,-2.412,-2.3824,-2.3645,-2.3602,-2.3602,-2.3602,-2.3559,-2.3451,-2.3319,-2.3179,-2.2776,-2.241,-2.199,-2.1561,-2.1124,-2.0729,-2.0233,-2.0022,-1.9971,-2.0144,-2.0201,-2.0201,-2.029,-2.029,-2.029,-2.029,-2.0404,-2.0511,-2.0562,-2.0655,-2.0705,-2.0705,-2.0705,-2.0705,-2.0705,-2.0705,-2.0705,-2.0705,-2.0705,-2.0705,-2.0705,-2.0705,-2.0712,-2.0768,-2.0712,-2.0705,-2.0705,-2.0705,-2.0705,-2.0705,-2.0705,-2.0705,-2.0705,-2.0705,-2.0655,-2.0612,-2.0404,-2.0195,-1.9926,-1.9862,-1.9805,0.0,-2.5509,-2.5512,-2.5503,-2.5498,-2.5515,-2.5585,-2.5595,0.0,-2.5691,-2.5701,-2.57,-2.57,-2.6458,-2.7355,-2.8161,-2.9019,-2.9883,-3.0695,-3.0751,-3.0713,-3.0706,-3.0663,-3.0621,-3.0618,-2.983,-2.9239,-2.9043,-2.7407,-2.6294,-2.6043,-2.5186,-2.4659,-2.4517,-2.4266,-2.4058,-2.3926,-2.3716,-2.3879,-2.4435,-2.4069,-2.4528,-2.5652,-2.5411,-2.5545,-2.5936,-2.5795,-2.5597,-2.5378,-2.4863,-2.4515,-2.4302,-2.3967,-2.3739,-2.3645,-2.3602,-2.3602,-2.3602,-2.3538,-2.3509,-2.3458,-2.3179,-2.2723,-2.213,-2.1609,-2.1068,-2.056,-2.0277,-2.0226,-2.0283,-2.0454,-2.0511,-2.0511,-2.0511,-2.0562,-2.0562,-2.0562,-2.0511,-2.0568,-2.0705,-2.0712,-2.0712,-2.0705,-2.0705,-2.0705,-2.0705,-2.0705,-2.0705,-2.0705,-2.0705,-2.0705,-2.0705,-2.0705,-2.0768,-2.0888,-2.0768,-2.0712,-2.0705,-2.0705,-2.0705,-2.0705,-2.0712,-2.0705,-2.0705,-2.0705,-2.0612,-2.0461,-2.0195,-1.9978,-1.9798,-1.9798,-1.9856,-2.5605,0.0,-2.5557,-2.5511,-2.5538,-2.5583,0.0,-2.5605,-2.5623,-2.5691,-2.5701,-2.57,-2.57,-2.6923,-2.7985,-2.8191,-2.9498,-3.0575,-3.0765,-3.0228,-2.9813,-2.9811,-2.9261,-2.8887,-2.8887,-2.8639,-2.8169,-2.7419,-2.6861,-2.6202,-2.5381,-2.4988,-2.4742,-2.4659,-2.4481,-2.4294,-2.4054,-2.3804,-2.3697,-2.3747,-2.3885,-2.4052,-2.4221,-2.5004,-2.5363,-2.5401,-2.5771,-2.5828,-2.5589,-2.527,-2.4958,-2.4662,-2.4294,-2.4059,-2.3882,-2.3789,-2.3696,-2.3602,-2.3538,-2.3509,-2.3458,-2.3179,-2.2852,-2.2526,-2.2263,-2.1554,-2.0835,-2.0566,-2.0516,-2.0566,-2.0666,-2.0716,-2.0772,-2.0842,-2.0898,-2.0898,-2.0898,-2.0818,-2.0831,-2.0898,-2.0868,-2.0875,-2.0898,-2.0941,-2.0941,-2.0941,-2.0941,-2.0941,-2.0941,-2.0941,-2.0941,-2.0941,-2.0941,-2.099,-2.1144,-2.0974,-2.0875,-2.0947,-2.0941,-2.0941,-2.0941,-2.0875,-2.0831,-2.0831,-2.0762,-2.0555,-2.029,-2.0353,-2.0252,-1.9984,-2.008,-2.0125,-2.5623,-2.56,-2.5587,-2.555,-2.5576,-2.5597,-2.56,-2.56,-2.5618,-2.5693,-2.57,-2.5684,-2.5661,-2.6716,-2.76,-2.7605,-2.8704,-2.9574,-2.9599,-2.9202,-2.8903,-2.8902,-2.852,-2.827,-2.8297,-2.7915,-2.7429,-2.6889,-2.6351,-2.5774,-2.5184,-2.4957,-2.4822,-2.4754,-2.4592,-2.4384,-2.4153,-2.3928,-2.375,-2.3598,-2.3622,-2.3702,-2.3822,-2.4296,-2.4799,-2.528,-2.5508,-2.5678,-2.582,-2.5462,-2.5232,-2.4989,-2.4589,-2.4302,-2.4101,-2.3932,-2.3789,-2.3696,-2.3574,-2.3538,-2.353,-2.3356,-2.3127,-2.2934,-2.2723,-2.2249,-2.1677,-2.1251,-2.116,-2.116,-2.1251,-2.1202,-2.1209,-2.1271,-2.1229,-2.118,-2.118,-2.1102,-2.1059,-2.118,-2.1095,-2.1059,-2.1187,-2.118,-2.118,-2.118,-2.1229,-2.1277,-2.1277,-2.1326,-2.1375,-2.1375,-2.1375,-2.1416,-2.1561,-2.1485,-2.1346,-2.118,-2.118,-2.118,-2.118,-2.1109,-2.1023,-2.0974,-2.0792,-2.0679,-2.0466,-2.0529,-2.0435,-2.0277,-2.0277,-2.0277,-2.5617,-2.56,-2.56,-2.5604,-2.5599,-2.5604,-2.56,-2.56,-2.5624,-2.5671,-2.5685,-2.5671,-2.5614,-2.6311,-2.6904,-2.6897,-2.7585,-2.8119,-2.8186,-2.8081,-2.8004,-2.8005,-2.7886,-2.7835,-2.7899,-2.7239,-2.6766,-2.6714,-2.5902,-2.5358,-2.5224,-2.5028,-2.4894,-2.4821,-2.4645,-2.4444,-2.4257,-2.4086,-2.3915,-2.3743,-2.3398,-2.3419,-2.3787,-2.3613,-2.4159,-2.5179,-2.5146,-2.5473,-2.5982,-2.5642,-2.5424,-2.5286,-2.4878,-2.4589,-2.4302,-2.4101,-2.3932,-2.3789,-2.3645,-2.3602,-2.3602,-2.3538,-2.3458,-2.3312,-2.3076,-2.2889,-2.2701,-2.2163,-2.1983,-2.1888,-2.1888,-2.1841,-2.1746,-2.1746,-2.165,-2.1561,-2.1561,-2.1416,-2.1375,-2.1513,-2.1416,-2.1375,-2.1513,-2.1513,-2.1513,-2.1513,-2.1609,-2.1705,-2.1705,-2.18,-2.1848,-2.1848,-2.1848,-2.1942,-2.2037,-2.2084,-2.1942,-2.1602,-2.1554,-2.1465,-2.1416,-2.1277,-2.118,-2.1039,-2.0921,-2.0852,-2.0852,-2.0759,-2.0709,-2.0666,-2.0623,-2.0566,-2.5617,-2.5604,-2.5605,-2.56,-2.5603,-2.5597,-2.5604,-2.5594,-2.5605,-2.561,-2.5625,-2.5615,-2.56,-2.631,-2.6905,-2.6899,-2.7579,-2.8103,-2.811,-2.753,-2.7099,-2.7106,-2.6497,-2.6091,-2.6103,-2.598,-2.5866,-2.5799,-2.5599,-2.5432,-2.5283,-2.515,-2.5016,-2.4894,-2.4802,-2.4657,-2.4456,-2.421,-2.3999,-2.3864,-2.3585,-2.3372,-2.3229,-2.3585,-2.4107,-2.4743,-2.5112,-2.5611,-2.6168,-2.599,-2.577,-2.5532,-2.5355,-2.4989,-2.4549,-2.4351,-2.4051,-2.3789,-2.3645,-2.3602,-2.3602,-2.3602,-2.3559,-2.3523,-2.3458,-2.3371,-2.3319,-2.3135,-2.2754,-2.2374,-2.2374,-2.2374,-2.2374,-2.2374,-2.2303,-2.2231,-2.2231,-2.2037,-2.1942,-2.2037,-2.199,-2.1942,-2.2037,-2.2084,-2.2084,-2.2084,-2.2084,-2.213,-2.213,-2.213,-2.213,-2.213,-2.213,-2.2177,-2.2324,-2.2417,-2.2502,-2.2519,-2.221,-2.1942,-2.1561,-2.1416,-2.1326,-2.118,-2.1131,-2.1131,-2.1131,-2.1222,-2.1222,-2.1124,-2.1222,-2.1271,-2.5488,-2.56,-2.5595,-2.5593,-2.5599,-2.56,-2.5595,-2.5595,-2.56,-2.5596,-2.5965,-2.6155,-2.5692,-2.6277,-2.6689,-2.6219,-2.6449,-2.6698,-2.6698,-2.6411,-2.6203,-2.6203,-2.5866,-2.5661,-2.5702,-2.5702,-2.5685,-2.5664,-2.559,-2.5499,-2.5354,-2.5235,-2.5084,-2.4961,-2.4851,-2.4732,-2.461,-2.4419,-2.4201,-2.3996,-2.375,-2.3486,-2.3274,-2.3344,-2.3634,-2.4142,-2.4687,-2.5212,-2.5728,-2.5986,-2.597,-2.5749,-2.5554,-2.5232,-2.4823,-2.4377,-2.4044,-2.3789,-2.3645,-2.3602,-2.3602,-2.3602,-2.3602,-2.3595,-2.3566,-2.3574,-2.3523,-2.348,-2.3209,-2.2934,-2.2934,-2.2889,-2.2844,-2.2844,-2.2761,-2.2678,-2.2678,-2.2533,-2.2441,-2.2533,-2.2487,-2.2441,-2.2579,-2.2586,-2.2586,-2.2586,-2.2586,-2.2533,-2.2487,-2.2516,-2.2537,-2.2537,-2.2537,-2.2583,-2.2654,-2.2797,-2.2835,-2.2792,-2.2618,-2.2349,-2.203,-2.1895,-2.1752,-2.1513,-2.1609,-2.1609,-2.1609,-2.1705,-2.1705,-2.1609,-2.1561,-2.1465,-2.5381,-2.56,-2.5603,-2.5585,-2.5593,-2.5605,-2.558,-2.558,-2.558,-2.558,-2.611,-2.6367,-2.5702,-2.6081,-2.6277,-2.5606,-2.5507,-2.5495,-2.5495,-2.5541,-2.5579,-2.5605,-2.5599,-2.5629,-2.5689,-2.5703,-2.5704,-2.5701,-2.5639,-2.5547,-2.543,-2.5302,-2.5183,-2.5053,-2.4915,-2.4818,-2.4723,-2.461,-2.4393,-2.4124,-2.3887,-2.3655,-2.3453,-2.3184,-2.3336,-2.3831,-2.4223,-2.4754,-2.5413,-2.5837,-2.5958,-2.5926,-2.5758,-2.5402,-2.4934,-2.432,-2.3952,-2.3789,-2.3645,-2.3602,-2.3602,-2.3602,-2.3602,-2.3602,-2.3602,-2.3602,-2.3602,-2.3602,-2.348,-2.3356,-2.3356,-2.3304,-2.3216,-2.3216,-2.312,-2.3031,-2.3031,-2.2934,-2.2889,-2.2986,-2.2889,-2.2889,-2.2986,-2.2986,-2.2986,-2.2986,-2.2949,-2.2904,-2.2747,-2.2766,-2.2802,-2.2802,-2.2802,-2.2833,-2.2947,-2.3082,-2.3112,-2.3038,-2.2889,-2.267,-2.2417,-2.2278,-2.2084,-2.1848,-2.199,-2.2037,-2.2084,-2.213,-2.213,-2.213,-2.1895,-2.1752,-2.5386,-2.5603,-2.5585,-2.5515,-2.5551,-2.5583,-2.5515,-2.5515,-2.5515,-2.5515,-2.5564,-2.5583,-2.5518,-2.5546,-2.5573,-2.5511,-2.5507,-2.5495,-2.5495,-2.5498,-2.5531,-2.5591,-2.5605,-2.5629,-2.5687,-2.5702,-2.5698,-2.57,-2.5642,-2.5575,-2.5492,-2.5419,-2.5313,-2.5187,-2.5063,-2.4921,-2.4791,-2.4723,-2.4515,-2.4192,-2.4047,-2.3873,-2.3678,-2.3407,-2.3582,-2.4059,-2.3848,-2.4475,-2.5673,-2.543,-2.5618,-2.599,-2.5926,-2.5454,-2.4775,-2.4279,-2.3952,-2.3789,-2.3645,-2.3602,-2.3602,-2.3602,-2.3602,-2.3602,-2.3602,-2.3602,-2.3602,-2.3602,-2.3595,-2.3559,-2.3559,-2.3559,-2.3551,-2.3551,-2.3487,-2.3458,-2.3458,-2.3363,-2.3268,-2.3268,-2.3268,-2.3268,-2.3268,-2.3268,-2.3268,-2.3268,-2.3157,-2.3023,-2.2897,-2.2857,-2.2802,-2.2802,-2.2802,-2.2886,-2.3089,-2.3201,-2.3319,-2.3458,-2.3224,-2.2859,-2.2417,-2.2278,-2.213,-2.199,-2.213,-2.2231,-2.237,-2.2516,-2.2562,-2.2562,-2.2417,-2.2324,-2.5235,-2.5595,-2.5577,-2.5524,-2.5517,-2.5534,-2.5511,-2.5499,-2.5499,-2.5499,-2.5928,-2.6316,-2.6311,-2.5863,-2.5499,-2.5501,-2.5492,-2.5499,-2.5499,-2.5495,-2.5514,-2.5531,-2.5574,-2.5604,-2.5644,-2.5677,-2.5703,-2.5697,-2.5681,-2.5629,-2.5572,-2.55,-2.5395,-2.5273,-2.5126,-2.5003,-2.4851,-2.4806,-2.4641,-2.4384,-2.4173,-2.3978,-2.3831,-2.3594,-2.3511,-2.3567,-2.3824,-2.4143,-2.4522,-2.5251,-2.5539,-2.5506,-2.5652,-2.5508,-2.5138,-2.4687,-2.4418,-2.4193,-2.3932,-2.3789,-2.3696,-2.3645,-2.3602,-2.3602,-2.3602,-2.3602,-2.3602,-2.3602,-2.3602,-2.3602,-2.3602,-2.3602,-2.3602,-2.3602,-2.3566,-2.3574,-2.3574,-2.3523,-2.348,-2.348,-2.348,-2.348,-2.348,-2.348,-2.348,-2.348,-2.3414,-2.329,-2.3179,-2.3053,-2.2978,-2.2978,-2.3068,-2.3164,-2.3341,-2.3378,-2.3458,-2.3509,-2.3319,-2.3135,-2.2866,-2.2668,-2.2484,-2.2377,-2.2484,-2.259,-2.2644,-2.2689,-2.2735,-2.2735,-2.2477,-2.237,-2.5195,-2.5567,-2.555,-2.549,-2.5685,-2.5878,-2.5882,-2.5684,-2.5575,-2.5837,-2.6149,-2.6391,-2.6386,-2.5896,-2.5501,-2.5501,-2.5501,-2.5501,-2.5501,-2.5499,-2.5495,-2.5498,-2.5544,-2.5576,-2.5606,-2.5656,-2.5701,-2.5699,-2.5701,-2.5671,-2.5605,-2.5564,-2.547,-2.534,-2.5224,-2.5091,-2.4961,-2.487,-2.4747,-2.4592,-2.4329,-2.4135,-2.3955,-2.3728,-2.3517,-2.3354,-2.368,-2.3807,-2.3893,-2.4739,-2.497,-2.4888,-2.5211,-2.5222,-2.5026,-2.4934,-2.4751,-2.449,-2.4234,-2.4059,-2.3875,-2.3739,-2.3696,-2.3645,-2.3602,-2.3602,-2.3602,-2.3602,-2.3602,-2.3602,-2.3602,-2.3602,-2.3602,-2.3602,-2.3602,-2.3602,-2.3602,-2.3602,-2.3602,-2.3602,-2.3602,-2.3602,-2.3602,-2.3602,-2.3602,-2.3602,-2.353,-2.3458,-2.3319,-2.3179,-2.3083,-2.3083,-2.3224,-2.3319,-2.3414,-2.3466,-2.3509,-2.3509,-2.3414,-2.3275,-2.3127,-2.2985,-2.285,-2.2692,-2.2812,-2.291,-2.291,-2.2872,-2.2879,-2.2886,-2.2615,-2.2417,-2.53,-2.5502,-2.548,-2.5414,-2.6052,-2.6698,-2.6708,-2.6087,-2.5743,-2.6528,-2.6044,-2.5501,-2.5501,-2.5501,-2.5501,-2.5501,-2.5501,-2.5501,-2.5501,-2.5501,-2.5499,-2.5505,-2.5502,-2.5533,-2.559,-2.5662,-2.5701,-2.5703,-2.5697,-2.5666,-2.5605,-2.5605,-2.5541,-2.5414,-2.534,-2.5243,-2.5105,-2.4971,-2.4865,-2.4806,-2.4596,-2.4356,-2.4094,-2.3816,-2.3676,-2.358,-2.3327,-2.3541,-2.4069,-2.3815,-2.3867,-2.4156,-2.4607,-2.4587,-2.436,-2.4906,-2.4895,-2.4597,-2.4531,-2.431,-2.4078,-2.4017,-2.3932,-2.3789,-2.3645,-2.3602,-2.3602,-2.3602,-2.3602,-2.3602,-2.3602,-2.3602,-2.3602,-2.3602,-2.3602,-2.3602,-2.3602,-2.3602,-2.3602,-2.3602,-2.3602,-2.3602,-2.3602,-2.3602,-2.3602,-2.3602,-2.353,-2.3458,-2.3319,-2.3179,-2.312,-2.312,-2.3224,-2.3319,-2.3319,-2.3407,-2.3509,-2.3509,-2.3509,-2.3371,-2.3127,-2.3083,-2.3031,-2.2889,-2.3031,-2.3083,-2.3083,-2.3112,-2.3089,-2.3082,-2.2752,-2.2608,-2.529,-2.5505,-2.5474,-2.5423,-2.6052,-2.6843,-2.7412,-2.6919,-2.625,-2.5919,-2.5675,-2.5501,-2.5501,-2.5501,-2.5501,-2.5501,-2.5501,-2.5501,-2.5501,-2.5501,-2.5501,-2.5499,-2.5503,-2.5528,-2.5589,-2.5618,-2.5648,-2.5704,-2.5703,-2.5686,-2.5669,-2.5627,-2.558,-2.5541,-2.5432,-2.533,-2.5243,-2.5157,-2.5035,-2.4875,-2.4713,-2.4504,-2.4238,-2.3998,-2.3822,-2.3656,-2.343,-2.3364,-2.3412,-2.3627,-2.3994,-2.4433,-2.4331,-2.4537,-2.4859,-2.4798,-2.4928,-2.5146,-2.4989,-2.471,-2.4418,-2.4359,-2.4185,-2.3994,-2.3944,-2.3909,-2.3839,-2.3789,-2.3739,-2.3739,-2.3602,-2.3602,-2.3602,-2.3602,-2.3602,-2.3602,-2.3602,-2.3602,-2.3602,-2.3602,-2.3602,-2.3602,-2.3602,-2.3602,-2.3602,-2.3602,-2.3559,-2.3566,-2.3523,-2.3472,-2.3472,-2.3472,-2.3472,-2.3516,-2.3516,-2.3566,-2.3566,-2.3566,-2.3566,-2.353,-2.3371,-2.3275,-2.3224,-2.3179,-2.3224,-2.3224,-2.3224,-2.3231,-2.3201,-2.3089,-2.2918,-2.279,-2.5382,-2.5481,-2.5535,-2.5803,-2.6526,-2.7383,-2.8232,-2.7788,-2.6879,-2.5698,-2.5484,-2.5501,-2.5501,-2.5501,-2.5501,-2.5501,-2.5501,-2.5501,-2.5501,-2.5501,-2.5501,-2.5501,-2.5497,-2.5517,-2.5557,-2.558,-2.5617,-2.5661,-2.5676,-2.5703,-2.5698,-2.5659,-2.5629,-2.5595,-2.5517,-2.5452,-2.5383,-2.5313,-2.519,-2.5019,-2.4874,-2.471,-2.4486,-2.421,-2.3987,-2.3798,-2.3513,-2.3289,-2.3121,-2.3293,-2.3513,-2.3773,-2.3765,-2.3971,-2.4265,-2.4597,-2.4858,-2.5096,-2.5265,-2.5138,-2.4878,-2.4766,-2.4581,-2.4369,-2.4328,-2.4261,-2.4193,-2.4101,-2.4009,-2.3909,-2.3817,-2.3782,-2.3739,-2.3645,-2.3602,-2.3602,-2.3602,-2.3602,-2.3602,-2.3602,-2.3602,-2.3602,-2.3602,-2.3602,-2.3602,-2.3602,-2.3602,-2.3602,-2.3602,-2.3602,-2.3602,-2.3602,-2.3602,-2.3602,-2.3602,-2.3602,-2.3602,-2.3602,-2.3602,-2.3566,-2.3538,-2.3443,-2.3436,-2.3436,-2.3436,-2.3436,-2.3436,-2.34,-2.3327,-2.3157,-2.2994,-2.2881,-2.5521,-2.5456,-2.5587,-2.64,-2.7313,-2.8199,-2.8923,-2.8521,-2.7517,-2.5865,-2.5505,-2.5484,-2.5484,-2.5501,-2.5501,-2.5501,-2.5501,-2.5501,-2.5501,-2.5484,-2.5484,-2.5484,-2.549,-2.5493,-2.5495,-2.556,-2.5595,-2.5603,-2.5661,-2.5663,-2.5586,-2.5662,-2.5639,-2.5496,-2.5568,-2.5581,-2.5511,-2.5441,-2.534,-2.5216,-2.5084,-2.4945,-2.4809,-2.4416,-2.4135,-2.3946,-2.3571,-2.3313,-2.3111,-2.2961,-2.2756,-2.2566,-2.3036,-2.3105,-2.3079,-2.4273,-2.4687,-2.4735,-2.5403,-2.547,-2.5229,-2.5081,-2.487,-2.4634,-2.4593,-2.4511,-2.4461,-2.4515,-2.4343,-2.4154,-2.4154,-2.4094,-2.3975,-2.3731,-2.3645,-2.3645,-2.3645,-2.3645,-2.3602,-2.3602,-2.3602,-2.3602,-2.3602,-2.3602,-2.3602,-2.3602,-2.3602,-2.3602,-2.3602,-2.3602,-2.3602,-2.3602,-2.3602,-2.3602,-2.3602,-2.3602,-2.3602,-2.3602,-2.3602,-2.3602,-2.3602,-2.3602,-2.3602,-2.3602,-2.3602,-2.3602,-2.3602,-2.3538,-2.3458,-2.3275,-2.3031,-2.2881,-2.5514,-2.5454,-2.5587,-2.64,-2.7727,-2.8738,-2.8276,-2.8047,-2.7644,-2.663,-2.5885,-2.5419,-2.5419,-2.5456,-2.5501,-2.5501,-2.5501,-2.5501,-2.5501,-2.5447,-2.5419,-2.5419,-2.5419,-2.5445,-2.549,-2.5505,-2.5541,-2.56,-2.5613,-2.5346,-2.4705,-2.533,-2.538,-2.468,-2.5322,-2.5645,-2.5574,-2.5511,-2.5437,-2.5364,-2.5226,-2.5109,-2.5024,-2.462,-2.4229,-2.3825,-2.3638,-2.3444,-2.3241,-2.3111,-2.2936,-2.272,-2.2704,-2.2852,-2.3175,-2.3348,-2.4001,-2.4862,-2.5026,-2.4925,-2.4745,-2.4737,-2.4176,-2.3658,-2.4217,-2.4227,-2.4192,-2.4689,-2.4727,-2.4614,-2.45,-2.4467,-2.4467,-2.4418,-2.4128,-2.3932,-2.3932,-2.3839,-2.3746,-2.3746,-2.3645,-2.3602,-2.3602,-2.3602,-2.3602,-2.3602,-2.3602,-2.3602,-2.3602,-2.3602,-2.3602,-2.3602,-2.3602,-2.3645,-2.3739,-2.3746,-2.3746,-2.3746,-2.3746,-2.3696,-2.3602,-2.3602,-2.3602,-2.3602,-2.3602,-2.3602,-2.3602,-2.361,-2.348,-2.3319,-2.3224,-2.3098,-2.5561,-2.5499,-2.5728,-2.693,-2.8478,-2.9496,-2.8669,-2.815,-2.7601,-2.6785,-2.5966,-2.5403,-2.5401,-2.5429,-2.5447,-2.5447,-2.5447,-2.5456,-2.545,-2.5423,-2.5405,-2.5405,-2.5405,-2.5414,-2.545,-2.5478,-2.5509,-2.5547,-2.5206,-2.4812,-2.4422,-2.4436,-2.4252,-2.3789,-2.4619,-2.5062,-2.5029,-2.5369,-2.5527,-2.5486,-2.5395,-2.5255,-2.5086,-2.4717,-2.4337,-2.3992,-2.3825,-2.3629,-2.3421,-2.3256,-2.3095,-2.2893,-2.2659,-2.2681,-2.2848,-2.3016,-2.3481,-2.4025,-2.4381,-2.4396,-2.4208,-2.4208,-2.3852,-2.3586,-2.4316,-2.441,-2.4437,-2.5107,-2.52,-2.506,-2.4989,-2.4942,-2.4895,-2.4895,-2.4574,-2.4268,-2.4242,-2.4193,-2.4094,-2.3952,-2.3902,-2.3817,-2.3789,-2.3789,-2.3789,-2.3789,-2.3789,-2.3789,-2.3789,-2.3789,-2.3789,-2.3789,-2.3824,-2.3859,-2.3952,-2.4002,-2.4051,-2.4051,-2.4002,-2.3909,-2.3852,-2.3824,-2.3746,-2.3696,-2.3696,-2.3739,-2.3789,-2.3789,-2.366,-2.3436,-2.3407,-2.3238,-2.5598,-2.576,-2.6256,-2.7576,-2.9162,-3.014,-2.9111,-2.8331,-2.751,-2.6488,-2.5783,-2.5369,-2.5367,-2.5376,-2.5376,-2.5385,-2.5385,-2.5376,-2.5387,-2.537,-2.537,-2.537,-2.537,-2.537,-2.5378,-2.5439,-2.5493,-2.5496,-2.4748,-2.4258,-2.4163,-2.3488,-2.3025,-2.288,-2.3724,-2.4178,-2.4179,-2.4842,-2.517,-2.5173,-2.5102,-2.5012,-2.4924,-2.4623,-2.4423,-2.4265,-2.4059,-2.3846,-2.3651,-2.3426,-2.3232,-2.302,-2.2842,-2.2641,-2.25,-2.2907,-2.3063,-2.3151,-2.3729,-2.3809,-2.3663,-2.3638,-2.3613,-2.3695,-2.4425,-2.4642,-2.48,-2.5526,-2.5634,-2.55,-2.55,-2.54,-2.5307,-2.5307,-2.5052,-2.4783,-2.4653,-2.4572,-2.4515,-2.4287,-2.4196,-2.4162,-2.4101,-2.4101,-2.4101,-2.4101,-2.4101,-2.4101,-2.4101,-2.4101,-2.4109,-2.4109,-2.4135,-2.4162,-2.4162,-2.4261,-2.431,-2.431,-2.4211,-2.412,-2.4113,-2.4059,-2.3975,-2.3882,-2.3882,-2.3925,-2.4067,-2.4067,-2.3925,-2.3645,-2.3538,-2.3341,-2.5597,-2.6611,-2.7708,-2.7855,-2.9154,-2.9992,-2.842,-2.7937,-2.7337,-2.5711,-2.5299,-2.5223,-2.5234,-2.5263,-2.5312,-2.5313,-2.5313,-2.5313,-2.5312,-2.5253,-2.5232,-2.523,-2.5221,-2.5253,-2.5312,-2.5369,-2.5439,-2.5503,-2.4749,-2.3969,-2.3232,-2.3133,-2.2746,-2.1997,-2.2819,-2.3267,-2.3274,-2.3378,-2.3435,-2.3431,-2.3371,-2.3682,-2.4308,-2.4149,-2.428,-2.4626,-2.4363,-2.4108,-2.3833,-2.364,-2.3408,-2.316,-2.302,-2.2842,-2.2641,-2.2617,-2.2866,-2.3253,-2.3251,-2.317,-2.3086,-2.3031,-2.3,-2.3141,-2.3885,-2.4463,-2.4993,-2.5768,-2.5917,-2.5844,-2.5844,-2.5815,-2.5807,-2.5807,-2.577,-2.5613,-2.5099,-2.4926,-2.4839,-2.4727,-2.4614,-2.4549,-2.4508,-2.4508,-2.4508,-2.4508,-2.4508,-2.4508,-2.4508,-2.4508,-2.4515,-2.4457,-2.4449,-2.4449,-2.4449,-2.4457,-2.4457,-2.4457,-2.4359,-2.4211,-2.4113,-2.4059,-2.4059,-2.4219,-2.4219,-2.4219,-2.4268,-2.4268,-2.4094,-2.3789,-2.3589,-2.3341,-2.5609,-2.68,-2.8036,-2.7969,-2.9216,-3.014,-2.8913,-2.8549,-2.798,-2.6238,-2.5783,-2.5596,-2.5254,-2.519,-2.52,-2.5241,-2.5241,-2.5221,-2.519,-2.5166,-2.5143,-2.513,-2.5141,-2.5176,-2.5239,-2.5303,-2.5369,-2.5439,-2.4247,-2.3356,-2.3015,-2.21,-2.1425,-2.1083,-2.1917,-2.2367,-2.2367,-2.2862,-2.3096,-2.3104,-2.3069,-2.3218,-2.3523,-2.3432,-2.3957,-2.4906,-2.4687,-2.4439,-2.4165,-2.3914,-2.3692,-2.3454,-2.3295,-2.3111,-2.2961,-2.279,-2.2803,-2.2883,-2.275,-2.2643,-2.2517,-2.2441,-2.2382,-2.2463,-2.321,-2.3595,-2.4026,-2.5174,-2.5469,-2.5532,-2.5944,-2.6059,-2.6059,-2.6059,-2.6059,-2.597,-2.568,-2.5468,-2.5307,-2.5169,-2.5013,-2.4934,-2.4934,-2.4934,-2.4934,-2.4934,-2.4934,-2.4934,-2.4934,-2.4934,-2.4895,-2.4831,-2.4886,-2.4934,-2.4839,-2.4894,-2.4934,-2.4934,-2.4806,-2.4678,-2.463,-2.4426,-2.4434,-2.4678,-2.4523,-2.4441,-2.4475,-2.4475,-2.4294,-2.3952,-2.3746,-2.3502,-2.5615,-2.6671,-2.7825,-2.7968,-2.9109,-3.0018,-2.9349,-2.9094,-2.8517,-2.6759,-2.6246,-2.5892,-2.5225,-2.5053,-2.5043,-2.5111,-2.5141,-2.513,-2.5077,-2.5069,-2.5063,-2.5054,-2.5054,-2.5079,-2.5141,-2.5209,-2.5273,-2.5369,-2.3819,-2.29,-2.295,-2.131,-2.0413,-2.0463,-2.1114,-2.1453,-2.1468,-2.2106,-2.2449,-2.2456,-2.2449,-2.253,-2.2687,-2.2628,-2.3321,-2.4571,-2.4566,-2.4544,-2.4498,-2.4265,-2.4013,-2.378,-2.3598,-2.3435,-2.3253,-2.3077,-2.2859,-2.2685,-2.256,-2.2396,-2.2257,-2.2138,-2.217,-2.2371,-2.2884,-2.3162,-2.3524,-2.4796,-2.5136,-2.531,-2.604,-2.6203,-2.6212,-2.6212,-2.6212,-2.6168,-2.6026,-2.5864,-2.5709,-2.5575,-2.5446,-2.5392,-2.5392,-2.5392,-2.5392,-2.5392,-2.5392,-2.5392,-2.5392,-2.5392,-2.5323,-2.5232,-2.5325,-2.5333,-2.5146,-2.524,-2.5294,-2.5294,-2.5131,-2.5045,-2.5045,-2.4839,-2.4791,-2.5037,-2.4814,-2.4726,-2.4751,-2.4751,-2.4549,-2.4211,-2.4002,-2.3696,-2.5621,-2.6269,-2.7128,-2.7823,-2.8696,-2.9331,-2.9215,-2.9098,-2.8504,-2.6762,-2.6247,-2.5837,-2.4983,-2.4808,-2.4837,-2.4902,-2.497,-2.5012,-2.5014,-2.501,-2.4977,-2.4922,-2.4908,-2.4935,-2.4993,-2.5066,-2.5163,-2.5301,-2.3746,-2.281,-2.2809,-2.1219,-2.0334,-2.0395,-2.0452,-2.0501,-2.0569,-2.0606,-2.0674,-2.0732,-2.0672,-2.1073,-2.1857,-2.1784,-2.2255,-2.3139,-2.3698,-2.4295,-2.4851,-2.4651,-2.4388,-2.4071,-2.393,-2.3723,-2.3464,-2.3333,-2.3135,-2.2961,-2.2842,-2.2659,-2.2479,-2.2405,-2.2824,-2.3304,-2.3215,-2.3689,-2.4389,-2.5088,-2.5246,-2.5354,-2.6104,-2.6258,-2.6212,-2.6212,-2.6212,-2.6168,-2.6026,-2.5954,-2.5889,-2.5889,-2.5889,-2.5852,-2.5852,-2.5852,-2.5852,-2.5852,-2.5852,-2.5852,-2.5852,-2.5852,-2.5778,-2.5608,-2.557,-2.5494,-2.5294,-2.5294,-2.5294,-2.5294,-2.5154,-2.5099,-2.5099,-2.5037,-2.5005,-2.5099,-2.5201,-2.5201,-2.506,-2.506,-2.4871,-2.4457,-2.4219,-2.3902,-2.5673,-2.6271,-2.6958,-2.7229,-2.8313,-2.928,-2.9226,-2.9535,-2.9328,-2.7538,-2.7015,-2.6425,-2.4995,-2.4736,-2.4757,-2.4813,-2.4813,-2.4813,-2.4807,-2.4817,-2.4793,-2.4759,-2.4768,-2.4798,-2.487,-2.4926,-2.5019,-2.5099,-2.4075,-2.3236,-2.2757,-2.1686,-2.0841,-2.0353,-2.0379,-2.0427,-2.0496,-2.0497,-2.0513,-2.0537,-2.0556,-2.0712,-2.0957,-2.0938,-2.1383,-2.2183,-2.2388,-2.3158,-2.4291,-2.4695,-2.4708,-2.4477,-2.4291,-2.408,-2.3871,-2.3689,-2.3508,-2.3357,-2.3126,-2.2986,-2.2868,-2.2764,-2.2839,-2.3009,-2.2909,-2.3025,-2.3437,-2.4557,-2.4841,-2.5088,-2.6244,-2.6521,-2.645,-2.638,-2.6329,-2.6241,-2.6189,-2.6143,-2.6087,-2.6087,-2.6087,-2.6087,-2.6087,-2.6087,-2.6087,-2.6087,-2.6087,-2.6087,-2.6087,-2.6087,-2.6043,-2.5881,-2.5852,-2.5807,-2.5704,-2.5704,-2.5704,-2.5704,-2.5567,-2.5476,-2.5476,-2.5408,-2.5416,-2.5468,-2.5522,-2.5454,-2.524,-2.524,-2.5037,-2.467,-2.4508,-2.4245,-2.5689,-2.6091,-2.6559,-2.6829,-2.7694,-2.8553,-2.8751,-2.9367,-2.9384,-2.7568,-2.7277,-2.6801,-2.5058,-2.4698,-2.4682,-2.4729,-2.4711,-2.4711,-2.4711,-2.4686,-2.467,-2.467,-2.4635,-2.4626,-2.4689,-2.4759,-2.4842,-2.493,-2.4198,-2.3412,-2.2668,-2.1895,-2.1103,-2.0323,-2.0366,-2.0425,-2.0473,-2.0492,-2.0503,-2.0501,-2.0548,-2.0546,-2.0526,-2.0508,-2.0792,-2.1311,-2.158,-2.2562,-2.4005,-2.4509,-2.4752,-2.4823,-2.4644,-2.442,-2.4201,-2.4002,-2.3828,-2.3673,-2.3449,-2.331,-2.3232,-2.3102,-2.3011,-2.297,-2.2885,-2.3007,-2.3405,-2.4534,-2.4949,-2.5376,-2.6558,-2.6775,-2.6657,-2.6598,-2.6521,-2.6426,-2.6408,-2.6293,-2.6212,-2.6212,-2.6212,-2.6212,-2.6212,-2.6212,-2.6212,-2.6212,-2.6212,-2.6212,-2.6212,-2.6212,-2.6168,-2.6018,-2.6018,-2.5982,-2.5897,-2.5889,-2.5889,-2.5889,-2.5836,-2.5783,-2.5783,-2.5717,-2.5717,-2.5783,-2.5783,-2.5688,-2.5516,-2.547,-2.5309,-2.5013,-2.4902,-2.4695,0.0,0.0,0.0,-2.6672,-2.6875,-2.7091,-2.7803,-2.856,-2.8602,-2.6801,-2.6978,-2.6925,-2.5191,-2.4767,-2.468,-2.468,-2.4678,-2.4701,-2.4729,-2.4643,-2.4589,-2.4589,-2.4478,-2.4416,-2.4495,-2.4564,-2.4647,-2.4781,-2.4068,-2.3303,-2.254,-2.1778,-2.1041,-2.0323,-2.0366,-2.0398,-2.0403,-2.0473,-2.0498,-2.0496,-2.0498,-2.0542,-2.0596,-2.0534,-2.0498,-2.0535,-2.1334,-2.2563,-2.4024,-2.4049,-2.4466,-2.5055,-2.492,-2.4718,-2.4496,-2.4291,-2.4089,-2.3908,-2.3765,-2.3633,-2.3504,-2.343,-2.3369,-2.3313,-2.3241,-2.3739,-2.4462,-2.511,-2.5692,-2.6299,-2.7014,-2.7012,-2.6816,-2.6816,-2.675,-2.6708,-2.664,-2.6415,-2.6203,-2.6212,-2.6212,-2.6212,-2.6212,-2.6212,-2.6212,-2.6212,-2.6212,-2.6212,-2.6212,-2.6212,-2.6159,-2.6018,-2.6018,-2.599,-2.5926,-2.5926,-2.5926,-2.5897,-2.5897,-2.5897,-2.5897,-2.5897,-2.5897,-2.5897,-2.5897,-2.5897,-2.5897,-2.5783,-2.5589,-2.5424,-2.5424,-2.5216,-2.5678,0.0,0.0,0.0,0.0,0.0,-2.7104,-2.8223,-2.8898,-2.7669,-2.802,-2.8179,-2.6911,-2.6613,-2.6521,-2.6414,-2.5322,-2.466,-2.519,-2.4763,-2.4375,-2.4375,-2.4357,-2.4348,-2.4429,-2.449,-2.4556,-2.4642,-2.4546,-2.387,-2.2498,-2.1225,-2.0454,-2.0301,-2.0369,-2.0401,-2.0396,-2.0463,-2.0505,-2.05,-2.0499,-2.0537,-2.0604,-2.0576,-2.0553,-2.0508,-2.0736,-2.1408,-2.2409,-2.2987,-2.3681,-2.4361,-2.4231,-2.4457,-2.4832,-2.4648,-2.4472,-2.4301,-2.4126,-2.3998,-2.3915,-2.3801,-2.3734,-2.3665,-2.358,-2.4066,-2.478,-2.5358,-2.6091,-2.6831,-2.7402,-2.7461,-2.7355,-2.7261,-2.7166,-2.7053,-2.6973,-2.6808,-2.6564,-2.6304,-2.6268,-2.625,-2.6203,-2.6222,-2.625,-2.6212,-2.6222,-2.625,-2.6212,-2.6258,-2.6277,-2.6225,-2.6312,-2.632,-2.6197,-2.6189,-2.617,-2.6132,-2.6132,-2.6132,-2.6132,-2.6132,-2.6132,-2.6132,-2.6132,-2.6132,-2.6132,-2.5917,-2.5754,-2.5626,-2.5554,-2.5432,-2.5646,-2.5676,-2.5698,-2.5703,0.0,0.0,-2.6306,-2.7314,-2.7987,-2.7035,-2.7459,-2.7692,-2.6661,-2.6707,-2.6951,-2.7144,-2.6241,-2.5549,-2.5625,-2.5171,-2.4718,-2.4376,-2.4321,-2.4321,-2.4358,-2.442,-2.4481,-2.4543,-2.4686,-2.4077,-2.2483,-2.0955,-2.0162,-2.0256,-2.0321,-2.0353,-2.0363,-2.0417,-2.0468,-2.0502,-2.0499,-2.0541,-2.0601,-2.0596,-2.0585,-2.0543,-2.0508,-2.0775,-2.124,-2.1716,-2.2572,-2.362,-2.3879,-2.4234,-2.4612,-2.4799,-2.478,-2.4642,-2.4433,-2.4311,-2.4238,-2.4077,-2.3978,-2.3915,-2.3882,-2.4572,-2.5454,-2.5759,-2.6647,-2.7558,-2.7846,-2.7864,-2.7766,-2.7677,-2.7539,-2.7422,-2.7324,-2.7221,-2.7021,-2.659,-2.6496,-2.6469,-2.6425,-2.6443,-2.6469,-2.6417,-2.6435,-2.6469,-2.6417,-2.6469,-2.6521,-2.6521,-2.6581,-2.6581,-2.653,-2.6469,-2.6425,-2.638,-2.6345,-2.6318,-2.6318,-2.6266,-2.6258,-2.6258,-2.6203,-2.6212,-2.6212,-2.6087,-2.5998,-2.5909,-2.5815,-2.5741,-2.5595,-2.5644,-2.5691,-2.5699,-2.5702,0.0,-2.5616,-2.6233,-2.6594,-2.5822,-2.6246,-2.6505,-2.5667,-2.6037,-2.6662,-2.7248,-2.7215,-2.6881,-2.6179,-2.5885,-2.5477,-2.4764,-2.4626,-2.4561,-2.4469,-2.4524,-2.4548,-2.4504,-2.4547,-2.393,-2.2483,-2.0957,-2.0146,-2.0189,-2.0251,-2.0279,-2.0285,-2.0357,-2.0423,-2.0487,-2.0497,-2.0527,-2.059,-2.0605,-2.0596,-2.0605,-2.0543,-2.0508,-2.0498,-2.0503,-2.1405,-2.2842,-2.3555,-2.3913,-2.4092,-2.4748,-2.497,-2.4915,-2.4706,-2.4591,-2.4502,-2.4311,-2.4192,-2.4135,-2.4114,-2.5126,-2.6286,-2.6444,-2.7376,-2.8327,-2.8264,-2.8191,-2.8126,-2.8062,-2.7931,-2.7798,-2.7668,-2.7647,-2.7509,-2.7045,-2.6849,-2.675,-2.6758,-2.675,-2.675,-2.6758,-2.675,-2.675,-2.6758,-2.6816,-2.6849,-2.6849,-2.6882,-2.6882,-2.6849,-2.6716,-2.664,-2.664,-2.6546,-2.6511,-2.6511,-2.6417,-2.633,-2.633,-2.6266,-2.6239,-2.6239,-2.6212,-2.6212,-2.6212,-2.6071,-2.6018,-2.5593,-2.5605,-2.5631,-2.5695,-2.57,0.0,-2.5678,-2.6299,-2.6829,-2.6656,-2.7258,-2.7726,-2.7495,-2.7479,-2.7505,-2.7542,-2.7433,-2.7429,-2.769,-2.7112,-2.66,-2.6433,-2.6395,-2.6145,-2.5486,-2.5485,-2.5259,-2.462,-2.4042,-2.3338,-2.2445,-2.15,-2.0713,-2.0136,-2.0134,-2.0157,-2.0221,-2.0288,-2.0346,-2.0415,-2.0474,-2.0507,-2.0516,-2.0583,-2.0595,-2.0596,-2.0595,-2.0553,-2.05,-2.0498,-2.1075,-2.1953,-2.2113,-2.2984,-2.4167,-2.4254,-2.4648,-2.5126,-2.4971,-2.4837,-2.4716,-2.4566,-2.445,-2.4329,-2.4284,-2.5312,-2.6771,-2.8022,-2.8408,-2.8475,-2.851,-2.8432,-2.8327,-2.8246,-2.8173,-2.809,-2.8005,-2.7948,-2.7882,-2.7786,-2.7444,-2.7155,-2.7109,-2.7164,-2.7147,-2.7109,-2.7164,-2.7147,-2.7109,-2.7155,-2.721,-2.721,-2.7307,-2.7293,-2.7149,-2.7062,-2.6932,-2.6758,-2.67,-2.6674,-2.6674,-2.6589,-2.6537,-2.6537,-2.6485,-2.6459,-2.6459,-2.6283,-2.6212,-2.6212,-2.6168,-2.6168,-2.5544,-2.5574,-2.5605,-2.5638,-2.5679,0.0,0.0,-2.6011,-2.6302,-2.6299,-2.6603,-2.6841,-2.6808,-2.7082,-2.7264,-2.7122,-2.7374,-2.767,-2.7863,-2.7384,-2.6991,-2.6954,-2.6982,-2.6823,-2.6395,-2.6022,-2.5453,-2.4603,-2.3864,-2.3116,-2.2336,-2.1538,-2.076,-2.0018,-2.0001,-2.005,-2.0149,-2.0223,-2.0305,-2.0402,-2.0433,-2.0474,-2.0501,-2.0527,-2.0573,-2.0605,-2.0596,-2.0576,-2.0553,-2.0548,-2.0769,-2.1136,-2.1541,-2.248,-2.365,-2.4011,-2.4636,-2.5274,-2.5149,-2.5065,-2.4977,-2.4809,-2.4672,-2.4586,-2.4517,-2.555,-2.7056,-2.8592,-2.8892,-2.8743,-2.8752,-2.8678,-2.8587,-2.8527,-2.8475,-2.8432,-2.8327,-2.8264,-2.8246,-2.82,-2.7998,-2.7791,-2.7586,-2.7577,-2.7607,-2.7556,-2.7577,-2.7607,-2.7556,-2.7595,-2.7633,-2.7633,-2.7651,-2.76,-2.7452,-2.7347,-2.723,-2.7094,-2.6989,-2.6956,-2.6956,-2.6875,-2.6784,-2.6716,-2.6615,-2.6589,-2.6589,-2.6486,-2.639,-2.6354,-2.6354,-2.6354,-2.5502,-2.5538,-2.5578,-2.5595,-2.564,-2.5676,0.0,0.0,0.0,-2.5698,-2.5663,-2.5617,-2.5616,-2.6139,-2.6533,-2.6427,-2.6945,-2.7373,-2.7407,-2.7163,-2.7078,-2.7296,-2.7352,-2.7352,-2.7298,-2.6533,-2.5694,-2.4819,-2.4193,-2.3441,-2.2486,-2.1658,-2.0872,-2.0113,-1.9949,-1.994,-2.006,-2.0142,-2.0235,-2.036,-2.0395,-2.0427,-2.0481,-2.0492,-2.0526,-2.0581,-2.0593,-2.0595,-2.0595,-2.0604,-2.0571,-2.0585,-2.1221,-2.1983,-2.2846,-2.3667,-2.4476,-2.5181,-2.5226,-2.5233,-2.5198,-2.5006,-2.4896,-2.4861,-2.4969,-2.5904,-2.7242,-2.8595,-2.9024,-2.9062,-2.8994,-2.8919,-2.8834,-2.8801,-2.8752,-2.8703,-2.8569,-2.8552,-2.8527,-2.8458,-2.8467,-2.8362,-2.8055,-2.8,-2.8,-2.8,-2.8,-2.8,-2.8,-2.8035,-2.8062,-2.8062,-2.7959,-2.7847,-2.776,-2.763,-2.7518,-2.7434,-2.7324,-2.7253,-2.7253,-2.719,-2.7062,-2.6882,-2.6816,-2.68,-2.68,-2.68,-2.6716,-2.6546,-2.6546,-2.6546,-2.5502,-2.5514,-2.5524,-2.5587,-2.561,-2.5613,-2.5609,0.0,-2.5702,-2.5697,0.0,-2.5693,-2.5693,0.0,0.0,-2.5717,-2.5741,-2.5981,-2.6618,-2.6629,-2.7055,-2.8348,-2.8402,-2.8342,-2.8336,-2.7481,-2.6587,-2.5729,-2.5579,-2.4869,-2.3347,-2.2441,-2.1611,-2.0814,-2.0142,-1.9849,-1.9919,-2.005,-2.0142,-2.0223,-2.0341,-2.04,-2.0408,-2.0468,-2.0501,-2.0507,-2.0569,-2.0601,-2.0603,-2.0596,-2.0595,-2.0593,-2.0623,-2.1133,-2.1949,-2.2819,-2.3647,-2.444,-2.5142,-2.534,-2.5283,-2.5189,-2.5072,-2.5113,-2.5816,-2.6562,-2.7347,-2.8228,-2.8895,-2.9342,-2.9282,-2.915,-2.9067,-2.9053,-2.8966,-2.8858,-2.8785,-2.877,-2.8737,-2.8678,-2.8703,-2.8662,-2.838,-2.8344,-2.8344,-2.8344,-2.8344,-2.8344,-2.8344,-2.83,-2.8273,-2.8273,-2.82,-2.809,-2.7977,-2.7836,-2.771,-2.7587,-2.7496,-2.7465,-2.7465,-2.7404,-2.7301,-2.7158,-2.7149,-2.7149,-2.7149,-2.7149,-2.6989,-2.6674,-2.6674,-2.6674,-2.5554,-2.5528,-2.5505,-2.5528,-2.5537,-2.555,-2.5591,-2.5627,-2.5645,-2.5636,0.0,0.0,0.0,0.0,0.0,0.0,-2.5584,-2.5671,-2.5985,-2.5961,-2.6437,-2.7832,-2.841,-2.8635,-2.852,-2.8107,-2.7483,-2.6561,-2.604,-2.5249,-2.4104,-2.3212,-2.2166,-2.0886,-2.0586,-2.0261,-1.99,-1.9989,-2.0098,-2.0195,-2.0299,-2.036,-2.0403,-2.0428,-2.0458,-2.0501,-2.0527,-2.0557,-2.0601,-2.0603,-2.0605,-2.0595,-2.0574,-2.1052,-2.186,-2.2692,-2.3531,-2.4374,-2.5182,-2.5412,-2.535,-2.5332,-2.5241,-2.5319,-2.6128,-2.6543,-2.7006,-2.8262,-2.8785,-2.9024,-2.9439,-2.9485,-2.9434,-2.9405,-2.9314,-2.9242,-2.9163,-2.9084,-2.9007,-2.8943,-2.8929,-2.8891,-2.877,-2.8687,-2.8637,-2.8637,-2.8637,-2.8637,-2.8637,-2.8578,-2.8527,-2.8484,-2.8406,-2.83,-2.8126,-2.8053,-2.7959,-2.7824,-2.7804,-2.7774,-2.7724,-2.7638,-2.7539,-2.7417,-2.7386,-2.7355,-2.7355,-2.7355,-2.7293,-2.7158,-2.7053,-2.6989,-2.5596,-2.5544,-2.5499,-2.5518,-2.5506,-2.5518,-2.5579,-2.5593,-2.5566,-2.5571,-2.5571,0.0,0.0,0.0,-2.5577,-2.5598,0.0,-2.5596,-2.5598,-2.5556,-2.5962,-2.714,-2.82,-2.8764,-2.8574,-2.8702,-2.838,-2.7447,-2.6758,-2.594,-2.4907,-2.4018,-2.281,-2.1178,-2.0984,-2.0562,-1.988,-1.9963,-2.0059,-2.0171,-2.0238,-2.0309,-2.0373,-2.0384,-2.0434,-2.0467,-2.0486,-2.0525,-2.0565,-2.0589,-2.0601,-2.0601,-2.0605,-2.0964,-2.1572,-2.237,-2.3208,-2.4063,-2.4887,-2.5277,-2.5429,-2.5424,-2.5388,-2.5438,-2.6014,-2.6328,-2.6703,-2.7877,-2.8446,-2.8829,-2.9349,-2.9631,-2.9769,-2.9716,-2.9662,-2.9579,-2.9494,-2.9415,-2.9325,-2.9258,-2.9203,-2.916,-2.9128,-2.8989,-2.8858,-2.8858,-2.8858,-2.8858,-2.8858,-2.881,-2.8728,-2.8687,-2.8603,-2.8475,-2.8327,-2.8291,-2.8209,-2.8053,-2.8053,-2.8034,-2.7986,-2.7893,-2.7818,-2.7757,-2.7727,-2.7698,-2.7698,-2.7668,-2.7668,-2.7647,-2.7386,-2.7284,-2.5596,-2.5544,-2.5518,-2.5586,-2.5544,-2.5518,-2.5577,-2.5548,-2.5499,-2.5506,-2.5502,-2.5505,-2.5505,-2.5498,-2.5521,-2.5591,-2.5601,0.0,0.0,-2.5604,-2.5876,-2.6643,-2.8006,-2.8842,-2.8707,-2.9344,-2.9377,-2.8433,-2.8222,-2.7429,-2.5836,-2.4926,-2.3683,-2.2005,-2.1278,-2.0545,-1.9817,-1.9926,-2.0028,-2.0098,-2.0168,-2.0242,-2.031,-2.0372,-2.0399,-2.0414,-2.0472,-2.05,-2.0509,-2.057,-2.0596,-2.0599,-2.0601,-2.0625,-2.074,-2.154,-2.2347,-2.3174,-2.4042,-2.4849,-2.5505,-2.5501,-2.5456,-2.5403,-2.5434,-2.5976,-2.6602,-2.6657,-2.7794,-2.898,-2.8943,-2.9456,-2.9987,-2.9988,-2.9946,-2.9844,-2.9713,-2.9696,-2.9661,-2.9598,-2.958,-2.9561,-2.9504,-2.9218,-2.8984,-2.8984,-2.8984,-2.8984,-2.8984,-2.8938,-2.8896,-2.8896,-2.8767,-2.8669,-2.8576,-2.8475,-2.8336,-2.821,-2.8182,-2.8182,-2.8182,-2.8182,-2.8174,-2.8174,-2.8182,-2.8182,-2.8182,-2.8109,-2.8071,-2.8071,-2.7668,-2.7496,-2.5605,-2.5583,-2.557,-2.5586,-2.5544,-2.5511,-2.5534,-2.5521,-2.5502,-2.5503,-2.55,-2.5498,-2.5503,-2.5498,-2.5511,-2.5525,-2.5568,-2.5576,0.0,-2.5083,-2.4853,-2.5144,-2.6481,-2.7552,-2.8004,-2.8664,-2.8896,-2.8506,-2.839,-2.7821,-2.6665,-2.5763,-2.4538,-2.2854,-2.204,-2.1268,-2.0543,-2.0139,-1.9988,-2.0108,-2.0171,-2.0203,-2.0242,-2.0301,-2.0366,-2.0402,-2.0468,-2.0496,-2.051,-2.0572,-2.0599,-2.0601,-2.0598,-2.0602,-2.0703,-2.1498,-2.2342,-2.3268,-2.4671,-2.5343,-2.5561,-2.5509,-2.5481,-2.547,-2.5472,-2.5624,-2.5936,-2.6505,-2.7441,-2.8391,-2.8954,-2.9711,-3.0326,-3.0279,-3.0251,-3.0211,-3.0122,-3.0032,-2.994,-2.9883,-2.9827,-2.9793,-2.9767,-2.9634,-2.9465,-2.9279,-2.9267,-2.9246,-2.9206,-2.9215,-2.9206,-2.9175,-2.9123,-2.9025,-2.8888,-2.87,-2.8578,-2.8543,-2.8501,-2.8449,-2.8388,-2.8397,-2.8388,-2.8326,-2.8326,-2.8309,-2.8273,-2.8246,-2.8219,-2.8155,-2.7968,-2.7862,-2.5222,-2.5133,-2.5059,-2.4754,-2.4878,-2.5072,-2.5069,-2.5284,-2.55,-2.5499,-2.5482,-2.5463,-2.5466,-2.5464,-2.5453,-2.5463,-2.5517,-2.5447,0.0,-2.4633,-2.4319,-2.4394,-2.5472,-2.6505,-2.7266,-2.7947,-2.8417,-2.8593,-2.8506,-2.8025,-2.7083,-2.646,-2.5226,-2.3256,-2.2425,-2.1652,-2.091,-2.0245,-1.9955,-2.0069,-2.0135,-2.018,-2.0203,-2.0269,-2.0316,-2.0369,-2.0442,-2.0482,-2.0496,-2.0554,-2.0579,-2.0596,-2.0572,-2.0576,-2.0659,-2.1181,-2.2107,-2.3338,-2.5019,-2.5605,-2.5586,-2.555,-2.5547,-2.5535,-2.5541,-2.5517,-2.5582,-2.6126,-2.6865,-2.7699,-2.855,-2.9419,-3.0124,-3.0384,-3.044,-3.0428,-3.0375,-3.0304,-3.0218,-3.0159,-3.0118,-3.0076,-3.0056,-3.0011,-2.9876,-2.9589,-2.9532,-2.9522,-2.9484,-2.9522,-2.9522,-2.9484,-2.9464,-2.9357,-2.9172,-2.9025,-2.8915,-2.8892,-2.8854,-2.8782,-2.8728,-2.8725,-2.8667,-2.861,-2.8644,-2.8585,-2.8518,-2.8475,-2.8449,-2.8388,-2.8291,-2.8173]},{"header":{"parameterUnit":"m.s-1","parameterCategory":1,"la1":30.6,"la2":29.2853,"lo1":-89.7004,"lo2":-87.6739,"dy":0.0162,"dx":0.0183,"nx":112,"ny":82,"refTime":"2024-06-30T00:00:00:Z","depth":0,"parameterNumber":3,"parameterNumberName":"V-component_of_WINDS"},"data":[0.0,0.0,0.0,0.0,0.0,0.0,0.0,0.0,0.0,0.0,0.0,0.0,0.0,0.0,0.0,0.0,0.0,0.0,0.0,0.0,0.0,0.0,0.0,0.0,0.0,0.0,0.0,0.0,0.0,0.0,0.0,0.0,0.0,0.0,0.0,0.0,0.0,0.0,0.0,0.0,0.0,0.0,0.0,0.0,0.0,0.0,0.0,0.0,0.0,0.0,0.0,0.0,0.0,0.0,0.0,0.0,0.0,0.0,0.0,0.0,0.0,0.0,0.0,0.0,0.0,0.0,0.0,0.0,0.0,0.0,0.0,0.0,0.0,0.0,0.0,0.0,0.0,0.0,0.0,0.0,0.0,0.0,0.0,0.0,0.0,0.0,0.0,0.0,0.0,0.0,-1.389,-1.3945,-1.4414,-1.4942,-1.5289,-1.5695,-1.6109,-1.6575,0.0,0.0,0.0,0.0,0.0,0.0,0.0,0.0,0.0,0.0,0.0,0.0,0.0,0.0,0.0,0.0,0.0,0.0,0.0,0.0,0.0,0.0,0.0,0.0,0.0,0.0,0.0,0.0,0.0,0.0,0.0,0.0,0.0,0.0,0.0,0.0,0.0,0.0,0.0,0.0,0.0,0.0,0.0,0.0,0.0,0.0,0.0,0.0,0.0,0.0,0.0,0.0,0.0,0.0,0.0,0.0,0.0,0.0,0.0,0.0,0.0,0.0,0.0,0.0,0.0,0.0,0.0,0.0,0.0,0.0,0.0,0.0,0.0,0.0,0.0,0.0,0.0,0.0,0.0,0.0,0.0,0.0,0.0,0.0,0.0,0.0,0.0,0.0,0.0,0.0,0.0,0.0,0.0,0.0,0.0,0.0,0.0,0.0,0.0,0.0,0.0,0.0,0.0,0.0,-1.4125,-1.4533,-1.4883,-1.5289,-1.5753,-1.5931,-1.6285,-1.6751,0.0,0.0,0.0,0.0,0.0,0.0,0.0,0.0,0.0,0.0,0.0,0.0,0.0,0.0,0.0,0.0,0.0,0.0,0.0,0.0,0.0,0.0,0.0,0.0,0.0,0.0,0.0,0.0,0.0,0.0,0.0,0.0,0.0,0.0,0.0,0.0,0.0,0.0,0.0,0.0,0.0,0.0,0.0,0.0,0.0,0.0,0.0,0.0,0.0,0.0,0.0,0.0,0.0,0.0,0.0,0.0,0.0,0.0,0.0,0.0,0.0,0.0,0.0,0.0,0.0,0.0,0.0,0.0,0.0,0.0,0.0,0.0,0.0,0.0,0.0,0.0,0.0,0.0,0.0,0.0,0.0,0.0,0.0,0.0,0.0,0.0,0.0,0.0,0.0,0.0,0.0,0.0,0.0,0.0,0.0,0.0,0.0,0.0,0.0,0.0,0.0,0.0,0.0,-1.4574,-1.4757,-1.5237,-1.5385,-1.5599,-1.5994,-1.6176,-1.642,-1.6756,-1.6196,0.0,0.0,0.0,0.0,0.0,0.0,0.0,0.0,0.0,0.0,0.0,0.0,0.0,0.0,0.0,0.0,0.0,0.0,0.0,0.0,0.0,0.0,0.0,0.0,0.0,0.0,0.0,0.0,0.0,0.0,0.0,0.0,0.0,0.0,0.0,0.0,0.0,0.0,0.0,0.0,0.0,0.0,0.0,0.0,0.0,0.0,0.0,0.0,0.0,0.0,0.0,0.0,0.0,0.0,0.0,0.0,0.0,0.0,0.0,0.0,0.0,0.0,0.0,0.0,0.0,0.0,0.0,0.0,0.0,0.0,0.0,0.0,0.0,0.0,0.0,0.0,0.0,0.0,0.0,0.0,0.0,0.0,0.0,0.0,0.0,0.0,0.0,0.0,0.0,0.0,0.0,0.0,0.0,0.0,0.0,0.0,0.0,0.0,0.0,0.0,0.0,0.0,-1.5076,-1.5299,-1.5938,-1.5812,-1.5846,-1.6176,-1.6311,-1.6483,-1.6756,-1.6249,0.0,0.0,0.0,0.0,0.0,0.0,0.0,0.0,0.0,0.0,0.0,0.0,0.0,0.0,0.0,0.0,0.0,0.0,0.0,0.0,0.0,0.0,0.0,0.0,0.0,0.0,0.0,0.0,0.0,0.0,0.0,0.0,0.0,0.0,0.0,0.0,0.0,0.0,0.0,0.0,0.0,0.0,0.0,0.0,0.0,0.0,0.0,0.0,0.0,0.0,0.0,0.0,0.0,0.0,0.0,0.0,0.0,0.0,0.0,0.0,0.0,0.0,0.0,0.0,0.0,0.0,0.0,0.0,0.0,0.0,0.0,0.0,0.0,0.0,0.0,0.0,0.0,0.0,0.0,0.0,0.0,0.0,0.0,0.0,0.0,0.0,0.0,0.0,0.0,0.0,0.0,0.0,0.0,0.0,0.0,0.0,0.0,0.0,0.0,0.0,0.0,0.0,-1.5254,-1.5398,-1.6437,-1.617,-1.6034,-1.6374,-1.6379,-1.6483,-1.6756,-1.6249,0.0,0.0,0.0,0.0,0.0,0.0,0.0,0.0,0.0,0.0,0.0,0.0,0.0,0.0,0.0,0.0,0.0,0.0,0.0,0.0,0.0,0.0,0.0,0.0,0.0,0.0,0.0,0.0,0.0,0.0,0.0,0.0,0.0,0.0,0.0,0.0,0.0,0.0,0.0,0.0,0.0,0.0,0.0,0.0,0.0,0.0,0.0,0.0,0.0,0.0,0.0,0.0,0.0,0.0,0.0,0.0,0.0,0.0,0.0,0.0,0.0,0.0,0.0,0.0,0.0,0.0,0.0,0.0,0.0,0.0,0.0,0.0,0.0,0.0,0.0,0.0,0.0,0.0,0.0,0.0,0.0,0.0,0.0,0.0,0.0,0.0,0.0,0.0,0.0,0.0,0.0,0.0,0.0,0.0,0.0,0.0,0.0,0.0,0.0,0.0,0.0,0.0,-1.6099,-1.6177,-1.7042,-1.6499,-1.6134,-1.6379,-1.6483,-1.6637,-1.6909,0.0,0.0,0.0,0.0,0.0,0.0,0.0,0.0,0.0,0.0,0.0,0.0,0.0,0.0,0.0,0.0,0.0,0.0,0.0,0.0,0.0,0.0,0.0,0.0,0.0,0.0,0.0,0.0,0.0,0.0,0.0,0.0,0.0,0.0,0.0,0.0,0.0,0.0,0.0,0.0,0.0,0.0,0.0,0.0,0.0,0.0,0.0,0.0,0.0,0.0,0.0,0.0,0.0,0.0,0.0,0.0,0.0,0.0,0.0,0.0,0.0,0.0,0.0,0.0,0.0,0.0,0.0,0.0,0.0,0.0,0.0,0.0,0.0,0.0,0.0,0.0,0.0,0.0,0.0,0.0,0.0,0.0,0.0,0.0,0.0,0.0,0.0,0.0,0.0,0.0,0.0,0.0,0.0,0.0,0.0,0.0,0.0,0.0,0.0,0.0,0.0,0.0,-1.6832,-1.6502,-1.6457,-1.7272,-1.6573,-1.6181,-1.6426,-1.6524,-1.674,-1.7123,0.0,0.0,0.0,0.0,0.0,0.0,0.0,0.0,0.0,0.0,0.0,0.0,0.0,0.0,0.0,0.0,0.0,0.0,0.0,0.0,0.0,0.0,0.0,0.0,0.0,0.0,0.0,0.0,0.0,0.0,0.0,0.0,0.0,0.0,0.0,0.0,0.0,0.0,0.0,0.0,0.0,0.0,0.0,0.0,0.0,0.0,0.0,0.0,0.0,0.0,0.0,0.0,0.0,0.0,0.0,0.0,0.0,0.0,0.0,0.0,0.0,0.0,0.0,0.0,0.0,0.0,0.0,0.0,0.0,0.0,0.0,0.0,0.0,0.0,0.0,0.0,0.0,0.0,0.0,0.0,0.0,0.0,0.0,0.0,0.0,0.0,0.0,0.0,0.0,0.0,0.0,0.0,0.0,0.0,0.0,0.0,0.0,0.0,0.0,0.0,0.0,0.0,-1.6736,-1.6298,-1.6196,-1.6935,-1.6448,-1.6228,-1.6575,-1.6632,-1.6853,0.0,0.0,0.0,0.0,0.0,0.0,0.0,0.0,0.0,0.0,0.0,0.0,0.0,0.0,0.0,0.0,0.0,0.0,0.0,0.0,0.0,0.0,0.0,0.0,0.0,0.0,0.0,0.0,0.0,0.0,0.0,0.0,0.0,0.0,0.0,0.0,0.0,0.0,0.0,0.0,0.0,0.0,0.0,0.0,0.0,0.0,0.0,0.0,0.0,0.0,0.0,0.0,0.0,0.0,0.0,0.0,0.0,0.0,0.0,0.0,0.0,0.0,0.0,0.0,0.0,0.0,0.0,0.0,0.0,0.0,0.0,0.0,0.0,0.0,0.0,0.0,0.0,0.0,0.0,0.0,0.0,0.0,0.0,0.0,0.0,0.0,0.0,0.0,0.0,0.0,0.0,0.0,0.0,0.0,0.0,0.0,0.0,0.0,0.0,0.0,0.0,0.0,0.0,-1.6819,-1.6537,-1.6434,-1.6935,-1.668,-1.6513,-1.6575,-1.6965,-1.7208,-1.7244,0.0,0.0,0.0,0.0,0.0,0.0,0.0,0.0,0.0,0.0,0.0,0.0,0.0,0.0,0.0,0.0,0.0,0.0,0.0,0.0,0.0,0.0,0.0,0.0,0.0,0.0,0.0,0.0,0.0,0.0,0.0,0.0,0.0,0.0,0.0,0.0,0.0,0.0,0.0,0.0,0.0,0.0,0.0,0.0,0.0,0.0,0.0,0.0,0.0,0.0,0.0,0.0,0.0,0.0,0.0,0.0,0.0,0.0,0.0,0.0,0.0,0.0,0.0,0.0,0.0,0.0,0.0,0.0,0.0,0.0,0.0,0.0,0.0,0.0,0.0,0.0,0.0,0.0,0.0,0.0,0.0,0.0,0.0,0.0,0.0,0.0,0.0,0.0,0.0,0.0,0.0,0.0,0.0,0.0,0.0,0.0,0.0,0.0,0.0,0.0,0.0,0.0,-1.6684,-1.6544,-1.6535,-1.6794,-1.6686,-1.6689,-1.6965,-1.7131,-1.7334,-1.745,0.0,0.0,0.0,0.0,0.0,0.0,0.0,0.0,0.0,0.0,0.0,0.0,0.0,0.0,0.0,0.0,0.0,0.0,0.0,0.0,0.0,0.0,0.0,0.0,0.0,0.0,0.0,0.0,0.0,0.0,0.0,0.0,0.0,0.0,0.0,0.0,0.0,0.0,0.0,0.0,0.0,0.0,0.0,0.0,0.0,0.0,0.0,0.0,0.0,0.0,0.0,0.0,0.0,0.0,0.0,0.0,0.0,0.0,0.0,0.0,0.0,0.0,0.0,0.0,0.0,0.0,0.0,0.0,0.0,0.0,0.0,0.0,0.0,0.0,0.0,0.0,0.0,0.0,0.0,0.0,0.0,0.0,0.0,0.0,0.0,0.0,0.0,0.0,0.0,0.0,0.0,0.0,0.0,0.0,0.0,0.0,0.0,0.0,0.0,0.0,0.0,0.0,-1.6317,-1.6379,-1.6431,-1.6575,-1.6627,-1.6853,-1.7468,-1.7193,-1.7259,-1.7948,0.0,0.0,0.0,0.0,0.0,0.0,0.0,0.0,0.0,0.0,0.0,0.0,0.0,0.0,0.0,0.0,0.0,0.0,0.0,0.0,0.0,0.0,0.0,0.0,0.0,0.0,0.0,0.0,0.0,0.0,0.0,0.0,0.0,0.0,0.0,0.0,0.0,0.0,0.0,0.0,0.0,0.0,0.0,0.0,0.0,0.0,0.0,0.0,0.0,0.0,0.0,0.0,0.0,0.0,0.0,0.0,0.0,0.0,0.0,0.0,-1.5454,-1.4887,0.0,0.0,0.0,0.0,0.0,0.0,0.0,0.0,0.0,0.0,0.0,0.0,0.0,0.0,0.0,0.0,0.0,0.0,0.0,0.0,0.0,0.0,0.0,0.0,0.0,0.0,0.0,0.0,0.0,0.0,0.0,0.0,0.0,0.0,0.0,0.0,0.0,0.0,0.0,0.0,-1.627,-1.6379,-1.6431,-1.6575,-1.6791,-1.7128,-1.7595,-1.7603,-1.759,-1.7733,-1.7384,0.0,0.0,0.0,0.0,0.0,0.0,0.0,0.0,0.0,0.0,0.0,0.0,0.0,0.0,0.0,0.0,0.0,0.0,0.0,0.0,0.0,0.0,0.0,0.0,0.0,0.0,0.0,0.0,0.0,0.0,0.0,0.0,0.0,0.0,0.0,0.0,0.0,0.0,0.0,0.0,0.0,0.0,0.0,0.0,0.0,0.0,0.0,0.0,0.0,0.0,0.0,0.0,0.0,0.0,0.0,0.0,0.0,0.0,0.0,-1.6545,-1.6255,0.0,0.0,0.0,0.0,0.0,0.0,0.0,0.0,0.0,0.0,0.0,0.0,0.0,0.0,0.0,0.0,0.0,0.0,0.0,0.0,0.0,0.0,0.0,0.0,0.0,0.0,0.0,0.0,0.0,0.0,0.0,0.0,0.0,0.0,0.0,0.0,0.0,0.0,0.0,0.0,-1.6291,-1.6483,-1.6507,-1.6443,-1.6687,-1.6966,-1.7322,-1.7287,-1.7297,-1.7498,-1.7256,0.0,0.0,0.0,0.0,0.0,0.0,0.0,0.0,0.0,0.0,0.0,0.0,0.0,0.0,0.0,0.0,0.0,0.0,0.0,0.0,0.0,0.0,0.0,0.0,0.0,0.0,0.0,0.0,0.0,0.0,0.0,0.0,0.0,0.0,0.0,0.0,0.0,0.0,0.0,0.0,0.0,0.0,0.0,0.0,0.0,0.0,0.0,0.0,0.0,0.0,0.0,0.0,0.0,-1.5868,-1.6317,-1.6953,-1.7211,-1.7427,-1.7543,-1.775,-1.7807,-1.7642,-1.726,0.0,0.0,0.0,0.0,0.0,0.0,0.0,0.0,0.0,0.0,0.0,0.0,0.0,0.0,0.0,0.0,0.0,0.0,0.0,0.0,0.0,0.0,-1.6379,-1.6379,-1.672,-1.6677,-1.5597,0.0,0.0,0.0,0.0,0.0,0.0,0.0,0.0,0.0,0.0,0.0,-1.6368,-1.6586,-1.6565,-1.638,-1.6648,-1.6863,-1.7061,-1.6877,-1.6935,-1.7344,-1.7097,-1.6918,0.0,0.0,0.0,0.0,0.0,0.0,0.0,0.0,0.0,0.0,0.0,0.0,0.0,0.0,0.0,0.0,0.0,0.0,0.0,0.0,0.0,0.0,0.0,0.0,0.0,0.0,0.0,0.0,0.0,0.0,0.0,0.0,-1.0801,-1.1275,0.0,0.0,0.0,0.0,0.0,0.0,0.0,0.0,0.0,0.0,0.0,0.0,0.0,-1.4209,-1.4602,-1.5109,-1.5632,-1.6039,-1.6782,-1.7293,-1.7526,-1.7849,-1.7838,-1.7693,-1.8128,0.0,-1.7729,-1.7606,0.0,0.0,0.0,0.0,0.0,0.0,0.0,0.0,0.0,0.0,0.0,0.0,0.0,0.0,0.0,0.0,0.0,0.0,0.0,0.0,0.0,0.0,-1.6379,-1.6379,-1.672,-1.6935,-1.6755,-1.7033,-1.7312,-1.7312,-1.6736,-1.6198,0.0,0.0,0.0,0.0,0.0,0.0,-1.6518,-1.6791,-1.6888,-1.6692,-1.6966,-1.7283,-1.7362,-1.716,-1.7221,-1.7626,-1.7226,-1.7038,-1.7157,-1.696,0.0,0.0,0.0,0.0,0.0,0.0,0.0,0.0,0.0,0.0,0.0,0.0,0.0,0.0,0.0,0.0,0.0,0.0,0.0,0.0,0.0,0.0,0.0,0.0,0.0,0.0,0.0,0.0,0.0,-1.069,-1.1173,-1.1546,-1.1404,-1.1439,0.0,0.0,0.0,0.0,0.0,0.0,0.0,0.0,0.0,-1.3832,-1.4414,-1.4874,-1.5126,-1.5703,-1.6231,-1.6842,-1.7048,-1.7453,-1.786,-1.781,-1.7723,-1.7683,-1.7936,-1.805,-1.8097,-1.8097,-1.8097,-1.8071,0.0,0.0,0.0,0.0,-1.7673,-1.7729,-1.7781,-1.7837,-1.7929,-1.7796,0.0,0.0,0.0,0.0,0.0,0.0,0.0,-1.6273,-1.6477,-1.6483,-1.6379,-1.6379,-1.6779,-1.716,-1.716,-1.7779,-1.8275,-1.79,-1.753,-1.723,-1.7069,-1.668,0.0,0.0,0.0,-1.6613,-1.6821,-1.719,-1.7175,-1.666,-1.6956,-1.7093,-1.6745,-1.7138,-1.7453,-1.7677,-1.795,-1.8071,-1.8027,-1.7604,-1.73,0.0,0.0,0.0,0.0,0.0,0.0,0.0,0.0,0.0,0.0,0.0,0.0,0.0,0.0,0.0,0.0,0.0,0.0,0.0,0.0,0.0,0.0,0.0,0.0,0.0,0.0,0.0,0.0,-1.1246,-1.1559,-1.1886,-1.173,-1.1777,0.0,0.0,0.0,0.0,0.0,0.0,-1.3262,-1.3793,-1.4183,-1.438,-1.4923,-1.5334,-1.5711,-1.6204,-1.6825,-1.7574,-1.734,-1.7536,-1.8068,-1.7626,-1.7425,-1.7449,-1.7568,-1.7869,-1.8285,-1.8399,-1.8449,-1.8526,-1.82,-1.8139,-1.8144,-1.8139,-1.8139,-1.8139,-1.8139,-1.8207,-1.8323,-1.8323,-1.8097,-1.7728,-1.7551,0.0,0.0,0.0,0.0,-1.6678,-1.6678,-1.6581,-1.6488,-1.6488,-1.6943,-1.7386,-1.7386,-1.8208,-1.8778,-1.8378,-1.8274,-1.828,-1.8088,-1.7825,0.0,-1.727,-1.721,-1.7229,-1.7279,-1.7634,-1.7687,-1.6989,-1.7363,-1.7352,-1.6769,-1.7434,-1.79,-1.7945,-1.85,-1.8773,-1.8641,-1.801,-1.7613,-1.7505,0.0,0.0,0.0,0.0,0.0,0.0,0.0,0.0,0.0,0.0,0.0,0.0,0.0,0.0,0.0,0.0,0.0,0.0,0.0,0.0,0.0,0.0,0.0,0.0,0.0,0.0,0.0,0.0,0.0,-1.2321,-1.2346,0.0,0.0,0.0,0.0,-1.295,-1.328,-1.3643,-1.4016,-1.4076,-1.4423,-1.5137,-1.5193,-1.5523,-1.6241,-1.6686,-1.7235,-1.7964,-1.8006,-1.8027,-1.791,-1.7515,-1.7069,-1.667,-1.7116,-1.7578,-1.8039,-1.8269,-1.8635,-1.91,-1.9156,-1.9212,-1.9212,-1.941,-1.941,-1.9212,-1.9212,-1.9212,-1.9212,-1.9212,-1.8903,-1.8393,-1.7727,-1.749,0.0,0.0,-1.724,-1.6955,-1.6955,-1.6853,-1.6761,-1.6761,-1.7221,-1.7669,-1.7669,-1.8295,-1.884,-1.898,-1.9124,-1.9239,-1.9535,0.0,-1.8204,-1.8406,-1.8103,-1.7892,-1.8044,-1.8327,-1.846,-1.8172,-1.846,-1.8566,-1.8122,-1.8503,-1.8693,-1.8554,-1.8641,-1.8641,-1.8508,-1.7861,-1.7511,-1.7505,-1.6835,0.0,0.0,0.0,0.0,0.0,0.0,0.0,0.0,0.0,0.0,0.0,0.0,0.0,0.0,0.0,0.0,0.0,0.0,0.0,0.0,0.0,0.0,0.0,0.0,0.0,0.0,0.0,0.0,-1.2723,-1.2547,0.0,-1.3061,-1.3031,-1.3074,-1.3301,-1.3434,-1.3682,-1.4076,-1.4337,-1.4701,-1.5197,-1.5592,-1.5987,-1.6473,-1.6964,-1.7574,-1.8297,-1.7988,-1.7932,-1.8041,-1.735,-1.691,-1.6761,-1.6931,-1.7434,-1.815,-1.8247,-1.8707,-1.9407,-1.9473,-1.9478,-1.9478,-1.9544,-1.9348,-1.9029,-1.891,-1.8839,-1.8715,-1.884,-1.8783,-1.8656,-1.8328,-1.8236,-1.8176,-1.8067,-1.7892,-1.7667,-1.7617,-1.7457,-1.7401,-1.7401,-1.759,-1.7823,-1.793,-1.8504,-1.9096,-1.932,-1.9629,-1.9907,-1.9838,-1.9608,-1.9316,-1.9101,-1.8736,-1.8518,-1.856,-1.8821,-1.8875,-1.8602,-1.8809,-1.8781,-1.8499,-1.8982,-1.9249,-1.9105,-1.9597,-1.9748,-1.9495,-1.8557,-1.8023,-1.7937,-1.6992,-1.6697,0.0,0.0,0.0,0.0,0.0,0.0,0.0,0.0,0.0,0.0,0.0,0.0,0.0,0.0,0.0,0.0,0.0,0.0,0.0,0.0,0.0,0.0,0.0,0.0,0.0,-1.2355,-1.2727,-1.3113,-1.2924,-1.2967,-1.3528,-1.342,-1.3381,-1.3679,-1.3696,-1.3922,-1.4451,-1.4729,-1.5097,-1.5528,-1.5992,-1.6473,-1.6885,-1.7442,-1.7978,-1.8603,-1.8192,-1.8065,-1.8175,-1.7342,-1.6925,-1.6858,-1.6858,-1.7359,-1.8137,-1.8197,-1.8666,-1.9479,-1.9613,-1.9731,-1.9775,-1.956,-1.9367,-1.9008,-1.8738,-1.8534,-1.8545,-1.8637,-1.8817,-1.8945,-1.8821,-1.8947,-1.903,-1.8915,-1.8864,-1.8786,-1.8519,-1.8363,-1.8212,-1.8041,-1.8121,-1.8236,-1.8333,-1.891,-1.9453,-1.9652,-2.0158,-2.0523,-2.0476,-2.0546,-2.0492,-2.0262,-1.9665,-1.9275,-1.9383,-1.9367,-1.9312,-1.9214,-1.934,-1.9344,-1.9252,-1.9707,-1.9921,-1.978,-2.0147,-2.0303,-1.999,-1.9105,-1.857,-1.8486,-1.7603,-1.732,-1.7749,0.0,0.0,0.0,0.0,0.0,0.0,0.0,0.0,0.0,0.0,0.0,0.0,0.0,0.0,0.0,0.0,0.0,0.0,0.0,0.0,0.0,0.0,0.0,-1.241,-1.2749,-1.3125,-1.3468,-1.3506,-1.3571,-1.3769,-1.383,-1.389,-1.401,-1.401,-1.4347,-1.5127,-1.518,-1.5539,-1.6228,-1.6464,-1.6881,-1.7359,-1.7974,-1.8476,-1.8776,-1.8705,-1.8484,-1.8192,-1.7604,-1.7206,-1.7011,-1.7011,-1.7394,-1.8019,-1.8146,-1.8544,-1.9132,-1.965,-1.9944,-2.0003,-1.9561,-1.9386,-1.9242,-1.863,-1.8523,-1.8681,-1.8771,-1.902,-1.9274,-1.9238,-1.9598,-2.0007,-2.0013,-2.0167,-2.0286,-1.9777,-1.9559,-1.9335,-1.8761,-1.8756,-1.8822,-1.8857,-1.9456,-2.0037,-2.0037,-2.064,-2.1266,-2.1564,-2.1618,-2.1689,-2.1873,-2.0951,0.0,-2.0461,-1.9977,-1.9739,-1.999,-2.0131,-2.029,-2.0467,-2.0612,-2.0655,-2.0511,-2.0296,-2.0131,-1.999,-1.9365,-1.902,-1.9001,-1.863,-1.8452,-1.8446,0.0,0.0,0.0,0.0,0.0,0.0,0.0,0.0,0.0,0.0,0.0,0.0,0.0,0.0,0.0,0.0,0.0,0.0,0.0,0.0,0.0,-1.2449,-1.2817,-1.2817,-1.313,-1.3399,-1.3498,-1.3506,-1.3571,-1.3769,-1.383,-1.389,-1.401,-1.401,-1.4232,-1.475,-1.5038,-1.5406,-1.5822,-1.6463,-1.683,-1.6939,-1.7595,-1.8083,-1.8366,-1.8213,-1.8214,-1.8343,-1.7818,-1.754,-1.7534,-1.7534,-1.7806,-1.8297,-1.836,-1.865,-1.9125,-1.9277,-1.9315,-1.936,-1.9232,-1.8906,-1.8482,-1.8277,-1.8199,-1.8328,-1.8807,-1.915,-1.9399,-1.9596,-1.9756,-1.9815,-1.9723,-2.0077,-2.0416,-2.0092,-2.0354,-2.0469,-1.9916,-1.9788,-1.9738,-1.9442,-1.9898,-2.0395,-2.0497,-2.1325,-2.1965,-2.1978,-2.203,-2.2141,-2.2205,-2.16,-2.1007,-2.0667,-2.0599,-2.0452,-2.0176,-2.0296,-2.0454,-2.0612,-2.0655,-2.0655,-2.0511,-2.0296,-2.0131,-1.999,-1.9365,-1.8929,-1.8703,-1.9076,-1.93,0.0,0.0,0.0,0.0,0.0,0.0,0.0,0.0,0.0,0.0,0.0,0.0,0.0,0.0,0.0,0.0,0.0,0.0,0.0,0.0,0.0,0.0,-1.2556,-1.29,-1.3155,-1.3442,-1.364,-1.364,-1.3696,-1.3761,-1.4014,-1.4019,-1.4079,-1.4198,-1.4198,-1.4378,-1.4778,-1.5011,-1.5303,-1.5685,-1.6262,-1.668,-1.6761,-1.7397,-1.7864,-1.8078,-1.8097,-1.8139,-1.8205,-1.7934,-1.7761,-1.7711,-1.7711,-1.7918,-1.8165,-1.8165,-1.8391,-1.8701,0.0,0.0,0.0,0.0,-1.8765,-1.825,-1.8285,-1.8344,-1.8446,-1.8928,-1.9356,-1.9812,-2.0116,-2.0483,-2.0853,-2.075,-2.1163,-2.1487,-2.0909,-2.0977,-2.1082,-2.0227,-2.0029,-1.9949,-1.9724,-2.0157,-2.0686,-2.0966,-2.1713,0.0,-2.2505,-2.2602,-2.2661,-2.2661,-2.2248,-2.1756,-2.1182,-2.1031,-2.0827,-2.0354,-2.041,-2.0562,-2.0705,-2.0705,0.0,0.0,0.0,-2.0246,-2.0086,-1.9731,0.0,0.0,0.0,0.0,0.0,-2.0608,0.0,0.0,-1.9494,-1.9403,0.0,0.0,0.0,0.0,0.0,0.0,0.0,0.0,0.0,0.0,0.0,0.0,0.0,0.0,0.0,0.0,-1.2584,-1.2794,-1.3352,-1.357,-1.3729,-1.3821,-1.395,-1.4074,-1.4272,-1.4272,-1.4332,-1.4515,-1.451,-1.4666,-1.5015,-1.5074,0.0,0.0,0.0,-1.6359,-1.6621,-1.7307,-1.769,-1.7837,-1.8167,-1.816,-1.7903,-1.7903,-1.786,-1.7767,-1.7767,-1.781,-1.7903,-1.7903,-1.8018,-1.8176,-1.8774,-1.9112,-1.929,-1.9175,-1.8832,-1.8441,-1.8661,0.0,0.0,-1.9192,-1.9674,-2.0242,-2.0517,-2.1299,-2.2115,-2.2046,-2.2472,-2.2711,-2.1669,-2.1437,-2.1217,-2.015,-1.9899,-1.988,-1.9817,-2.0257,-2.0869,-2.1299,-2.1889,-2.2466,-2.2956,-2.3094,-2.3132,-2.3138,-2.2854,-2.2458,-2.1924,-2.146,-2.1055,-2.0616,-2.055,0.0,-2.0705,-2.0705,-2.0705,-2.0705,-2.0555,-2.0404,-2.0233,-2.0233,-2.0378,-2.0666,-2.0927,-2.1138,-2.1277,-2.1229,-2.1118,-2.0852,-2.0277,-1.9881,0.0,0.0,0.0,0.0,0.0,0.0,0.0,0.0,0.0,0.0,0.0,0.0,0.0,0.0,0.0,-1.24,-1.2631,-1.2773,-1.2923,-1.3061,-1.33,-1.3755,-1.395,-1.4074,-1.4272,-1.4272,-1.4332,-1.4515,-1.451,-1.4543,-1.4625,-1.4928,-1.5139,-1.5212,-1.5832,-1.6157,-1.614,-1.6804,-1.7227,-1.7331,-1.7679,0.0,-1.8084,-1.8084,-1.803,-1.8035,-1.8035,-1.803,-1.8084,-1.8084,-1.8199,-1.8331,-1.8467,-1.8652,-1.8793,-1.906,-1.9112,-1.9075,-1.9442,-1.9592,-1.9656,-1.9772,-1.995,-2.0045,-2.0103,-2.0564,0.0,-2.042,-2.1022,-2.1656,-2.0997,-2.1154,-2.1324,-2.0658,-2.0555,-2.037,-1.9905,-2.0257,-2.075,-2.0803,-2.1631,-2.2405,-2.2647,-2.2908,-2.3138,-2.333,-2.3308,-2.3094,-2.2636,-2.2178,-2.1714,-2.1212,-2.0835,-2.0655,-2.0705,-2.0705,-2.0705,-2.0705,-2.0442,-2.0233,-2.0182,-2.0277,-2.0529,-2.0934,-2.118,-2.1416,-2.1657,-2.1561,-2.1368,-2.1124,-2.0573,-2.0175,0.0,0.0,0.0,0.0,0.0,0.0,0.0,0.0,0.0,0.0,0.0,-1.231,-1.2063,0.0,-1.2135,-1.2175,-1.2316,-1.2451,-1.2584,-1.2776,-1.3032,-1.3371,-1.3714,-1.4015,-1.4078,-1.4269,-1.4455,-1.451,-1.451,-1.451,-1.451,-1.4698,-1.4808,-1.4808,-1.5223,-1.5477,-1.5587,-1.6226,-1.6738,-1.7128,-1.7534,-1.7816,-1.809,-1.809,-1.809,-1.809,-1.809,-1.809,-1.8084,-1.8199,-1.8362,-1.8518,-1.8727,-1.8821,-1.8922,-1.9291,-1.9506,-1.9662,-1.9914,-2.0016,-2.0016,-2.008,-2.0283,-2.0577,-2.0577,-2.0853,-2.1119,-2.0829,-2.1102,-2.1368,-2.0863,-2.0926,-2.0934,-2.037,-2.0231,-2.0156,-1.9867,-2.0031,-2.0319,-2.0662,-2.1171,-2.1794,-2.2471,-2.2788,-2.306,-2.3465,-2.3582,-2.3495,-2.2968,-2.2506,-2.2044,-2.1472,-2.1002,-2.0705,-2.0705,-2.0705,-2.0705,-2.0705,-2.0498,-2.0398,-2.0555,-2.0579,-2.0815,-2.1277,-2.1513,-2.1752,-2.199,-2.1848,-2.1657,-2.1375,-2.0927,-2.0529,0.0,0.0,0.0,0.0,0.0,0.0,0.0,-1.3208,-1.3226,-1.2702,-1.2615,-1.2441,-1.1895,-1.1823,-1.1826,-1.1835,-1.1835,-1.1943,-1.2132,-1.2392,-1.2604,-1.2717,-1.3427,-1.3882,-1.3882,-1.4263,-1.451,-1.451,-1.451,-1.451,-1.451,-1.451,-1.451,-1.451,-1.4606,-1.4838,-1.5215,-1.5773,-1.6332,-1.696,-1.7418,-1.781,-1.8084,-1.809,-1.809,-1.809,-1.809,-1.809,-1.8144,-1.8367,-1.8512,-1.8721,-1.9133,-1.9344,-1.9442,-1.9662,-1.9875,-2.0144,-2.0239,-2.0283,-2.0283,-2.0283,-2.0611,-2.1003,-2.1003,-2.1275,-2.1574,-2.146,-2.1407,-2.1314,-2.0753,-2.0555,-2.0441,-1.9969,-1.9805,-1.9805,-1.9805,-1.9805,-1.9943,-2.046,-2.0775,-2.1196,-2.2203,-2.2495,-2.2904,-2.3585,-2.3728,-2.3548,-2.3119,-2.2567,-2.2021,-2.1557,-2.1053,-2.0755,-2.0755,-2.0755,-2.0755,-2.0755,-2.0655,-2.0662,-2.0931,-2.0885,-2.1111,-2.1609,-2.1752,-2.1942,-2.2184,-2.2084,-2.1895,-2.1657,-2.1326,-2.0878,-1.49,-1.4021,-1.3142,-1.3246,-1.2978,-1.2741,0.0,-1.2964,-1.2783,-1.2338,-1.2263,-1.2087,-1.1644,-1.1523,-1.1486,-1.123,-1.1285,-1.1353,-1.1243,-1.1502,-1.165,-1.1654,-1.2982,-1.3882,-1.3882,-1.4263,-1.451,-1.451,-1.451,-1.451,-1.451,-1.451,-1.451,-1.451,-1.4606,-1.4838,-1.5215,-1.5652,-1.6228,-1.6807,-1.7312,-1.7634,-1.7909,-1.803,-1.809,-1.809,-1.809,-1.809,-1.8139,-1.8458,-1.8727,-1.8993,-1.9402,-1.9759,-2.0074,-2.0125,-2.0239,-2.0461,-2.0605,-2.0649,-2.0649,-2.0649,-2.0607,-2.0558,-2.0558,-2.0856,-2.1045,-2.0514,-2.0744,-2.1019,-2.0431,-2.0182,-2.0066,-2.0003,-1.9869,-1.9805,-1.9805,-1.9805,-1.9875,-2.0015,-2.0503,-2.1002,-2.1377,-2.1869,-2.2566,-2.3729,-2.3438,-2.3132,-2.3174,-2.2276,-2.1577,-2.1518,-2.1123,-2.0875,-2.0941,-2.099,-2.099,-2.099,-2.0822,-2.0865,-2.1138,-2.118,-2.1368,-2.1752,-2.1895,-2.2037,-2.2184,-2.2177,-2.2084,-2.1942,-2.18,-2.1306,-1.406,-1.3304,-1.2583,-1.2369,-1.2279,-1.2175,-1.2128,-1.2239,-1.2291,-1.1856,-1.1775,-1.1665,-1.1141,-1.0964,-1.0812,-1.0612,-1.0549,-1.0541,-1.0557,-1.0761,-1.0992,-1.1424,-1.2318,-1.3027,-1.3423,-1.4009,-1.4391,-1.451,-1.451,-1.451,-1.451,-1.451,-1.451,-1.451,-1.4561,-1.4734,-1.5093,-1.5536,-1.6056,-1.6689,-1.7251,-1.7628,-1.7903,-1.8024,-1.809,-1.809,-1.809,-1.8193,-1.8404,-1.8625,-1.8993,-1.9402,-1.9726,-2.0035,-2.0347,-2.0347,-2.0454,-2.0612,-2.0655,-2.0705,-2.0705,-2.0705,-2.0655,-2.0612,-2.0612,-2.068,-2.072,-2.0469,-2.047,-2.054,-2.0246,-2.0182,-2.0137,-2.0137,-2.008,-2.0016,-2.0016,-2.0016,-2.0074,-2.0137,-2.0393,-2.0823,-2.1204,-2.1562,-2.2044,-2.2919,-2.2828,-2.2665,-2.272,-2.2015,-2.1394,-2.1176,-2.1063,-2.1053,-2.1235,-2.1277,-2.1375,-2.1465,-2.1403,-2.1451,-2.1657,-2.1657,-2.18,-2.213,-2.2184,-2.2324,-2.2417,-2.237,-2.2231,-2.213,-2.1895,-2.1554,-1.2872,-1.233,-1.1832,-1.1493,-1.1462,-1.1473,-1.1303,-1.1538,-1.1682,-1.1262,-1.1185,-1.1023,-1.0522,-1.0249,-1.0091,-0.9888,-0.9825,-0.9869,-0.994,-1.0091,-1.0426,-1.1046,-1.1615,-1.2209,-1.2767,-1.362,-1.4267,-1.4451,-1.4451,-1.4451,-1.451,-1.451,-1.451,-1.451,-1.451,-1.4684,-1.4975,-1.5366,-1.5879,-1.6519,-1.7134,-1.7579,-1.7854,-1.803,-1.809,-1.809,-1.8144,-1.835,-1.8614,-1.8839,-1.9257,-1.9714,-2.0035,-2.0303,-2.0562,-2.0562,-2.0612,-2.0705,-2.0705,-2.0705,-2.0705,-2.0705,-2.0705,-2.0705,-2.0705,-2.0612,-2.0562,-2.0562,-2.0448,-2.0341,-2.0341,-2.029,-2.0283,-2.0283,-2.0233,-2.0182,-2.0182,-2.0226,-2.0277,-2.0277,-2.0435,-2.0736,-2.1153,-2.1276,-2.1517,-2.1931,-2.199,-2.2055,-2.216,-2.1629,-2.1177,-2.0971,-2.1003,-2.118,-2.1465,-2.1657,-2.18,-2.1895,-2.1983,-2.203,-2.213,-2.213,-2.2278,-2.2463,-2.2463,-2.2516,-2.2608,-2.2516,-2.2417,-2.2324,-2.213,-2.2033,-1.1505,-1.1082,-1.0629,-1.0654,-1.0531,-1.0514,-1.0654,-1.0906,-1.094,-1.0502,-1.0434,-1.0275,-0.9725,-0.9514,-0.9364,-0.9057,-0.9263,-0.9361,-0.9263,-0.9566,-0.9937,-1.027,-1.0944,-1.1569,-1.2198,-1.3173,-1.3954,-1.4272,-1.4332,-1.4332,-1.451,-1.451,-1.451,-1.451,-1.451,-1.4684,-1.4975,-1.525,-1.5705,-1.6296,-1.6915,-1.7362,-1.7711,-1.7981,-1.809,-1.8084,-1.8313,-1.847,-1.8614,-1.9158,-1.9558,-1.9856,-2.0296,-2.0562,-2.0705,-2.0705,-2.0705,-2.0705,-2.0705,-2.0705,-2.0705,-2.0705,-2.0705,-2.0705,-2.0705,-2.0705,-2.0705,-2.0705,-2.0705,-2.0699,-2.0699,-2.0612,-2.0467,-2.0467,-2.0347,-2.0182,-2.0182,-2.0277,-2.0422,-2.056,-2.0703,-2.0822,-2.0954,-2.1017,-2.1023,-2.1037,-2.1043,-2.1149,-2.1466,-2.1034,-2.0768,-2.0997,-2.1138,-2.1375,-2.1752,-2.2037,-2.2177,-2.2177,-2.2388,-2.2427,-2.237,-2.2516,-2.2608,-2.2608,-2.2608,-2.2608,-2.2608,-2.2608,-2.2608,-2.2608,-2.2562,-2.2837,-0.9642,-0.9402,-0.9197,-0.927,-0.9198,-0.9122,-0.9268,-0.9296,-0.9268,-0.9219,-0.9148,-0.8955,-0.8679,-0.8504,-0.8352,-0.8302,-0.8253,-0.8359,-0.8633,-0.8951,-0.9402,-1.0168,-1.0599,-1.1152,-1.1844,-1.283,-1.3584,-1.3954,-1.4143,-1.4332,-1.4332,-1.4451,-1.451,-1.451,-1.451,-1.4684,-1.4975,-1.525,-1.5705,-1.6291,-1.7145,-1.7706,-1.7981,-1.8035,-1.8199,-1.8313,-1.8464,-1.878,-1.9146,-1.9408,-1.9823,-2.0296,-2.0461,-2.0562,-2.0705,-2.0705,-2.0705,-2.0705,-2.0705,-2.0705,-2.0705,-2.0705,-2.0705,-2.0705,-2.0705,-2.0705,-2.0712,-2.0831,-2.0831,-2.0825,-2.0898,-2.0848,-2.0848,-2.0848,-2.0792,-2.0742,-2.0742,-2.0785,-2.0835,-2.097,-2.1118,-2.1264,-2.1368,-2.1465,-2.1513,-2.1416,-2.118,-2.1063,-2.1162,-2.1017,-2.099,-2.1229,-2.1465,-2.1752,-2.2177,-2.2487,-2.2678,-2.2797,-2.2949,-2.3038,-2.3001,-2.2978,-2.294,-2.294,-2.285,-2.2797,-2.2797,-2.2773,-2.2735,-2.2742,-2.3044,-2.329,-0.7477,-0.7454,-0.7346,-0.7421,-0.7451,-0.7521,-0.7626,-0.7703,-0.7827,-0.7981,-0.7931,-0.78,-0.7715,-0.7575,-0.7526,-0.7468,-0.7602,-0.7801,-0.7982,-0.8419,-0.8924,-0.9613,-0.9997,-1.0533,-1.1271,-1.21,-1.2838,-1.3454,-1.3769,-1.4079,-1.4272,-1.4391,-1.4451,-1.451,-1.451,-1.4625,-1.4907,-1.5191,-1.5768,-1.657,-1.7312,-1.7816,-1.809,-1.809,-1.8199,-1.8422,-1.8572,-1.8946,-1.942,-1.9675,-2.0035,-2.0518,-2.0562,-2.0612,-2.0705,-2.0705,-2.0705,-2.0705,-2.0705,-2.0705,-2.0705,-2.0705,-2.0705,-2.0705,-2.0705,-2.0705,-2.0712,-2.0838,-2.0894,-2.0938,-2.0997,-2.099,-2.099,-2.1039,-2.1089,-2.1089,-2.1131,-2.1229,-2.1326,-2.1423,-2.1609,-2.18,-2.1848,-2.1983,-2.2016,-2.1921,-2.1684,-2.1451,-2.118,-2.118,-2.1277,-2.1513,-2.18,-2.2084,-2.2417,-2.2768,-2.3001,-2.3082,-2.3275,-2.3348,-2.3319,-2.3201,-2.3171,-2.3089,-2.2992,-2.294,-2.2992,-2.2872,-2.2879,-2.2939,-2.3407,-2.3763,-0.5064,-0.5185,-0.5158,-0.5171,-0.5421,-0.5726,-0.5887,-0.6214,-0.6588,-0.6761,-0.6815,-0.683,-0.6827,-0.6823,-0.6773,-0.6649,-0.7173,-0.7533,-0.7361,-0.7943,-0.8431,-0.8731,-0.9211,-0.9819,-1.0395,-1.0926,-1.1732,-1.2826,-1.3139,-1.358,-1.4203,-1.4272,-1.4332,-1.4515,-1.451,-1.4561,-1.4711,-1.5083,-1.5836,-1.7011,-1.7479,-1.7816,-1.809,-1.809,-1.8199,-1.8422,-1.8691,-1.9058,-1.9466,-1.9836,-2.0201,-2.0511,-2.0655,-2.0705,-2.0705,-2.0705,-2.0705,-2.0705,-2.0705,-2.0712,-2.0705,-2.0705,-2.0705,-2.0705,-2.0705,-2.0705,-2.0762,-2.0888,-2.0944,-2.0931,-2.0997,-2.1039,-2.1089,-2.1229,-2.1277,-2.1277,-2.1416,-2.165,-2.1848,-2.1841,-2.2177,-2.2417,-2.2463,-2.248,-2.2558,-2.2512,-2.2512,-2.2282,-2.1554,-2.1561,-2.1705,-2.1841,-2.2084,-2.2317,-2.2601,-2.2911,-2.3098,-2.3127,-2.34,-2.3516,-2.3312,-2.3319,-2.3238,-2.3127,-2.2992,-2.2992,-2.3089,-2.2992,-2.2992,-2.3104,-2.3647,-2.4232,-0.2511,-0.2868,-0.3235,-0.3584,-0.3999,-0.4424,-0.4836,-0.5134,-0.5413,-0.5774,-0.5867,-0.5874,-0.5885,-0.586,-0.5864,-0.5926,-0.6085,-0.6336,-0.6811,-0.7355,-0.7827,-0.8258,-0.8805,-0.933,-0.9706,-1.0231,-1.08,-1.1476,-1.2458,-1.3199,-1.3515,-1.4019,-1.4332,-1.4332,-1.4455,-1.4561,-1.4711,-1.5478,-1.6223,-1.7011,-1.7479,-1.7816,-1.809,-1.809,-1.8242,-1.8566,-1.8833,-1.9245,-1.9708,-2.0022,-2.0341,-2.0655,-2.0705,-2.0705,-2.0705,-2.0705,-2.0768,-2.0838,-2.0838,-2.0768,-2.0705,-2.0705,-2.0705,-2.0705,-2.0705,-2.0775,-2.0881,-2.0961,-2.1102,-2.1333,-2.1561,-2.1657,-2.18,-2.1895,-2.2037,-2.2084,-2.213,-2.2256,-2.2328,-2.2473,-2.2709,-2.2949,-2.3046,-2.3083,-2.3076,-2.2942,-2.2942,-2.2754,-2.2282,-2.2242,-2.2328,-2.248,-2.2618,-2.2806,-2.2956,-2.3231,-2.3414,-2.3385,-2.353,-2.3559,-2.3523,-2.34,-2.3275,-2.3238,-2.303,-2.2992,-2.3089,-2.2992,-2.2992,-2.3104,-2.3647,-2.4239,-0.0413,-0.0842,-0.1237,-0.1615,-0.2182,-0.2733,-0.3293,-0.3753,-0.4154,-0.4638,-0.4735,-0.4807,-0.496,-0.4999,-0.5001,-0.5064,-0.5309,-0.5581,-0.6,-0.6647,-0.722,-0.7541,-0.8161,-0.8627,-0.8877,-0.9463,-1.004,-1.0534,-1.1779,-1.265,-1.3139,-1.364,-1.4019,-1.4267,-1.4391,-1.4561,-1.4843,-1.5647,-1.628,-1.6848,-1.7423,-1.7816,-1.8018,-1.8084,-1.8296,-1.8614,-1.8881,-1.9291,-1.9798,-2.0074,-2.0391,-2.0705,-2.0705,-2.0705,-2.0705,-2.0705,-2.0768,-2.0831,-2.0894,-2.0831,-2.0768,-2.0805,-2.0848,-2.0848,-2.0848,-2.0911,-2.1066,-2.1138,-2.1375,-2.1609,-2.1848,-2.199,-2.213,-2.2278,-2.237,-2.2516,-2.2548,-2.2663,-2.2844,-2.3031,-2.3172,-2.3312,-2.3392,-2.3407,-2.3363,-2.3275,-2.3224,-2.3127,-2.2942,-2.2844,-2.2792,-2.2889,-2.2986,-2.3127,-2.3179,-2.3371,-2.3509,-2.3509,-2.3566,-2.361,-2.3574,-2.34,-2.3275,-2.3201,-2.3023,-2.2992,-2.3089,-2.2992,-2.2992,-2.3104,-2.3647,-2.4239,0.1252,0.0895,0.0582,0.0268,-0.0333,-0.1004,-0.1554,-0.2177,-0.2819,-0.3379,-0.3648,-0.3846,-0.4068,-0.4109,-0.4109,-0.4109,-0.4521,-0.495,-0.5152,-0.5977,-0.6611,-0.6749,-0.74,-0.7917,-0.8104,-0.8751,-0.9396,-0.9891,-1.0975,-1.1981,-1.283,-1.3139,-1.358,-1.4272,-1.4272,-1.4506,-1.4975,-1.5594,-1.6104,-1.6627,-1.7312,-1.7761,-1.7903,-1.8024,-1.8296,-1.8614,-1.8881,-1.9291,-1.9798,-2.0074,-2.0391,-2.0705,-2.0705,-2.0705,-2.0655,-2.0655,-2.0655,-2.0705,-2.0825,-2.0888,-2.0931,-2.1003,-2.099,-2.1039,-2.1039,-2.1131,-2.1326,-2.1416,-2.1705,-2.1942,-2.2084,-2.2224,-2.2363,-2.2509,-2.2601,-2.2745,-2.2799,-2.2986,-2.3216,-2.3458,-2.3502,-2.3538,-2.3602,-2.353,-2.3509,-2.3509,-2.3371,-2.3363,-2.3466,-2.3275,-2.3127,-2.3127,-2.3224,-2.3319,-2.3319,-2.3414,-2.3502,-2.3502,-2.3574,-2.3574,-2.3509,-2.3363,-2.3201,-2.3089,-2.2992,-2.2992,-2.3089,-2.2992,-2.2992,-2.3097,-2.3552,-2.4109,0.2324,0.1925,0.1523,0.1209,0.0666,0.0101,-0.0453,-0.1011,-0.1636,-0.2335,-0.2697,-0.296,-0.3131,-0.3152,-0.3152,-0.3152,-0.3484,-0.3872,-0.4301,-0.513,-0.5758,-0.6022,-0.6681,-0.7204,-0.7589,-0.8231,-0.8877,-0.9396,-1.0104,-1.0989,-1.1984,-1.265,-1.3446,-1.4267,-1.4272,-1.4506,-1.4975,-1.5425,-1.5999,-1.6632,-1.7094,-1.754,-1.7903,-1.7903,-1.8182,-1.8614,-1.8881,-1.9291,-1.9798,-2.0074,-2.0391,-2.0705,-2.0705,-2.0612,-2.0511,-2.0511,-2.0549,-2.0616,-2.0766,-2.0977,-2.1138,-2.1039,-2.1089,-2.118,-2.118,-2.1416,-2.1705,-2.1848,-2.2177,-2.2502,-2.267,-2.2844,-2.2994,-2.309,-2.3238,-2.3334,-2.3363,-2.3443,-2.3516,-2.3559,-2.3559,-2.361,-2.3602,-2.353,-2.3509,-2.3509,-2.3371,-2.3363,-2.3466,-2.3363,-2.3319,-2.3414,-2.3363,-2.3319,-2.3458,-2.3509,-2.3538,-2.3566,-2.3538,-2.3502,-2.3509,-2.3253,-2.312,-2.3089,-2.2992,-2.2992,-2.3089,-2.2992,-2.2992,-2.3089,-2.3102,-2.3448,0.295,0.2636,0.2369,0.2148,0.1712,0.1158,0.0554,0.0,-0.0622,-0.1403,-0.1786,-0.2064,-0.2315,-0.2139,-0.2012,-0.2202,-0.2357,-0.2764,-0.3469,-0.4149,-0.4759,-0.5292,-0.5886,-0.6344,-0.6734,-0.7517,-0.8169,-0.8689,-0.946,-1.0351,-1.1303,-1.2401,-1.3325,-1.4019,-1.4079,-1.4313,-1.4725,-1.5069,-1.5531,-1.6114,-1.6751,-1.7211,-1.759,-1.7799,-1.8127,-1.8518,-1.8833,-1.9291,-1.9798,-2.0074,-2.0391,-2.0705,-2.0705,-2.0612,-2.0518,-2.0518,-2.0442,-2.0422,-2.0566,-2.0716,-2.0871,-2.0865,-2.1118,-2.1416,-2.1465,-2.18,-2.213,-2.2278,-2.2601,-2.2866,-2.2986,-2.3083,-2.3224,-2.3275,-2.3414,-2.3502,-2.353,-2.3566,-2.3602,-2.3602,-2.3602,-2.3602,-2.3602,-2.3487,-2.3414,-2.3414,-2.3238,-2.3157,-2.3253,-2.3157,-2.3194,-2.3466,-2.3371,-2.3319,-2.3371,-2.3414,-2.3407,-2.3436,-2.3407,-2.3371,-2.3297,-2.3171,-2.3082,-2.2992,-2.294,-2.294,-2.2992,-2.294,-2.294,-2.2992,-2.294,-2.3235,0.335,0.3146,0.2953,0.2804,0.2488,0.2068,0.1425,0.0804,0.0169,-0.058,-0.0938,-0.1187,-0.1459,-0.1159,-0.0976,-0.122,-0.1377,-0.1786,-0.255,-0.3153,-0.3825,-0.4427,-0.5022,-0.555,-0.5881,-0.6802,-0.7521,-0.8037,-0.9008,-1.0031,-1.1052,-1.222,-1.3082,-1.364,-1.3825,-1.4065,-1.4414,-1.4711,-1.5064,-1.5594,-1.6285,-1.6807,-1.7267,-1.7584,-1.7969,-1.8362,-1.8727,-1.9192,-1.9759,-2.0022,-2.0341,-2.0655,-2.0705,-2.0605,-2.0461,-2.0461,-2.0296,-2.0182,-2.0321,-2.0466,-2.0616,-2.0809,-2.116,-2.1609,-2.1752,-2.2084,-2.247,-2.2654,-2.2956,-2.3179,-2.3209,-2.3304,-2.3348,-2.3348,-2.3443,-2.3538,-2.3602,-2.3602,-2.3602,-2.3602,-2.3602,-2.3602,-2.3602,-2.3443,-2.3319,-2.3319,-2.3112,-2.2992,-2.3082,-2.2992,-2.303,-2.3385,-2.3282,-2.3238,-2.3238,-2.3282,-2.3282,-2.3319,-2.3275,-2.3201,-2.3082,-2.3082,-2.2992,-2.2895,-2.2895,-2.2895,-2.2895,-2.2895,-2.2895,-2.2895,-2.2895,-2.3209,0.3591,0.3309,0.3015,0.2991,0.2781,0.244,0.1943,0.1418,0.0842,0.0225,-0.0173,-0.0413,-0.0414,-0.0414,-0.0296,-0.0177,-0.0546,-0.0989,-0.1421,-0.2206,-0.3021,-0.3555,-0.4223,-0.4892,-0.5427,-0.628,-0.7064,-0.7709,-0.9014,-1.0304,-1.1498,-1.1934,-1.2544,-1.3329,-1.345,-1.3761,-1.4245,-1.4414,-1.4824,-1.541,-1.5816,-1.6327,-1.7016,-1.7267,-1.7656,-1.8144,-1.8512,-1.8934,-1.9473,-1.9881,-2.0201,-2.0511,-2.0655,-2.0498,-2.0233,-2.0233,-2.0137,-2.0035,-2.0328,-2.0466,-2.0666,-2.0878,-2.118,-2.1465,-2.1705,-2.2177,-2.2654,-2.2949,-2.3268,-2.3458,-2.3523,-2.3559,-2.3559,-2.3559,-2.3559,-2.3602,-2.3602,-2.3602,-2.3602,-2.3602,-2.3602,-2.3602,-2.3602,-2.353,-2.3458,-2.3319,-2.3164,-2.3082,-2.3089,-2.2992,-2.294,-2.3127,-2.303,-2.2985,-2.3127,-2.3127,-2.3157,-2.3275,-2.3209,-2.3127,-2.3089,-2.2992,-2.2895,-2.2895,-2.2895,-2.2895,-2.2895,-2.2895,-2.2895,-2.2895,-2.2895,-2.3022,0.3775,0.3674,0.3546,0.3282,0.3186,0.2924,0.2278,0.1747,0.1232,0.0617,0.0283,0.0114,0.0,0.0172,0.0286,0.0229,0.006,-0.0247,-0.08,-0.1296,-0.1813,-0.2549,-0.3153,-0.3755,-0.4486,-0.5282,-0.634,-0.7782,-0.8756,-0.9651,-1.0342,-1.1265,-1.2116,-1.2785,-1.2977,-1.3277,-1.3756,-1.3872,-1.4227,-1.4883,-1.5289,-1.5811,-1.6446,-1.6909,-1.7362,-1.775,-1.823,-1.8721,-1.9204,-1.9565,-1.9933,-2.0201,-2.0341,-2.029,-2.0086,-2.0086,-1.9978,-1.992,-2.0074,-2.0277,-2.0516,-2.0766,-2.1166,-2.1561,-2.1848,-2.2231,-2.2699,-2.309,-2.3363,-2.3502,-2.3559,-2.3602,-2.3602,-2.3602,-2.3602,-2.3602,-2.3602,-2.3566,-2.3538,-2.3538,-2.3487,-2.3436,-2.3436,-2.3327,-2.3253,-2.3209,-2.3082,-2.2992,-2.2992,-2.294,-2.294,-2.2992,-2.294,-2.294,-2.2992,-2.2992,-2.2985,-2.3068,-2.303,-2.2992,-2.2992,-2.294,-2.2895,-2.2895,-2.2895,-2.2895,-2.2895,-2.2895,-2.294,-2.3037,-2.3037,-2.3075,0.3857,0.3822,0.3809,0.3506,0.3377,0.3144,0.2533,0.2036,0.1511,0.1009,0.0729,0.0505,0.0449,0.0617,0.0731,0.0568,0.0537,0.0309,-0.0125,-0.0391,-0.0806,-0.1476,-0.2014,-0.2684,-0.3482,-0.4548,-0.5877,-0.7657,-0.8302,-0.8883,-0.9377,-1.034,-1.1207,-1.1869,-1.2178,-1.2537,-1.3,-1.3063,-1.3469,-1.4173,-1.4632,-1.5278,-1.5999,-1.6565,-1.7027,-1.7479,-1.7909,-1.8398,-1.8934,-1.9356,-1.972,-1.9978,-2.0131,-2.0137,-1.999,-1.999,-1.9926,-1.9798,-1.9978,-2.0182,-2.0372,-2.0723,-2.1124,-2.1561,-2.1895,-2.231,-2.2776,-2.3179,-2.3407,-2.3538,-2.3566,-2.3566,-2.3566,-2.3566,-2.3566,-2.3566,-2.3566,-2.3538,-2.3509,-2.3458,-2.3363,-2.3319,-2.3319,-2.3201,-2.3171,-2.3134,-2.3037,-2.294,-2.2895,-2.2895,-2.2895,-2.2895,-2.2895,-2.2895,-2.2895,-2.2895,-2.2895,-2.2895,-2.2895,-2.2895,-2.2895,-2.2895,-2.2895,-2.2895,-2.2895,-2.2895,-2.2895,-2.294,-2.2992,-2.3089,-2.3127,-2.3246,0.3815,0.3721,0.3607,0.3581,0.3346,0.3055,0.2778,0.2238,0.1679,0.1346,0.1066,0.0897,0.0897,0.0897,0.0907,0.0879,0.0787,0.0748,0.0769,0.033,-0.0067,-0.0269,-0.1076,-0.1814,-0.2349,-0.4146,-0.5807,-0.7134,-0.7638,-0.8196,-0.8889,-0.9185,-0.9673,-1.0526,-1.0937,-1.1338,-1.1792,-1.2072,-1.2642,-1.3407,-1.3912,-1.4644,-1.5594,-1.6139,-1.6715,-1.7334,-1.7601,-1.803,-1.8673,-1.9204,-1.9565,-1.9856,-2.0074,-2.0137,-1.999,-1.999,-1.9926,-1.9856,-2.0125,-2.0182,-2.0283,-2.0732,-2.1017,-2.1277,-2.1848,-2.2441,-2.2942,-2.3224,-2.3436,-2.3559,-2.3502,-2.3509,-2.3509,-2.3509,-2.3509,-2.3509,-2.3509,-2.3509,-2.3458,-2.3319,-2.3319,-2.3319,-2.3319,-2.3319,-2.3238,-2.3127,-2.3089,-2.3037,-2.294,-2.2895,-2.2895,-2.2895,-2.2895,-2.2895,-2.2895,-2.2895,-2.2895,-2.2895,-2.2895,-2.2895,-2.2895,-2.2895,-2.2895,-2.2895,-2.2895,-2.2895,-2.2895,-2.3037,-2.3089,-2.3089,-2.3246,-2.3363,0.3636,0.3698,0.3723,0.3627,0.3464,0.3203,0.2795,0.2239,0.1679,0.1346,0.1066,0.0897,0.0897,0.0914,0.0932,0.1059,0.1108,0.1148,0.1157,0.099,0.0739,0.0269,-0.0739,-0.168,-0.235,-0.375,-0.4974,-0.5841,-0.673,-0.7384,-0.7735,-0.8109,-0.889,-1.0132,-1.0476,-1.0876,-1.1439,-1.1712,-1.2161,-1.2737,-1.3562,-1.4279,-1.4934,-1.5805,-1.6405,-1.6864,-1.7267,-1.7656,-1.803,-1.8685,-1.9146,-1.9442,-1.9805,-1.9914,-1.9862,-1.9862,-1.9862,-1.9856,-2.0125,-2.0277,-2.0422,-2.0947,-2.1284,-2.1561,-2.199,-2.241,-2.2783,-2.3282,-2.353,-2.3559,-2.3502,-2.3509,-2.3466,-2.3371,-2.3363,-2.3363,-2.3363,-2.329,-2.3209,-2.3164,-2.3068,-2.3023,-2.3023,-2.3023,-2.3023,-2.2992,-2.294,-2.294,-2.2895,-2.2895,-2.2895,-2.2895,-2.2895,-2.2895,-2.2895,-2.2895,-2.2895,-2.2895,-2.2895,-2.2895,-2.2895,-2.2895,-2.2895,-2.2895,-2.2895,-2.2895,-2.2895,-2.3037,-2.3209,-2.3385,-2.3443,-2.3523,0.3217,0.3467,0.3615,0.3543,0.3416,0.319,0.2801,0.2296,0.1792,0.1459,0.1235,0.1066,0.1066,0.1095,0.1125,0.1318,0.1375,0.1422,0.1504,0.1463,0.121,0.0605,-0.0269,-0.1209,-0.2149,-0.3122,-0.4121,-0.4941,-0.5823,-0.6495,-0.6994,-0.741,-0.816,-0.9177,-0.9562,-1.0055,-1.0606,-1.0934,-1.1438,-1.2024,-1.2917,-1.3802,-1.4561,-1.5394,-1.6069,-1.6632,-1.7032,-1.7368,0.0,-1.841,-1.8881,-1.9186,-1.9552,-1.9753,-1.9805,-1.9805,-1.9805,-1.9856,-2.0029,-2.0182,-2.0328,-2.0779,-2.1173,-2.1609,-2.2037,-2.2456,-2.2821,-2.3275,-2.3443,-2.3487,-2.3378,-2.3341,-2.3341,-2.3238,-2.3238,-2.3238,-2.3238,-2.3164,-2.3082,-2.3037,-2.294,-2.2895,-2.2895,-2.2895,-2.2895,-2.2895,-2.2895,-2.2895,-2.2895,-2.2895,-2.2895,-2.2895,-2.2895,-2.2902,-2.2864,-2.2902,-2.2895,-2.2895,-2.2895,-2.2895,-2.2895,-2.2895,-2.2895,-2.2895,-2.2895,-2.294,-2.2992,-2.3164,-2.3334,-2.3538,-2.3566,-2.3602,0.0,0.3076,0.3359,0.3357,0.3244,0.302,0.2746,0.2352,0.0,0.1628,0.1459,0.1291,0.1291,0.1387,0.1434,0.1537,0.1584,0.1697,0.1877,0.1746,0.1341,0.067,0.0268,-0.0468,-0.1672,-0.2348,-0.3202,-0.4405,-0.4956,-0.5649,-0.6554,-0.7044,-0.7422,-0.7848,-0.8415,-0.8935,-0.9364,-0.9884,-1.0569,-1.1329,-1.2132,-1.3111,-1.4293,-1.4968,-1.5731,-1.6523,-1.6832,-1.7184,-1.7523,-1.823,-1.8727,-1.8987,-1.9408,-1.9656,-1.9753,-1.9805,-1.9805,-1.9805,-1.9926,-1.999,-2.0035,-2.0328,-2.0822,-2.1465,-2.199,-2.2495,-2.2934,-2.3224,-2.3268,-2.3231,-2.312,-2.3082,-2.3082,-2.3082,-2.3037,-2.3037,-2.3037,-2.3082,-2.3045,-2.2895,-2.2902,-2.2902,-2.2895,-2.2895,-2.2895,-2.2895,-2.2895,-2.2895,-2.2895,-2.2895,-2.2895,-2.2895,-2.2895,-2.2864,-2.2795,-2.2864,-2.2902,-2.2895,-2.2895,-2.2895,-2.2895,-2.2902,-2.2895,-2.2895,-2.2895,-2.2992,-2.3127,-2.3334,-2.3494,-2.3595,-2.3595,-2.3559,0.2128,0.0,0.2912,0.3132,0.3079,0.2858,0.0,0.224,0.1904,0.1628,0.1459,0.1291,0.1291,0.147,0.1712,0.1848,0.2063,0.2205,0.2286,0.1981,0.1562,0.1171,0.0638,0.0,-0.0756,-0.1564,-0.2403,-0.3306,-0.4134,-0.4975,-0.5801,-0.6462,-0.7036,-0.7422,-0.7895,-0.8424,-0.9113,-0.9618,-1.0181,-1.0697,-1.1844,-1.2654,-1.3288,-1.4582,-1.5391,-1.5796,-1.6418,-1.6853,-1.7179,-1.7695,-1.8133,-1.85,-1.8981,-1.9309,-1.9512,-1.961,-1.9708,-1.9805,-1.9926,-1.999,-2.0035,-2.0328,-2.0666,-2.1006,-2.1313,-2.203,-2.2737,-2.2942,-2.2986,-2.2942,-2.2852,-2.2806,-2.2768,-2.2745,-2.2706,-2.2706,-2.2706,-2.2819,-2.2833,-2.2706,-2.2773,-2.2781,-2.2706,-2.2654,-2.2654,-2.2654,-2.2654,-2.2654,-2.2654,-2.2654,-2.2654,-2.2654,-2.2654,-2.2608,-2.2477,-2.2689,-2.2781,-2.2661,-2.2654,-2.2654,-2.2654,-2.2781,-2.2833,-2.2833,-2.2857,-2.303,-2.3238,-2.3209,-2.3297,-2.3502,-2.3407,-2.3356,0.1904,0.2296,0.2633,0.2798,0.2745,0.2634,0.2409,0.2183,0.196,0.174,0.1628,0.1571,0.1626,0.181,0.2051,0.2233,0.2448,0.2587,0.2525,0.2234,0.1894,0.1388,0.0934,0.0308,-0.0432,-0.1158,-0.1978,-0.2767,-0.3645,-0.4487,-0.5238,-0.6107,-0.6709,-0.7098,-0.7577,-0.8159,-0.8791,-0.9305,-0.9777,-1.0261,-1.1267,-1.2077,-1.2733,-1.3816,-1.4681,-1.5416,-1.5939,-1.6437,-1.6848,-1.7418,-1.775,-1.8073,-1.8614,-1.8987,-1.9257,-1.9466,-1.961,-1.9708,-1.9869,-1.9926,-1.992,-2.0125,-2.0372,-2.056,-2.0822,-2.1299,-2.1867,-2.2296,-2.2395,-2.2395,-2.2296,-2.2342,-2.2349,-2.2317,-2.237,-2.2417,-2.2417,-2.253,-2.2583,-2.2417,-2.2523,-2.2583,-2.2424,-2.2417,-2.2417,-2.2417,-2.237,-2.2324,-2.2324,-2.2278,-2.2231,-2.2231,-2.2231,-2.2177,-2.2037,-2.2152,-2.2299,-2.2417,-2.2417,-2.2417,-2.2417,-2.2537,-2.2644,-2.2689,-2.279,-2.2866,-2.3031,-2.3001,-2.3098,-2.3224,-2.3224,-2.3224,0.1847,0.2183,0.2409,0.2465,0.2521,0.2465,0.2296,0.2183,0.2017,0.1908,0.1852,0.1908,0.2016,0.2244,0.2413,0.259,0.2778,0.2831,0.2652,0.2518,0.2143,0.1529,0.1157,0.0607,-0.0304,-0.0951,-0.1637,-0.2455,-0.3238,-0.4016,-0.4732,-0.5721,-0.6438,-0.6825,-0.73,-0.7883,-0.8471,-0.8945,-0.942,-0.9895,-1.0663,-1.1486,-1.2317,-1.2955,-1.3878,-1.5129,-1.5485,-1.5995,-1.6632,-1.7134,-1.7473,-1.7706,-1.8242,-1.8614,-1.8987,-1.9257,-1.9466,-1.961,-1.9753,-1.9805,-1.9805,-1.9926,-2.0035,-2.0175,-2.0416,-2.061,-2.0802,-2.1403,-2.1602,-2.1698,-2.1698,-2.1746,-2.1841,-2.1841,-2.1935,-2.2037,-2.2037,-2.2177,-2.2231,-2.2084,-2.2177,-2.2231,-2.2084,-2.2084,-2.2084,-2.2084,-2.199,-2.1895,-2.1895,-2.18,-2.1752,-2.1752,-2.1752,-2.1657,-2.1561,-2.1513,-2.1657,-2.1983,-2.203,-2.213,-2.2177,-2.2324,-2.2417,-2.2562,-2.2632,-2.2656,-2.2656,-2.2754,-2.2799,-2.2852,-2.2904,-2.2942,0.1847,0.2015,0.2128,0.2409,0.2578,0.2634,0.2465,0.2464,0.2353,0.2184,0.2129,0.2128,0.2183,0.2475,0.2709,0.2768,0.2838,0.2892,0.2831,0.253,0.2192,0.1836,0.1389,0.0797,0.0171,-0.0567,-0.1299,-0.203,-0.2804,-0.3518,-0.4288,-0.506,-0.5775,-0.6438,-0.682,-0.7362,-0.8005,-0.8573,-0.9093,-0.9521,-1.0194,-1.0836,-1.1518,-1.2409,-1.3294,-1.4214,-1.5014,-1.5772,-1.6431,-1.6637,-1.6976,-1.7384,-1.759,-1.8073,-1.8667,-1.894,-1.9303,-1.961,-1.9753,-1.9805,-1.9805,-1.9805,-1.9856,-1.9914,-2.0035,-2.0137,-2.0182,-2.0378,-2.0759,-2.114,-2.114,-2.114,-2.114,-2.114,-2.1257,-2.1375,-2.1375,-2.1561,-2.1657,-2.1561,-2.1609,-2.1657,-2.1561,-2.1513,-2.1513,-2.1513,-2.1513,-2.1465,-2.1465,-2.1465,-2.1465,-2.1465,-2.1465,-2.1416,-2.1277,-2.118,-2.1075,-2.0999,-2.1354,-2.1657,-2.2037,-2.2177,-2.2278,-2.2417,-2.2463,-2.2463,-2.2463,-2.2363,-2.2363,-2.2456,-2.2363,-2.2317,0.2006,0.2183,0.2352,0.2577,0.2521,0.2409,0.2352,0.2352,0.2296,0.2239,0.2272,0.2346,0.2474,0.2704,0.2982,0.3219,0.3189,0.316,0.316,0.2834,0.2465,0.212,0.1639,0.1064,0.028,-0.028,-0.0953,-0.1738,-0.2408,-0.3074,-0.3846,-0.4563,-0.5332,-0.605,-0.6485,-0.7033,-0.7583,-0.8052,-0.8629,-0.9211,-0.9777,-1.0395,-1.0977,-1.1703,-1.2567,-1.3451,-1.4253,-1.5074,-1.5843,-1.6317,-1.6705,-1.7043,-1.7318,-1.775,-1.8284,-1.8875,-1.9297,-1.961,-1.9753,-1.9805,-1.9805,-1.9805,-1.9805,-1.9798,-1.9862,-1.9869,-1.9914,-1.9965,-2.0264,-2.056,-2.056,-2.061,-2.066,-2.066,-2.0766,-2.0871,-2.0871,-2.1013,-2.1111,-2.1013,-2.1062,-2.1111,-2.0963,-2.097,-2.097,-2.097,-2.097,-2.1013,-2.1062,-2.1089,-2.1109,-2.1109,-2.1109,-2.1059,-2.0941,-2.0799,-2.0742,-2.0703,-2.0908,-2.1209,-2.1554,-2.1705,-2.1848,-2.2084,-2.199,-2.199,-2.199,-2.1895,-2.1895,-2.199,-2.2037,-2.213,0.2109,0.2409,0.2578,0.2746,0.2577,0.2353,0.2407,0.2407,0.2407,0.2407,0.2514,0.2597,0.2758,0.2972,0.3226,0.3542,0.3471,0.3413,0.3413,0.3136,0.2801,0.2353,0.1958,0.1343,0.0448,-0.0056,-0.0673,-0.1459,-0.2074,-0.2741,-0.3461,-0.4177,-0.4895,-0.5611,-0.6154,-0.665,-0.7206,-0.7583,-0.8162,-0.89,-0.9409,-0.998,-1.0565,-1.112,-1.1826,-1.2738,-1.3427,-1.4292,-1.5195,-1.5833,-1.6378,-1.6756,-1.7049,-1.754,-1.8116,-1.8916,-1.9396,-1.961,-1.9753,-1.9805,-1.9805,-1.9805,-1.9805,-1.9805,-1.9805,-1.9805,-1.9805,-1.9805,-1.9965,-2.0125,-2.0125,-2.0169,-2.0271,-2.0271,-2.0365,-2.0466,-2.0466,-2.056,-2.061,-2.0516,-2.061,-2.061,-2.0516,-2.0516,-2.0516,-2.0516,-2.0573,-2.0623,-2.0752,-2.0861,-2.0894,-2.0894,-2.0894,-2.0831,-2.0662,-2.0511,-2.0448,-2.0472,-2.061,-2.0865,-2.118,-2.1326,-2.1513,-2.1752,-2.1609,-2.1561,-2.1513,-2.1465,-2.1465,-2.1465,-2.1705,-2.1848,0.2277,0.2578,0.2746,0.302,0.2968,0.2858,0.302,0.302,0.302,0.302,0.3026,0.3028,0.3077,0.325,0.3423,0.3585,0.3471,0.3413,0.3413,0.3244,0.2965,0.269,0.224,0.168,0.0897,0.0224,-0.0505,-0.1291,-0.1906,-0.2463,-0.313,-0.3742,-0.4406,-0.5124,-0.5614,-0.6213,-0.6933,-0.7206,-0.7788,-0.8626,-0.905,-0.9524,-1.0051,-1.0667,-1.1374,-1.2193,-1.2747,-1.3637,-1.4673,-1.5205,-1.5853,-1.6637,-1.6756,-1.7412,-1.8333,-1.8969,-1.9396,-1.961,-1.9753,-1.9805,-1.9805,-1.9805,-1.9805,-1.9805,-1.9805,-1.9805,-1.9805,-1.9805,-1.9798,-1.9856,-1.9856,-1.9856,-1.985,-1.985,-1.9971,-2.0035,-2.0035,-2.0131,-2.0226,-2.0226,-2.0226,-2.0226,-2.0226,-2.0226,-2.0226,-2.0226,-2.0398,-2.0549,-2.0616,-2.0762,-2.0894,-2.0894,-2.0894,-2.0788,-2.0518,-2.0347,-2.0182,-2.0035,-2.0277,-2.0673,-2.118,-2.1326,-2.1465,-2.1609,-2.1465,-2.1375,-2.1229,-2.1089,-2.1039,-2.1039,-2.118,-2.1277,0.243,0.2747,0.2914,0.319,0.3246,0.3192,0.3132,0.3074,0.3074,0.3074,0.3184,0.3231,0.3347,0.3462,0.3527,0.3584,0.3583,0.3527,0.3527,0.3413,0.3189,0.2965,0.2575,0.2015,0.1232,0.056,-0.0112,-0.0897,-0.1458,-0.2073,-0.2688,-0.3301,-0.3965,-0.4684,-0.5226,-0.583,-0.6601,-0.6879,-0.7416,-0.8159,-0.8679,-0.9204,-0.9629,-1.0198,-1.0839,-1.1494,-1.2139,-1.2837,-1.3593,-1.4505,-1.527,-1.6015,-1.6818,-1.7368,-1.7848,-1.8435,-1.8821,-1.9158,-1.9466,-1.961,-1.9708,-1.9753,-1.9805,-1.9805,-1.9805,-1.9805,-1.9805,-1.9805,-1.9805,-1.9805,-1.9805,-1.9805,-1.9805,-1.9805,-1.9862,-1.9869,-1.9869,-1.9914,-1.9965,-1.9965,-1.9965,-1.9965,-1.9965,-1.9965,-1.9965,-1.9965,-2.0086,-2.0246,-2.0328,-2.0485,-2.0599,-2.0599,-2.0498,-2.0404,-2.0201,-2.0144,-2.0035,-1.999,-2.0182,-2.0378,-2.0679,-2.0954,-2.1151,-2.1235,-2.1151,-2.1066,-2.1023,-2.0974,-2.0924,-2.0924,-2.1144,-2.1229,0.2537,0.2913,0.3137,0.3526,0.361,0.3637,0.3465,0.3324,0.3254,0.3287,0.3385,0.3416,0.3532,0.3582,0.3584,0.3584,0.3584,0.3584,0.3584,0.3527,0.3413,0.3244,0.2854,0.235,0.1566,0.0952,0.0336,-0.0449,-0.1066,-0.1626,-0.224,-0.2856,-0.3523,-0.4184,-0.4732,-0.5391,-0.605,-0.649,-0.698,-0.7577,-0.82,-0.8725,-0.9316,-0.9829,-1.0348,-1.0828,-1.1486,-1.213,-1.2704,-1.3643,-1.4562,-1.5401,-1.6529,-1.7093,-1.7361,-1.795,-1.8398,-1.8792,-1.9105,-1.9309,-1.9506,-1.9656,-1.9708,-1.9753,-1.9805,-1.9805,-1.9805,-1.9805,-1.9805,-1.9805,-1.9805,-1.9805,-1.9805,-1.9805,-1.9805,-1.9805,-1.9805,-1.9805,-1.9805,-1.9805,-1.9805,-1.9805,-1.9805,-1.9805,-1.9805,-1.9805,-1.992,-2.0035,-2.0182,-2.0328,-2.0422,-2.0422,-2.0277,-2.0182,-2.0086,-2.0042,-1.999,-1.999,-2.0086,-2.0233,-2.0372,-2.0605,-2.0755,-2.0885,-2.0812,-2.0719,-2.0719,-2.0775,-2.0782,-2.0788,-2.0997,-2.118,0.2659,0.3131,0.3524,0.3912,0.4126,0.4229,0.423,0.3899,0.3618,0.3787,0.3718,0.3584,0.3584,0.3584,0.3584,0.3584,0.3584,0.3584,0.3584,0.3584,0.3527,0.3414,0.3131,0.2684,0.207,0.1457,0.0785,0.0056,-0.0561,-0.1177,-0.1734,-0.2353,-0.2967,-0.3572,-0.4184,-0.4736,-0.5279,-0.588,-0.6431,-0.6879,-0.7461,-0.815,-0.9008,-0.9562,-0.9928,-1.0253,-1.0816,-1.1482,-1.2132,-1.2663,-1.3641,-1.4876,-1.5828,-1.6428,-1.6899,-1.7602,-1.817,-1.8619,-1.8738,-1.8993,-1.9239,-1.9362,-1.9466,-1.961,-1.9753,-1.9805,-1.9805,-1.9805,-1.9805,-1.9805,-1.9805,-1.9805,-1.9805,-1.9805,-1.9805,-1.9805,-1.9805,-1.9805,-1.9805,-1.9805,-1.9805,-1.9805,-1.9805,-1.9805,-1.9805,-1.9805,-1.992,-2.0035,-2.0182,-2.0328,-2.0365,-2.0365,-2.0277,-2.0182,-2.0182,-2.008,-1.999,-1.999,-1.999,-2.0137,-2.0372,-2.0422,-2.0466,-2.061,-2.0466,-2.0422,-2.0422,-2.0448,-2.0518,-2.0511,-2.0848,-2.099,0.2658,0.3188,0.3637,0.3913,0.4126,0.4252,0.4342,0.4083,0.3865,0.37,0.3608,0.3584,0.3584,0.3584,0.3584,0.3584,0.3584,0.3584,0.3584,0.3584,0.3584,0.3527,0.3357,0.3078,0.252,0.196,0.1344,0.0673,0.0,-0.0617,-0.1121,-0.1848,-0.2407,-0.2797,-0.3518,-0.4125,-0.4736,-0.5175,-0.578,-0.6549,-0.7028,-0.7726,-0.8583,-0.9152,-0.9625,-1.0102,-1.0616,-1.1082,-1.1609,-1.2497,-1.3437,-1.432,-1.4983,-1.5556,-1.6067,-1.6569,-1.7213,-1.7854,-1.8073,-1.8452,-1.8821,-1.8946,-1.9152,-1.9344,-1.939,-1.9448,-1.9565,-1.961,-1.9656,-1.9656,-1.9805,-1.9805,-1.9805,-1.9805,-1.9805,-1.9805,-1.9805,-1.9805,-1.9805,-1.9805,-1.9805,-1.9805,-1.9805,-1.9805,-1.9805,-1.9805,-1.9856,-1.9862,-1.9914,-1.9959,-1.9959,-1.9959,-1.9959,-1.9907,-1.9907,-1.9862,-1.9862,-1.9862,-1.9862,-1.992,-2.0137,-2.0233,-2.0277,-2.0328,-2.0277,-2.0277,-2.0277,-2.0283,-2.0347,-2.0518,-2.0636,-2.0792,0.2724,0.3298,0.3759,0.4202,0.4379,0.4521,0.4598,0.4339,0.4017,0.3726,0.3638,0.3584,0.3584,0.3584,0.3584,0.3584,0.3584,0.3584,0.3584,0.3584,0.3584,0.3584,0.347,0.3246,0.2912,0.2407,0.1847,0.1289,0.0616,0.0,-0.0505,-0.112,-0.168,-0.2127,-0.2738,-0.3294,-0.385,-0.4406,-0.5011,-0.5719,-0.6317,-0.6969,-0.772,-0.8573,-0.9208,-0.9736,-1.0407,-1.0922,-1.1339,-1.2125,-1.2833,-1.345,-1.4069,-1.4617,-1.5236,-1.5897,-1.6531,-1.7087,-1.7446,-1.7848,-1.8242,-1.841,-1.8608,-1.8869,-1.8922,-1.904,-1.9158,-1.9257,-1.9356,-1.9448,-1.9546,-1.9604,-1.9656,-1.9753,-1.9805,-1.9805,-1.9805,-1.9805,-1.9805,-1.9805,-1.9805,-1.9805,-1.9805,-1.9805,-1.9805,-1.9805,-1.9805,-1.9805,-1.9805,-1.9805,-1.9805,-1.9805,-1.9805,-1.9805,-1.9805,-1.9805,-1.9805,-1.9805,-1.9805,-1.9862,-1.9926,-2.0022,-2.0016,-2.0016,-2.0016,-2.0016,-2.0016,-2.0074,-2.0188,-2.0398,-2.0523,-2.0692,0.2795,0.3408,0.3938,0.4536,0.4816,0.4909,0.4905,0.4581,0.4174,0.3866,0.3698,0.3638,0.3638,0.3584,0.3584,0.3584,0.3584,0.3584,0.3584,0.3638,0.3638,0.3638,0.3526,0.3356,0.3187,0.2799,0.2352,0.1903,0.1289,0.0728,0.0112,-0.0336,-0.0895,-0.1448,-0.1844,-0.2294,-0.2794,-0.3519,-0.4127,-0.4617,-0.5332,-0.5989,-0.6532,-0.7874,-0.8784,-0.9312,-1.0249,-1.0871,-1.1272,-1.1573,-1.1972,-1.2508,-1.3166,-1.3746,-1.4352,-1.5389,-1.5956,-1.6294,-1.6734,-1.718,-1.7584,-1.7726,-1.7904,-1.8145,-1.8365,-1.8555,-1.8685,-1.8727,-1.8934,-1.9127,-1.9127,-1.9251,-1.9414,-1.965,-1.9753,-1.9753,-1.9753,-1.9753,-1.9805,-1.9805,-1.9805,-1.9805,-1.9805,-1.9805,-1.9805,-1.9805,-1.9805,-1.9805,-1.9805,-1.9805,-1.9805,-1.9805,-1.9805,-1.9805,-1.9805,-1.9805,-1.9805,-1.9805,-1.9805,-1.9805,-1.9805,-1.9805,-1.9805,-1.9805,-1.9805,-1.9805,-1.9805,-1.9926,-2.0035,-2.0233,-2.0466,-2.0692,0.2682,0.3351,0.3938,0.4536,0.4889,0.5003,0.4922,0.4756,0.4502,0.4158,0.3926,0.3742,0.3742,0.3691,0.3584,0.3584,0.3584,0.3584,0.3584,0.369,0.3742,0.3742,0.3742,0.3633,0.3526,0.3188,0.2797,0.2409,0.1903,0.1328,0.0755,0.0276,-0.0166,-0.0592,-0.0995,-0.14,-0.19,-0.2513,-0.318,-0.3847,-0.4562,-0.5166,-0.5605,-0.7176,-0.8461,-0.9566,-1.0095,-1.0561,-1.1023,-1.1272,-1.1623,-1.2081,-1.252,-1.3193,-1.3856,-1.4307,-1.5143,-1.5991,-1.6097,-1.6342,-1.6613,-1.6607,-1.6616,-1.6643,-1.7036,-1.7361,-1.7658,-1.8103,-1.8381,-1.8548,-1.8715,-1.8774,-1.8774,-1.8821,-1.9192,-1.9466,-1.9466,-1.9565,-1.9662,-1.9662,-1.9753,-1.9805,-1.9805,-1.9805,-1.9805,-1.9805,-1.9805,-1.9805,-1.9805,-1.9805,-1.9805,-1.9805,-1.9805,-1.9753,-1.9656,-1.9662,-1.9662,-1.9662,-1.9662,-1.9708,-1.9805,-1.9805,-1.9805,-1.9805,-1.9805,-1.9805,-1.9805,-1.9811,-1.9965,-2.0182,-2.0277,-2.0435,0.2293,0.3074,0.3788,0.4507,0.4957,0.5201,0.5055,0.4964,0.4867,0.4663,0.4229,0.3853,0.3796,0.3744,0.369,0.369,0.369,0.3691,0.3803,0.3913,0.3967,0.3967,0.3967,0.3912,0.3803,0.3467,0.3076,0.2741,0.2205,0.1735,0.1226,0.0907,0.0529,0.0104,-0.0161,-0.0547,-0.0983,-0.1607,-0.2233,-0.2847,-0.3569,-0.4396,-0.5275,-0.6797,-0.8084,-0.903,-0.9566,-1.0091,-1.0612,-1.0968,-1.1326,-1.1728,-1.2175,-1.2702,-1.3258,-1.3761,-1.4389,-1.5086,-1.5309,-1.5542,-1.5796,-1.5796,-1.5787,-1.5834,-1.6324,-1.662,-1.6874,-1.7417,-1.7727,-1.7958,-1.8073,-1.8121,-1.817,-1.817,-1.8602,-1.9046,-1.9111,-1.9158,-1.9251,-1.9396,-1.9442,-1.9546,-1.961,-1.961,-1.961,-1.961,-1.961,-1.961,-1.961,-1.961,-1.961,-1.961,-1.9552,-1.9494,-1.9396,-1.935,-1.9303,-1.9303,-1.935,-1.9448,-1.9488,-1.9552,-1.9662,-1.9708,-1.9708,-1.9656,-1.961,-1.961,-1.9766,-2.0016,-2.008,-2.029,0.1846,0.2764,0.369,0.4491,0.5011,0.5315,0.5133,0.5059,0.5099,0.5089,0.4604,0.4132,0.4018,0.3962,0.3962,0.3907,0.3907,0.3962,0.4078,0.4245,0.4302,0.4359,0.4359,0.4245,0.4133,0.3745,0.3356,0.3018,0.2492,0.2069,0.1637,0.1488,0.1207,0.0699,0.0569,0.0317,-0.0106,-0.0759,-0.1319,-0.176,-0.2583,-0.3627,-0.4845,-0.6196,-0.7292,-0.8237,-0.8876,-0.9514,-1.0039,-1.0553,-1.1019,-1.1477,-1.1828,-1.2229,-1.2665,-1.3292,-1.3721,-1.4048,-1.447,-1.4805,-1.5002,-1.5059,-1.5116,-1.5314,-1.5786,-1.6079,-1.6337,-1.6815,-1.7128,-1.7362,-1.7362,-1.7457,-1.7556,-1.7556,-1.7952,-1.8338,-1.8577,-1.8685,-1.8727,-1.8975,-1.9075,-1.9133,-1.9257,-1.9257,-1.9257,-1.9257,-1.9257,-1.9257,-1.9257,-1.9257,-1.9263,-1.9263,-1.9198,-1.9133,-1.9133,-1.904,-1.8993,-1.8993,-1.9087,-1.9186,-1.918,-1.9309,-1.9414,-1.9512,-1.9512,-1.946,-1.9316,-1.9316,-1.946,-1.9753,-1.9926,-2.0201,0.1397,0.2797,0.4018,0.4599,0.4944,0.5086,0.4947,0.4989,0.5067,0.494,0.486,0.4789,0.4734,0.4682,0.452,0.4406,0.4406,0.4463,0.4577,0.4737,0.4847,0.4961,0.4903,0.4737,0.4634,0.4189,0.3745,0.3357,0.2929,0.2519,0.2135,0.1922,0.174,0.1538,0.1396,0.1067,0.0559,0.0153,-0.0358,-0.0869,-0.1891,-0.2803,-0.3579,-0.4367,-0.5661,-0.7295,-0.7975,-0.8656,-0.9388,-0.9913,-1.0545,-1.1171,-1.1477,-1.1828,-1.2229,-1.2537,-1.3069,-1.3629,-1.3902,-1.4129,-1.4286,-1.4392,-1.4442,-1.453,-1.4997,-1.5509,-1.6076,-1.6495,-1.6751,-1.6864,-1.6864,-1.6925,-1.692,-1.692,-1.6976,-1.7195,-1.7903,-1.811,-1.8213,-1.8381,-1.8548,-1.8667,-1.8721,-1.8721,-1.8721,-1.8721,-1.8721,-1.8721,-1.8721,-1.8721,-1.8727,-1.8851,-1.8845,-1.8845,-1.8845,-1.8851,-1.8851,-1.8851,-1.8946,-1.9087,-1.918,-1.9309,-1.9309,-1.9093,-1.9093,-1.9093,-1.9046,-1.9046,-1.9251,-1.961,-1.9881,-2.0201,0.1342,0.2581,0.3567,0.4055,0.4562,0.4909,0.4903,0.5227,0.5502,0.5398,0.5657,0.5733,0.5138,0.5011,0.5013,0.4849,0.4849,0.4903,0.5011,0.5177,0.5287,0.5399,0.5344,0.5179,0.4963,0.4519,0.4132,0.3745,0.3246,0.2816,0.2622,0.2372,0.2157,0.1937,0.1821,0.1564,0.1074,0.0649,0.005,-0.0706,-0.1461,-0.2184,-0.2732,-0.3293,-0.444,-0.6152,-0.6904,-0.7706,-0.8498,-0.918,-0.9814,-1.0442,-1.0863,-1.1272,-1.1573,-1.1927,-1.2381,-1.2881,-1.3135,-1.3338,-1.353,-1.3618,-1.3716,-1.39,-1.4363,-1.4744,-1.5159,-1.5883,-1.6147,-1.6266,-1.6528,-1.6602,-1.6602,-1.6602,-1.6602,-1.6705,-1.7078,-1.734,-1.7556,-1.7788,-1.8007,-1.8116,-1.8116,-1.8116,-1.8116,-1.8116,-1.8116,-1.8116,-1.8116,-1.8116,-1.817,-1.829,-1.8247,-1.8199,-1.8296,-1.8253,-1.8199,-1.8199,-1.8356,-1.8512,-1.856,-1.8827,-1.8833,-1.8512,-1.8732,-1.8839,-1.878,-1.878,-1.8981,-1.9396,-1.9662,-1.9984,0.123,0.2158,0.2925,0.3558,0.4156,0.462,0.4845,0.5392,0.5802,0.581,0.6301,0.6516,0.565,0.5611,0.5609,0.5395,0.5344,0.5399,0.5502,0.5673,0.5786,0.5784,0.5784,0.5675,0.5344,0.5014,0.4627,0.4189,0.3613,0.3218,0.3072,0.2806,0.2506,0.2331,0.2219,0.1971,0.1548,0.1013,0.0343,-0.049,-0.098,-0.1477,-0.1985,-0.2478,-0.3381,-0.4665,-0.5728,-0.6691,-0.7548,-0.8237,-0.8918,-0.9547,-1.0138,-1.0557,-1.0905,-1.1318,-1.1773,-1.2126,-1.2377,-1.2671,-1.2915,-1.304,-1.3255,-1.3508,-1.3886,-1.4124,-1.4486,-1.5344,-1.5631,-1.5739,-1.6193,-1.6374,-1.6379,-1.6379,-1.6379,-1.6431,-1.6581,-1.6797,-1.7016,-1.7251,-1.7407,-1.7451,-1.7451,-1.7451,-1.7451,-1.7451,-1.7451,-1.7451,-1.7451,-1.7451,-1.7567,-1.775,-1.7651,-1.7656,-1.7854,-1.7755,-1.7711,-1.7711,-1.7926,-1.803,-1.803,-1.8296,-1.8344,-1.8024,-1.8362,-1.8464,-1.8398,-1.8398,-1.8667,-1.9087,-1.935,-1.9708,0.0839,0.1607,0.2314,0.3293,0.3714,0.4122,0.4758,0.5262,0.567,0.575,0.6423,0.6923,0.6636,0.6647,0.6539,0.6209,0.6052,0.6005,0.6121,0.6178,0.6228,0.6329,0.6384,0.6275,0.6,0.5729,0.5291,0.4689,0.4294,0.392,0.3562,0.3171,0.2948,0.2866,0.2738,0.2426,0.1981,0.126,0.0632,0.0136,-0.0271,-0.069,-0.1098,-0.1762,-0.229,-0.2739,-0.4392,-0.5553,-0.6369,-0.7069,-0.7865,-0.8702,-0.9246,-0.9766,-1.0324,-1.0757,-1.1221,-1.1573,-1.1828,-1.2175,-1.2524,-1.2676,-1.3045,-1.3523,-1.3675,-1.4024,-1.451,-1.5149,-1.5395,-1.5613,-1.5996,-1.6249,-1.6379,-1.6379,-1.6379,-1.6431,-1.6581,-1.6694,-1.6812,-1.6812,-1.6812,-1.6869,-1.6869,-1.6869,-1.6869,-1.6869,-1.6869,-1.6869,-1.6869,-1.6869,-1.6982,-1.7273,-1.7329,-1.744,-1.7711,-1.7711,-1.7711,-1.7711,-1.786,-1.7903,-1.7903,-1.8024,-1.8084,-1.7903,-1.781,-1.781,-1.7958,-1.7958,-1.8236,-1.8851,-1.9093,-1.9442,0.0168,0.0975,0.1708,0.2502,0.3226,0.392,0.4433,0.5208,0.5834,0.6042,0.6611,0.7142,0.7108,0.7093,0.6982,0.6707,0.6707,0.6707,0.6763,0.6766,0.6817,0.6866,0.6869,0.6761,0.649,0.6273,0.5891,0.5449,0.5008,0.4622,0.4218,0.3775,0.3441,0.3087,0.2909,0.2553,0.2019,0.1433,0.0985,0.0627,0.0179,-0.0226,-0.064,-0.1097,-0.1636,-0.2234,-0.2997,-0.4031,-0.5163,-0.5986,-0.6794,-0.7483,-0.8069,-0.8705,-0.9343,-0.9873,-1.0344,-1.0706,-1.1217,-1.1523,-1.1778,-1.1977,-1.2272,-1.2493,-1.2634,-1.2829,-1.3192,-1.4107,-1.4415,-1.4631,-1.5459,-1.5778,-1.5972,-1.6087,-1.6134,-1.6239,-1.6285,-1.6415,-1.654,-1.654,-1.654,-1.654,-1.654,-1.654,-1.654,-1.654,-1.654,-1.654,-1.654,-1.654,-1.6591,-1.6807,-1.6869,-1.692,-1.7094,-1.7094,-1.7094,-1.7094,-1.7245,-1.7346,-1.7346,-1.7462,-1.7468,-1.734,-1.7296,-1.7412,-1.7755,-1.7755,-1.8024,-1.8506,-1.8721,-1.9028,-0.0448,0.0342,0.1102,0.1876,0.2667,0.3443,0.4041,0.4914,0.5645,0.586,0.6486,0.7056,0.7067,0.7257,0.7311,0.7149,0.7144,0.7144,0.7144,0.7195,0.7249,0.7249,0.7297,0.7295,0.7079,0.6866,0.6598,0.6216,0.5754,0.5298,0.4767,0.4306,0.3816,0.3219,0.2998,0.2644,0.2152,0.1748,0.1344,0.103,0.0583,0.0134,-0.0269,-0.0627,-0.109,-0.1677,-0.2078,-0.302,-0.4287,-0.4931,-0.5658,-0.6362,-0.695,-0.77,-0.8452,-0.8974,-0.9506,-0.9988,-1.0502,-1.0808,-1.1019,-1.1267,-1.1473,-1.1578,-1.1723,-1.1913,-1.2249,-1.3183,-1.3687,-1.4066,-1.4873,-1.5303,-1.5546,-1.5667,-1.5778,-1.5879,-1.5946,-1.6192,-1.6379,-1.6379,-1.6379,-1.6379,-1.6379,-1.6379,-1.6379,-1.6379,-1.6379,-1.6379,-1.6379,-1.6379,-1.6431,-1.6575,-1.6575,-1.6632,-1.6818,-1.6812,-1.6812,-1.6812,-1.6858,-1.6904,-1.6904,-1.7022,-1.7022,-1.6904,-1.6904,-1.7083,-1.7373,-1.7423,-1.7639,-1.8007,-1.8176,-1.8441,0.0,0.0,0.0,0.1398,0.2056,0.2609,0.3537,0.4396,0.5043,0.527,0.6043,0.6651,0.6691,0.716,0.7487,0.7487,0.7427,0.7317,0.7325,0.7475,0.7518,0.7518,0.7777,0.7874,0.7723,0.7568,0.7359,0.6931,0.6505,0.5918,0.5256,0.4679,0.4042,0.3219,0.2998,0.2776,0.2505,0.2152,0.1793,0.1298,0.0895,0.0448,0.0,-0.0358,-0.0626,-0.0941,-0.1632,-0.2621,-0.3698,-0.3971,-0.4535,-0.5326,-0.5925,-0.6681,-0.7489,-0.8069,-0.8708,-0.9357,-0.9662,-1.0032,-1.0403,-1.0616,-1.0773,-1.0871,-1.1023,-1.1386,-1.1865,-1.2451,-1.3161,-1.3837,-1.4364,-1.4819,-1.5172,-1.5172,-1.5289,-1.542,-1.5614,-1.6029,-1.6374,-1.6379,-1.6379,-1.6379,-1.6379,-1.6379,-1.6379,-1.6379,-1.6379,-1.6379,-1.6379,-1.6379,-1.6426,-1.6575,-1.6575,-1.6637,-1.6756,-1.6756,-1.6756,-1.6818,-1.6818,-1.6818,-1.6818,-1.6818,-1.6818,-1.6818,-1.6818,-1.6818,-1.6818,-1.6904,-1.7179,-1.7473,-1.7473,-1.7738,-0.1346,0.0,0.0,0.0,0.0,0.0,0.2968,0.3716,0.4383,0.4879,0.5447,0.599,0.6585,0.7007,0.7417,0.7824,0.7923,0.8072,0.8367,0.8226,0.8156,0.8156,0.8209,0.8206,0.8055,0.7898,0.7625,0.7241,0.6865,0.634,0.5557,0.456,0.3837,0.3352,0.3044,0.2822,0.264,0.2331,0.1929,0.1523,0.1074,0.0627,0.027,-0.009,-0.0404,-0.0627,-0.1041,-0.1685,-0.2504,-0.3231,-0.3804,-0.435,-0.4875,-0.559,-0.6364,-0.7009,-0.7599,-0.8131,-0.8722,-0.9152,-0.942,-0.9677,-0.9892,-1.0106,-1.0253,-1.0652,-1.1162,-1.196,-1.2375,-1.2798,-1.3588,-1.3992,-1.424,-1.4419,-1.4597,-1.4765,-1.4951,-1.5245,-1.5647,-1.6119,-1.6176,-1.6244,-1.6374,-1.6306,-1.6244,-1.6379,-1.6306,-1.6244,-1.6379,-1.6249,-1.6181,-1.6228,-1.6124,-1.6129,-1.6291,-1.6285,-1.6353,-1.6488,-1.6488,-1.6488,-1.6488,-1.6488,-1.6488,-1.6488,-1.6488,-1.6488,-1.6488,-1.6751,-1.6965,-1.7123,-1.7318,-1.7479,-0.185,-0.1177,-0.0505,0.0168,0.0,0.0,0.2301,0.2931,0.356,0.4161,0.4657,0.5132,0.585,0.635,0.6907,0.7655,0.796,0.8178,0.845,0.8483,0.8451,0.8334,0.8374,0.8374,0.8268,0.8112,0.7895,0.7503,0.7195,0.6621,0.5658,0.4694,0.401,0.3617,0.3355,0.3087,0.2817,0.2552,0.2196,0.1749,0.1254,0.0807,0.045,0.0045,-0.0225,-0.0403,-0.0627,-0.1043,-0.1578,-0.2282,-0.3022,-0.3688,-0.4103,-0.4656,-0.5344,-0.6011,-0.6524,-0.7066,-0.7821,-0.8253,-0.8524,-0.8942,-0.9204,-0.942,-0.9528,-1.0115,-1.0739,-1.1267,-1.1794,-1.2342,-1.2911,-1.3216,-1.3467,-1.3649,-1.3881,-1.4048,-1.43,-1.4474,-1.4824,-1.5584,-1.5763,-1.5826,-1.5956,-1.5889,-1.5826,-1.5951,-1.5884,-1.5826,-1.5951,-1.5826,-1.57,-1.57,-1.5657,-1.5657,-1.5705,-1.5826,-1.5956,-1.6087,-1.6144,-1.6207,-1.6207,-1.6254,-1.6249,-1.6249,-1.6374,-1.6379,-1.6379,-1.654,-1.6643,-1.6745,-1.6925,-1.7038,-0.2352,-0.1737,-0.1066,-0.0449,0.028,0.0,0.1567,0.2122,0.2678,0.317,0.3689,0.4198,0.4699,0.5356,0.6155,0.7047,0.7547,0.7899,0.8129,0.841,0.8524,0.8286,0.8359,0.8397,0.8366,0.8265,0.8035,0.7726,0.7388,0.6749,0.5658,0.5031,0.4466,0.397,0.3753,0.3485,0.3077,0.2861,0.2508,0.2018,0.1433,0.0896,0.0494,0.018,-0.0045,-0.018,-0.0403,-0.0627,-0.0895,-0.1344,-0.2155,-0.321,-0.3468,-0.3895,-0.4465,-0.4979,-0.5536,-0.6154,-0.691,-0.7343,-0.7667,-0.8253,-0.8567,-0.8725,-0.8896,-0.9645,-1.0487,-1.0617,-1.1409,-1.2243,-1.2363,-1.2552,-1.2744,-1.2862,-1.3099,-1.3333,-1.3644,-1.3709,-1.3941,-1.4761,-1.5113,-1.5289,-1.5294,-1.5289,-1.5289,-1.5294,-1.5289,-1.5289,-1.5294,-1.5172,-1.5113,-1.5113,-1.5055,-1.5055,-1.5113,-1.5425,-1.5614,-1.5614,-1.5793,-1.5851,-1.5851,-1.5951,-1.6056,-1.6056,-1.6254,-1.6316,-1.6316,-1.6379,-1.6379,-1.6379,-1.6529,-1.6575,-0.2577,-0.224,-0.1792,-0.0953,-0.0393,0.0,0.0897,0.1436,0.1876,0.2332,0.2805,0.3282,0.3925,0.4598,0.5284,0.598,0.6713,0.7542,0.8532,0.8678,0.8643,0.8588,0.864,0.8558,0.8342,0.8219,0.7964,0.7586,0.7065,0.6472,0.5805,0.5361,0.4877,0.4326,0.4096,0.3827,0.3475,0.3123,0.2724,0.2236,0.1611,0.112,0.0672,0.0314,0.009,-0.0045,-0.018,-0.0359,-0.0582,-0.0895,-0.1566,-0.2453,-0.2764,-0.3179,-0.3666,-0.4168,-0.4679,-0.5226,-0.588,-0.6423,-0.6912,-0.7393,-0.7768,-0.814,-0.8421,-0.9088,-0.9876,-1.0547,-1.1334,-1.1868,-1.1809,-1.1996,-1.2243,-1.2428,-1.2617,-1.2801,-1.2985,-1.3107,-1.3224,-1.3402,-1.3983,-1.4515,-1.4642,-1.4519,-1.451,-1.4642,-1.4519,-1.451,-1.4642,-1.4515,-1.4392,-1.4392,-1.4291,-1.4359,-1.4588,-1.477,-1.5005,-1.5294,-1.5415,-1.5478,-1.5478,-1.5662,-1.5788,-1.5788,-1.5914,-1.5977,-1.5977,-1.6264,-1.6379,-1.6379,-1.6431,-1.6431,-0.2854,-0.2575,-0.224,-0.168,-0.1121,0.0,0.0,0.0511,0.0918,0.1436,0.1744,0.2112,0.2699,0.3325,0.3953,0.466,0.5445,0.6261,0.7206,0.7917,0.8445,0.8563,0.8507,0.8457,0.8386,0.8205,0.7964,0.7639,0.7182,0.6683,0.6247,0.5872,0.5417,0.476,0.4618,0.4308,0.3871,0.352,0.308,0.2595,0.1967,0.1477,0.103,0.0627,0.0359,0.018,0.0045,-0.0135,-0.0359,-0.0583,-0.0952,-0.1524,-0.2169,-0.2661,-0.3061,-0.3588,-0.4012,-0.4457,-0.5117,-0.5557,-0.5939,-0.6532,-0.6958,-0.7224,-0.7554,-0.8302,-0.925,-1.0125,-1.073,-1.1178,-1.1181,-1.1369,-1.1622,-1.1743,-1.1868,-1.1996,-1.2243,-1.2363,-1.2428,-1.2556,-1.2907,-1.3256,-1.3679,-1.3674,-1.3614,-1.3739,-1.3674,-1.3614,-1.3739,-1.3683,-1.3627,-1.3627,-1.3636,-1.3761,-1.3988,-1.4236,-1.4478,-1.4711,-1.4883,-1.4942,-1.4942,-1.5128,-1.5308,-1.5425,-1.5599,-1.5662,-1.5662,-1.5836,-1.6014,-1.6149,-1.6149,-1.6149,-0.3131,-0.291,-0.2632,-0.2352,-0.1793,-0.1177,0.0,0.0,0.0,0.0505,0.0728,0.0951,0.1399,0.1942,0.2496,0.3128,0.3907,0.4642,0.5327,0.6584,0.7637,0.8215,0.8167,0.8167,0.8346,0.8239,0.7978,0.7766,0.7512,0.7167,0.6714,0.6415,0.5936,0.5342,0.5159,0.4833,0.4264,0.3961,0.3568,0.3043,0.2414,0.1922,0.1522,0.1029,0.0672,0.0449,0.0315,0.0135,-0.009,-0.027,-0.0449,-0.0674,-0.1577,-0.2165,-0.2553,-0.3011,-0.344,-0.3819,-0.4448,-0.4791,-0.5069,-0.5773,-0.615,-0.6372,-0.669,-0.755,-0.8524,-0.936,-0.9923,-1.0291,-1.0481,-1.0741,-1.0996,-1.1055,-1.1181,-1.1306,-1.1615,-1.1681,-1.1743,-1.1934,-1.1937,-1.2112,-1.2712,-1.2834,-1.2834,-1.2834,-1.2834,-1.2834,-1.2834,-1.285,-1.2862,-1.2862,-1.3038,-1.3208,-1.339,-1.37,-1.3945,-1.413,-1.43,-1.4414,-1.4414,-1.4533,-1.477,-1.5055,-1.5172,-1.524,-1.524,-1.524,-1.5425,-1.5793,-1.5793,-1.5793,-0.3131,-0.3189,-0.319,-0.2633,-0.2297,-0.1903,-0.1342,0.0,-0.0729,-0.0561,0.0,0.0,0.0168,0.0,0.0,0.1517,0.2252,0.3075,0.3978,0.4755,0.5689,0.7199,0.761,0.7794,0.7925,0.8075,0.8065,0.7866,0.782,0.7603,0.7138,0.6861,0.6504,0.6067,0.5681,0.5272,0.492,0.4445,0.4007,0.352,0.2904,0.2369,0.192,0.1431,0.103,0.0671,0.0539,0.0405,0.0315,0.0045,-0.0135,-0.0315,-0.0945,-0.157,-0.2113,-0.2348,-0.2851,-0.3489,-0.3814,-0.4184,-0.4629,-0.5067,-0.5616,-0.6087,-0.6377,-0.6931,-0.7584,-0.8094,-0.8834,-0.9463,-0.9585,-1.0037,-1.0364,-1.0431,-1.0614,-1.0933,-1.1122,-1.1188,-1.1247,-1.1369,-1.1306,-1.1435,-1.212,-1.2178,-1.2178,-1.2178,-1.2178,-1.2178,-1.2178,-1.2305,-1.2367,-1.2367,-1.2556,-1.2801,-1.3046,-1.3277,-1.3515,-1.383,-1.401,-1.407,-1.407,-1.4189,-1.4364,-1.4592,-1.4588,-1.4588,-1.4588,-1.4588,-1.4883,-1.5478,-1.5478,-1.5478,-0.3025,-0.3078,-0.3188,-0.2909,-0.274,-0.2516,-0.2183,-0.1848,-0.1569,-0.14,0.0,0.0,0.0,0.0,0.0,0.0,0.0782,0.1458,0.2273,0.2901,0.4128,0.6426,0.6952,0.7339,0.7775,0.8126,0.8272,0.8248,0.8148,0.7961,0.76,0.7374,0.6989,0.6435,0.6147,0.5762,0.5193,0.4799,0.4318,0.3788,0.3306,0.2907,0.2505,0.2012,0.1565,0.1209,0.0896,0.0628,0.045,0.0315,0.018,0.009,-0.0314,-0.0965,-0.1672,-0.2035,-0.2577,-0.3101,-0.3539,-0.3855,-0.4128,-0.4467,-0.4849,-0.5209,-0.5494,-0.5884,-0.6359,-0.6981,-0.7578,-0.8186,-0.8511,-0.8874,-0.9139,-0.9201,-0.9454,-0.9643,-0.997,-1.0228,-1.0415,-1.0678,-1.0744,-1.0874,-1.1188,-1.1373,-1.1498,-1.1498,-1.1498,-1.1498,-1.1498,-1.1619,-1.1743,-1.1872,-1.2058,-1.2305,-1.2744,-1.2858,-1.3038,-1.3346,-1.3411,-1.3472,-1.3597,-1.3705,-1.3881,-1.4121,-1.4181,-1.424,-1.424,-1.424,-1.4359,-1.4592,-1.4765,-1.4883,-0.2916,-0.3023,-0.3074,-0.3077,-0.3019,-0.2907,-0.2801,-0.2577,-0.2349,-0.2181,-0.2069,0.0,0.0,0.0,-0.1396,-0.095,0.0,-0.0056,0.0614,0.1228,0.2614,0.5214,0.6123,0.6773,0.7456,0.796,0.8339,0.8391,0.8437,0.8303,0.7973,0.7804,0.7412,0.6779,0.6516,0.6091,0.542,0.5024,0.4585,0.4012,0.366,0.3307,0.2954,0.2503,0.2058,0.1701,0.1298,0.0941,0.0673,0.0539,0.045,0.0405,0.018,-0.0366,-0.1131,-0.1662,-0.2184,-0.2742,-0.3166,-0.3496,-0.3744,-0.397,-0.4135,-0.4371,-0.4646,-0.4939,-0.5312,-0.5862,-0.6371,-0.6921,-0.7385,-0.7663,-0.7907,-0.8102,-0.8226,-0.8482,-0.8877,-0.9134,-0.9387,-0.9719,-0.9913,-1.004,-1.0101,-1.0551,-1.0933,-1.0933,-1.0933,-1.0933,-1.0933,-1.1059,-1.1244,-1.1373,-1.1556,-1.1868,-1.2243,-1.2375,-1.256,-1.2858,-1.2858,-1.2924,-1.305,-1.3155,-1.3268,-1.3463,-1.3524,-1.3584,-1.3584,-1.3644,-1.3644,-1.3709,-1.4181,-1.4355,-0.2916,-0.3023,-0.3077,-0.2915,-0.3023,-0.3077,-0.2914,-0.2911,-0.2905,-0.3019,-0.2962,-0.285,-0.285,-0.2736,-0.2514,-0.2183,-0.179,0.0,0.0,-0.0223,0.1073,0.3212,0.4875,0.6065,0.676,0.7521,0.8009,0.8086,0.8561,0.8648,0.8146,0.7979,0.7695,0.7203,0.6658,0.6183,0.5682,0.5246,0.4762,0.4272,0.3875,0.3524,0.3171,0.2818,0.246,0.2056,0.1746,0.1389,0.1075,0.0808,0.0629,0.0494,0.0405,0.0135,-0.0317,-0.0988,-0.171,-0.2333,-0.258,-0.2996,-0.3414,-0.3584,-0.3691,-0.3853,-0.3971,-0.4289,-0.4571,-0.482,-0.5277,-0.583,-0.6152,-0.6598,-0.6992,-0.7199,-0.7328,-0.7579,-0.7962,-0.8027,-0.8156,-0.8487,-0.8552,-0.8616,-0.874,-0.9776,-1.0621,-1.0621,-1.0621,-1.0621,-1.0621,-1.0747,-1.0804,-1.0804,-1.1115,-1.1365,-1.1545,-1.1868,-1.2247,-1.2486,-1.2548,-1.2548,-1.2548,-1.2548,-1.2544,-1.2544,-1.2548,-1.2548,-1.2548,-1.2736,-1.2867,-1.2867,-1.3644,-1.401,-0.2748,-0.2858,-0.297,-0.2915,-0.3023,-0.3132,-0.3192,-0.3134,-0.3131,-0.3357,-0.3301,-0.3244,-0.3357,-0.3244,-0.3132,-0.3021,-0.2631,-0.2238,0.0,-0.1095,0.0,0.1263,0.3251,0.492,0.5825,0.6815,0.754,0.7972,0.8342,0.8506,0.8343,0.8247,0.7973,0.7591,0.7161,0.6655,0.6085,0.5396,0.4845,0.4412,0.4012,0.3744,0.3524,0.317,0.2862,0.2595,0.2106,0.1703,0.1389,0.0988,0.0809,0.0764,0.0539,0.036,0.0136,-0.0516,-0.1171,-0.1831,-0.2376,-0.272,-0.2969,-0.3076,-0.3298,-0.3523,-0.358,-0.3829,-0.405,-0.4198,-0.4531,-0.4942,-0.5236,-0.544,-0.5552,-0.5749,-0.5949,-0.6147,-0.6334,-0.6795,-0.7188,-0.7381,-0.7644,-0.7774,-0.7837,-0.8288,-0.8938,-0.9655,-0.9722,-0.9786,-0.9843,-0.9846,-0.9843,-0.9904,-1.0028,-1.0278,-1.0657,-1.1233,-1.1619,-1.1677,-1.1806,-1.193,-1.205,-1.2054,-1.205,-1.217,-1.217,-1.2236,-1.2367,-1.2428,-1.249,-1.2609,-1.3042,-1.3289,-0.2651,-0.2752,-0.28,-0.2711,-0.2834,-0.3023,-0.3134,-0.3217,-0.3301,-0.3527,-0.3581,-0.3579,-0.3692,-0.3635,-0.3577,-0.3579,-0.3246,-0.2843,0.0,-0.1777,-0.0902,-0.0053,0.1949,0.3666,0.4685,0.5813,0.6757,0.7461,0.7972,0.8301,0.8345,0.8406,0.8257,0.7838,0.7395,0.6931,0.6393,0.5567,0.4975,0.4541,0.4188,0.3968,0.3744,0.3483,0.3263,0.3044,0.251,0.2062,0.1703,0.1302,0.1034,0.0899,0.0763,0.0629,0.0451,-0.0139,-0.0724,-0.1376,-0.1859,-0.2128,-0.2351,-0.2516,-0.2741,-0.3022,-0.3136,-0.3246,-0.3425,-0.3556,-0.3776,-0.4016,-0.4394,-0.4462,-0.4569,-0.4744,-0.4889,-0.5024,-0.5219,-0.5617,-0.6011,-0.6205,-0.6402,-0.6599,-0.6732,-0.6929,-0.7449,-0.8554,-0.8818,-0.8885,-0.8944,-0.8885,-0.8885,-0.8944,-0.9008,-0.9256,-0.9761,-1.0278,-1.0667,-1.073,-1.086,-1.1048,-1.1244,-1.117,-1.1292,-1.1487,-1.1428,-1.1549,-1.174,-1.1868,-1.193,-1.205,-1.2301,-1.2617]}]]